GFSNGP_sfc_thetae_000.txt.gz
Theta_e
312 312 312 311 312 312 312 312 309 310 311 316 319 320 324 325 327 333 334 336 337 336 336 339 340 341 340 338 338 338 336 336 337 339 340 338 339 340 340 339 338 340 338 338
310 312 311 309 312 313 313 313 313 312 311 317 319 321 319 321 325 328 332 334 336 337 337 338 339 339 337 338 336 339 338 336 338 339 340 341 339 339 339 337 337 337 337 335
307 312 311 307 312 313 314 315 314 309 314 318 316 318 320 324 326 327 330 334 335 336 338 339 338 336 335 336 337 338 339 338 338 340 340 340 337 338 337 337 337 335 335 335
308 312 301 312 318 317 314 315 316 315 316 317 318 322 327 328 327 327 329 333 335 336 338 338 335 332 336 334 337 339 339 338 338 339 339 339 337 336 336 337 335 334 334 334
307 307 310 311 313 313 312 313 318 316 316 317 320 325 324 327 328 329 332 336 337 338 337 336 334 334 335 336 336 336 336 337 337 338 338 338 337 336 337 335 333 332 333 334
309 303 301 312 317 320 319 308 317 317 316 317 321 314 321 331 329 332 334 337 337 337 335 334 336 334 335 335 336 334 335 336 336 338 338 337 337 336 336 335 332 330 331 333
307 306 308 317 317 319 306 310 319 318 318 319 320 322 329 332 332 333 335 336 337 336 333 335 338 338 336 335 334 336 336 334 335 339 341 340 338 337 335 335 333 333 333 333
309 306 303 319 316 311 321 323 321 322 322 323 327 329 330 332 333 333 333 333 335 334 334 337 340 341 339 338 343 340 338 337 339 341 339 333 340 336 334 334 333 332 332 329
312 312 321 320 320 322 323 323 325 326 327 328 328 328 329 331 332 332 333 333 334 334 337 339 341 341 339 343 343 341 341 339 337 334 336 339 338 336 330 330 326 323 324 323
312 317 316 317 320 322 324 324 326 326 326 328 329 328 328 331 331 332 333 333 334 334 333 335 338 339 341 342 342 339 336 335 336 336 336 337 334 330 328 324 325 325 323 323
313 316 316 318 320 320 321 323 323 325 326 328 329 327 327 327 328 329 331 331 332 333 333 334 337 337 337 337 336 334 333 333 334 332 333 332 336 327 327 318 318 320 324 324
308 313 314 315 316 319 319 321 322 324 325 327 326 324 324 325 328 329 331 331 332 333 333 331 332 333 335 337 336 336 332 330 329 328 327 326 328 323 302 302 299 297 297 305
313 313 314 315 316 319 318 320 321 323 323 322 323 324 324 326 330 323 331 331 331 330 330 331 331 331 332 334 335 334 332 329 327 322 324 329 331 324 310 305 299 297 297 297
313 311 309 312 311 314 315 318 321 322 323 323 323 325 326 327 328 329 329 331 330 329 329 329 329 328 331 332 332 331 329 313 325 327 330 330 327 324 319 315 315 317 301 303
309 310 310 312 312 312 314 316 317 319 322 322 325 326 325 326 326 329 330 329 329 328 328 328 327 328 331 330 329 327 327 328 329 325 321 317 315 311 311 313 314 315 319 308
310 311 312 311 312 313 313 313 314 316 320 322 324 326 326 328 328 329 330 329 327 326 328 328 327 328 329 330 328 323 322 317 318 322 317 312 312 310 310 310 312 313 313 311
309 310 311 312 313 314 313 313 315 317 319 322 325 327 327 327 329 329 328 329 330 330 329 328 326 328 329 328 326 321 321 322 316 318 314 313 312 312 312 311 310 311 307 303
314 315 316 316 315 315 315 314 316 317 318 324 326 326 325 324 325 325 325 327 326 324 324 324 325 327 327 326 325 322 320 319 320 318 316 315 315 313 311 308 308 310 307 303
312 312 314 317 319 318 316 316 319 323 325 324 323 322 321 322 324 324 323 323 322 320 320 322 315 322 325 322 322 320 316 315 315 316 314 307 310 311 311 310 306 309 308 306
312 314 315 317 318 317 318 322 324 322 321 320 321 320 319 320 321 321 320 318 316 316 319 318 319 318 311 311 311 312 311 314 314 313 312 312 311 311 307 302 306 305 305 305
315 317 318 316 317 321 323 322 320 319 320 321 319 317 317 318 318 319 316 312 312 316 316 314 316 314 312 310 310 309 312 313 312 310 307 308 306 307 306 305 305 304 304 304
318 318 318 320 320 320 320 320 320 318 319 318 318 319 318 317 317 316 315 313 311 304 313 314 313 311 309 307 313 312 311 311 309 308 306 306 305 304 304 303 302 302 301 301
316 318 319 319 318 319 318 320 320 318 318 318 317 317 317 316 315 312 310 311 311 308 313 312 306 306 306 309 310 310 309 307 306 306 304 305 304 304 303 302 301 300 299 299
318 318 319 321 321 320 318 320 319 320 320 319 318 319 317 313 314 316 312 307 304 306 311 307 305 303 300 309 308 307 306 307 305 304 303 296 303 303 302 300 299 300 299 296
318 319 319 318 317 315 318 318 318 317 318 318 318 318 317 319 314 312 312 311 303 307 306 301 301 301 304 307 306 305 305 304 304 303 302 301 301 300 300 299 299 299 299 299
315 313 314 316 315 316 317 317 314 315 314 314 315 315 316 315 314 312 312 309 309 305 305 302 302 302 306 306 305 305 304 303 299 300 300 301 300 300 299 299 299 298 298 299
313 307 313 315 316 316 314 314 314 313 313 312 312 316 315 314 311 309 306 309 309 307 307 305 303 300 303 305 303 303 302 302 297 301 300 300 300 299 299 299 299 299 299 299

GFSNGP_sfc_thetae_003.txt.gz
Theta_e
312 312 313 312 311 312 312 313 309 312 311 317 319 320 323 323 325 328 333 338 342 338 342 349 345 347 342 338 339 338 337 337 338 341 343 343 342 342 341 340 339 340 341 339
310 313 312 310 312 313 313 313 313 313 313 321 321 322 321 322 322 324 328 335 340 341 340 344 343 341 340 338 338 340 339 338 340 340 341 341 341 341 340 340 340 341 337 338
308 312 312 307 311 312 314 316 315 311 316 321 319 320 321 323 324 325 326 332 337 341 344 346 342 345 339 338 340 339 340 340 340 340 341 341 340 339 339 340 343 341 337 337
309 311 302 312 317 317 314 316 318 318 319 319 320 321 324 327 327 328 329 329 336 339 342 343 343 341 340 338 342 341 340 340 340 340 340 341 340 339 341 341 342 340 338 339
307 306 311 313 316 315 314 314 319 318 320 320 320 322 322 327 329 331 333 335 337 340 342 345 342 341 340 337 338 338 339 340 340 340 340 340 339 340 341 341 338 337 338 337
311 304 301 312 317 320 320 310 320 321 320 318 320 314 323 330 331 333 335 338 339 341 342 342 341 334 338 337 338 338 340 339 340 340 339 339 341 342 341 341 335 332 333 335
307 306 309 317 320 322 309 313 322 321 320 319 319 322 329 331 333 336 338 340 342 342 340 346 342 341 342 340 339 341 339 339 342 341 344 343 343 334 339 338 337 336 333 336
308 306 303 320 319 313 323 324 324 323 323 322 324 325 327 331 333 335 337 339 340 339 339 340 344 346 344 347 349 346 345 341 343 346 338 333 343 341 340 338 336 333 331 329
314 310 325 324 323 325 325 324 323 324 324 325 324 323 326 329 334 335 337 338 339 338 340 342 343 344 343 349 348 345 346 346 344 343 337 337 340 342 333 337 335 322 324 324
316 319 320 319 323 324 325 324 325 326 326 327 325 327 329 332 335 335 337 336 337 337 337 339 343 344 346 346 347 345 345 342 342 343 340 340 339 333 330 328 325 323 323 324
315 319 319 321 321 321 323 325 325 327 328 328 328 328 331 333 336 336 337 337 338 336 336 337 340 341 342 344 345 342 339 337 336 333 335 334 337 327 327 320 316 321 322 323
312 317 317 319 319 321 321 323 325 326 328 330 332 332 333 333 334 334 335 334 337 336 333 337 338 339 339 341 340 338 335 333 330 329 328 326 327 323 301 302 298 296 296 304
315 315 315 317 318 318 318 319 323 325 326 326 328 330 329 331 333 329 332 332 330 331 333 335 336 336 337 338 337 336 333 331 327 324 325 327 329 329 324 310 300 298 297 298
317 315 312 314 313 316 317 318 320 323 326 326 326 328 328 330 329 328 329 332 332 331 332 333 332 332 334 334 334 332 331 315 325 325 327 330 327 325 325 322 319 315 302 304
310 311 312 313 314 315 316 316 316 318 321 324 326 326 327 328 326 329 332 331 331 330 331 330 330 330 333 333 330 330 327 328 330 327 326 322 323 320 319 314 314 313 315 304
312 313 313 312 313 315 316 315 313 314 318 321 324 326 327 327 330 332 331 331 328 326 329 329 329 330 330 332 330 328 327 319 322 325 322 322 319 317 314 314 314 313 312 309
311 312 314 314 314 315 315 316 317 316 316 320 322 327 329 328 329 331 331 331 331 332 331 330 329 331 331 330 327 326 325 325 317 322 319 318 318 313 314 316 315 313 306 304
316 315 315 313 313 314 315 317 317 318 317 318 320 324 328 328 329 330 330 331 330 328 329 330 330 330 328 326 326 324 325 323 322 320 317 317 317 316 314 312 312 311 306 303
313 312 313 313 313 313 316 319 319 319 321 324 324 325 324 327 328 329 327 326 325 323 323 326 320 323 327 323 321 323 318 316 314 314 314 307 312 312 314 312 311 310 309 307
313 313 313 314 314 314 317 320 321 321 324 325 326 326 324 324 325 325 325 323 322 323 326 323 323 324 323 317 315 315 310 309 310 311 313 310 312 311 311 302 307 307 307 307
312 313 313 314 315 317 319 321 323 322 322 322 323 322 321 320 321 322 321 315 319 318 321 315 320 319 318 316 313 316 316 314 310 310 309 308 310 307 308 307 306 307 307 306
314 314 315 316 318 321 323 323 322 322 323 320 320 319 319 319 319 319 320 318 317 308 316 317 317 312 314 308 313 312 312 311 309 309 307 307 306 306 306 306 305 304 304 304
316 318 319 317 318 319 321 322 321 322 321 320 318 318 318 317 318 315 312 314 315 312 315 313 307 306 308 309 312 310 309 308 306 306 306 306 305 305 305 304 304 303 302 301
318 317 319 321 321 321 319 320 321 321 321 320 320 320 318 314 314 316 314 308 305 308 313 309 306 304 299 308 310 307 306 306 306 305 305 297 305 304 304 304 302 302 301 298
313 316 318 318 317 318 319 320 319 319 318 319 318 319 318 317 313 315 314 313 305 307 311 301 303 302 304 307 307 306 305 304 304 305 304 304 303 302 303 302 301 301 301 300
314 314 314 316 315 315 316 317 313 315 315 316 316 316 315 318 314 314 314 310 312 307 310 307 305 304 306 307 306 306 304 304 302 301 300 303 303 302 301 301 301 301 300 301
315 305 311 312 312 313 313 312 312 313 313 316 314 315 315 314 312 309 307 310 311 309 309 308 307 304 306 306 306 305 304 303 298 302 303 301 302 302 301 301 301 301 301 301

GFSNGP_sfc_thetae_006.txt.gz
Theta_e
311 311 311 311 311 311 310 312 308 311 313 319 319 322 323 325 326 328 334 337 344 343 345 348 348 346 346 341 344 343 343 344 346 349 348 349 348 348 347 347 346 346 344 343
308 311 311 309 311 312 312 311 311 312 314 320 324 326 323 322 323 327 330 331 338 345 344 349 348 346 343 342 344 348 337 342 347 347 346 346 347 348 347 347 346 346 342 341
306 310 310 306 310 311 312 314 313 311 318 323 321 321 321 324 324 327 330 332 335 343 343 351 347 346 342 344 345 345 344 344 345 346 345 346 346 346 346 347 346 344 342 341
307 312 301 311 317 315 313 315 316 317 319 322 321 322 324 327 328 326 331 332 335 339 345 350 347 345 346 343 343 345 344 344 344 345 344 346 345 345 347 346 345 342 340 341
308 305 309 312 315 315 313 315 320 318 320 323 322 321 326 329 328 329 334 340 341 337 342 349 346 346 346 340 341 342 342 343 344 344 344 344 344 344 346 343 342 341 341 339
311 304 301 314 318 321 319 309 320 320 320 320 321 313 323 333 330 331 333 339 342 344 346 348 347 346 343 339 341 339 341 343 345 346 345 344 344 344 342 346 341 336 335 338
307 305 308 317 319 320 306 307 319 323 322 322 322 325 334 334 332 334 336 339 343 347 347 349 348 344 339 339 340 343 344 345 346 347 347 347 348 346 343 338 336 337 337 337
310 306 304 321 318 313 326 327 324 323 326 326 325 326 327 329 336 335 338 340 343 347 347 349 350 348 340 341 348 353 349 347 348 349 342 337 346 344 338 341 336 335 335 330
313 311 319 324 324 327 326 328 324 326 324 325 323 323 325 328 332 336 338 340 343 345 349 349 348 353 350 353 356 354 354 352 351 352 347 348 343 339 339 335 334 336 330 325
313 315 315 322 322 323 324 323 322 323 323 324 323 324 328 330 334 338 332 340 342 345 345 346 353 352 352 351 353 350 351 351 351 348 348 345 340 341 330 335 331 329 324 328
316 314 321 320 320 322 322 324 323 324 323 323 325 327 331 332 341 332 342 335 336 335 333 331 332 333 336 340 342 345 347 348 347 341 340 337 320 317 328 312 312 322 318 320
309 316 318 316 319 320 319 320 323 323 322 324 327 331 335 340 336 338 338 338 334 337 335 328 331 335 339 337 343 343 341 338 336 335 326 334 324 317 301 300 297 296 297 305
313 315 315 317 318 319 316 318 319 320 323 324 326 329 334 331 340 331 337 335 328 329 328 328 327 338 343 343 339 341 338 337 333 325 330 330 330 328 323 309 301 299 299 299
314 314 311 312 312 315 316 317 318 318 321 322 324 329 330 334 332 335 333 336 336 334 334 332 336 337 340 338 339 337 334 316 329 329 329 329 327 325 324 324 319 318 301 302
310 311 311 314 314 314 315 315 315 315 316 318 324 327 331 325 329 333 336 334 333 333 334 334 334 334 335 333 333 332 329 327 329 328 325 322 323 321 319 318 317 316 316 304
311 312 313 312 313 315 315 315 314 314 315 316 319 324 329 331 325 330 335 334 331 330 333 334 334 335 333 333 333 328 327 319 321 327 322 322 319 318 317 315 313 313 311 307
311 311 313 313 313 312 313 315 315 315 316 317 319 322 328 328 334 329 331 331 330 336 334 334 333 336 333 332 329 325 322 323 317 324 320 318 316 315 314 314 313 311 308 304
314 313 313 313 312 312 312 312 314 316 317 318 318 320 323 326 333 329 332 333 326 329 333 333 333 331 330 329 328 324 320 320 320 321 318 318 317 317 314 312 311 309 307 305
314 313 313 313 313 312 312 312 313 317 322 321 321 327 329 329 331 327 324 320 323 325 327 329 323 326 328 325 322 323 320 319 317 312 311 308 312 312 312 311 311 310 309 306
313 313 313 313 314 313 314 316 316 318 321 322 323 326 327 326 325 321 319 318 323 328 329 324 324 325 327 322 319 317 315 313 312 312 312 311 311 310 310 305 306 307 307 306
313 313 313 313 314 314 316 318 319 319 323 325 324 325 323 324 324 324 322 317 322 320 323 319 323 322 321 319 316 315 313 313 312 311 311 309 309 308 308 307 306 305 305 304
315 314 314 314 315 315 318 322 320 323 324 324 324 323 321 320 321 320 321 318 319 311 318 318 318 312 317 313 313 313 312 311 311 310 308 308 306 306 306 306 305 305 304 303
316 318 316 317 318 318 322 321 322 322 321 321 319 319 319 318 318 315 314 317 318 313 315 310 308 308 309 312 311 312 311 310 309 307 306 306 305 305 305 305 305 304 303 302
317 315 316 317 318 320 319 322 322 322 322 322 320 320 320 316 316 316 314 308 308 310 313 309 306 305 299 308 308 309 309 308 306 306 305 300 305 305 305 305 304 303 302 299
316 315 315 318 316 318 320 320 319 322 321 320 321 320 321 317 316 315 313 313 306 309 311 304 304 303 304 306 307 306 305 305 304 304 305 304 303 303 303 303 303 301 301 301
313 313 312 315 314 316 316 321 315 316 317 318 319 316 314 314 311 316 314 311 313 309 309 306 306 304 305 306 307 306 306 305 303 303 301 302 303 303 303 302 302 301 301 301
313 306 312 313 314 313 313 313 313 313 314 316 314 316 317 316 313 311 308 311 311 310 310 310 307 305 306 306 306 306 306 305 302 303 303 302 301 302 302 302 302 302 301 301

GFSNGP_sfc_thetae_009.txt.gz
Theta_e
304 307 307 308 308 306 302 301 300 302 308 309 312 315 316 317 317 317 321 327 334 335 341 340 340 338 338 336 337 338 336 335 334 335 334 335 334 335 334 333 334 333 332 331
301 308 307 305 308 309 309 307 304 305 307 315 317 317 317 317 317 317 318 319 328 337 338 340 340 338 337 334 334 335 334 334 337 336 335 335 334 335 333 332 333 333 331 330
296 303 304 300 305 306 308 310 308 302 309 316 315 316 316 316 317 317 319 320 319 323 337 340 342 340 336 334 335 334 333 334 335 336 334 334 335 335 335 333 331 329 330 330
297 301 293 303 311 312 311 313 313 312 315 316 316 316 316 317 316 318 319 321 321 325 339 342 341 338 337 337 333 332 332 333 334 334 334 334 333 333 333 331 329 329 329 328
298 296 300 307 310 311 309 308 315 313 316 317 317 320 319 323 321 320 324 325 326 327 340 342 339 338 336 334 332 333 332 333 335 334 333 333 334 333 332 331 330 331 330 328
301 296 296 304 314 318 316 304 316 316 316 318 314 312 315 322 325 325 326 327 327 329 339 340 339 337 334 332 332 332 333 334 336 335 334 334 334 334 332 331 329 328 324 328
300 300 303 313 318 318 302 304 317 316 315 316 314 318 323 325 324 326 325 328 332 333 338 338 339 337 332 331 330 333 333 335 336 336 335 335 335 333 332 330 322 322 324 326
302 299 297 318 318 310 313 317 320 321 319 318 317 318 319 320 325 326 325 330 332 337 338 339 338 335 330 329 333 335 335 335 337 337 338 338 335 334 331 328 325 324 322 323
310 309 316 318 314 318 318 316 317 317 318 319 318 319 319 318 316 323 328 331 335 338 336 334 335 334 326 320 319 330 337 336 337 338 338 331 332 331 327 326 326 324 321 320
310 312 314 318 317 318 319 320 320 320 318 318 316 319 318 321 321 327 331 330 329 327 323 322 324 324 324 324 324 322 326 336 335 336 333 332 329 326 324 323 320 320 318 315
309 313 316 315 317 318 320 320 320 322 320 320 320 322 323 321 328 329 329 329 330 326 326 324 324 324 324 325 325 322 321 324 333 333 329 318 313 313 319 305 307 313 310 310
303 314 313 313 316 316 315 315 316 315 318 321 321 323 329 331 329 326 326 329 327 323 323 323 325 325 325 322 323 321 321 328 328 326 323 319 312 305 300 300 297 297 298 305
310 317 314 315 317 314 313 314 314 313 314 315 318 321 326 329 330 326 325 326 327 326 326 325 324 323 326 325 325 328 329 324 324 318 320 320 313 309 304 302 300 298 298 299
309 311 308 310 308 312 312 314 315 315 313 314 315 317 323 328 328 325 324 325 326 328 326 324 324 328 331 331 329 326 324 316 319 319 320 319 319 319 316 309 307 305 299 300
310 311 310 310 310 311 312 314 312 311 311 311 312 313 325 326 322 324 327 328 328 325 326 327 329 327 327 328 325 324 322 321 320 317 316 317 315 313 312 311 310 310 305 302
311 312 312 312 311 311 311 311 309 310 311 312 313 314 316 326 325 325 326 326 322 324 326 327 324 326 326 325 323 322 317 317 317 317 317 315 313 311 310 308 307 306 304 303
307 306 307 307 308 308 309 309 308 308 309 312 313 315 315 321 322 323 325 326 326 327 323 324 324 327 328 325 323 320 319 317 318 314 313 311 309 308 308 308 307 305 303 299
310 310 309 309 308 308 308 309 309 309 308 310 315 316 324 321 323 324 323 319 318 322 322 323 326 326 324 324 323 321 317 315 315 316 312 311 312 310 309 306 305 303 299 298
312 311 312 312 311 309 309 310 310 311 311 312 312 318 323 322 319 317 318 318 314 315 319 322 324 324 324 320 319 319 317 314 309 307 308 307 307 309 306 308 306 305 303 300
312 312 312 312 313 313 311 312 312 311 312 313 314 322 321 318 315 314 314 313 316 319 321 320 319 321 322 317 319 313 309 308 307 306 306 306 307 302 301 303 303 301 303 302
312 312 313 314 313 314 313 314 313 314 318 317 321 318 318 317 319 320 317 314 313 319 317 317 317 318 318 314 312 309 309 308 308 307 305 303 302 300 301 302 300 300 300 298
313 314 315 314 315 315 315 318 317 312 312 318 317 317 317 316 316 315 315 313 312 313 315 314 310 313 315 317 308 307 309 309 307 304 302 302 299 299 299 299 299 298 298 297
314 315 314 314 314 313 317 316 316 315 312 317 315 316 314 312 313 310 309 311 312 310 309 306 309 311 311 308 305 304 304 307 306 303 301 300 299 298 298 298 298 298 296 296
313 315 315 316 315 315 313 315 316 317 316 317 316 315 314 313 312 312 309 307 308 308 304 304 304 306 305 303 304 301 301 304 302 301 297 299 298 298 298 297 297 297 294 295
312 314 314 313 315 313 314 314 315 315 314 315 314 314 312 313 309 310 312 308 306 307 304 305 305 303 298 299 300 300 300 298 297 296 296 296 296 296 297 297 297 296 296 294
313 312 312 312 312 313 313 314 311 312 312 312 314 313 313 310 309 311 309 309 306 306 304 300 299 298 299 300 300 300 300 297 297 296 295 294 294 295 296 296 296 294 294 295
311 308 310 311 312 313 312 311 310 310 311 313 312 313 313 313 309 308 306 309 308 306 305 303 302 302 300 300 300 300 299 299 298 298 296 295 294 294 295 295 296 296 295 295

GFSNGP_sfc_thetae_012.txt.gz
Theta_e
299 304 305 304 305 302 298 298 298 298 304 307 311 313 314 314 316 319 319 325 325 328 327 335 340 341 342 342 340 338 336 336 334 332 331 329 330 332 330 330 329 329 329 329
300 304 305 303 305 306 305 304 304 304 304 310 314 313 312 315 315 314 316 324 328 330 329 328 339 339 340 340 339 337 334 335 335 332 332 331 332 332 330 330 329 329 329 329
295 301 302 299 302 303 306 309 307 302 306 312 311 312 312 312 313 314 316 317 318 331 335 336 339 340 337 337 337 336 335 335 333 333 332 332 332 331 330 328 328 328 329 327
296 295 292 300 309 312 310 310 310 309 311 314 314 314 315 313 313 314 315 317 316 318 327 339 341 339 338 333 336 335 332 332 334 334 332 332 332 331 331 330 330 328 326 328
293 293 296 303 308 310 306 306 313 310 314 314 315 315 314 316 315 315 316 317 319 321 324 336 340 339 335 333 334 333 331 331 333 333 332 331 330 330 330 329 327 326 327 327
300 295 291 301 313 317 313 302 313 314 313 313 313 306 310 317 320 321 322 322 324 323 331 336 335 336 333 331 330 329 331 332 333 333 332 331 331 331 330 329 329 327 324 325
297 295 298 310 314 315 299 301 313 313 314 314 313 313 317 320 319 321 322 324 325 330 334 333 335 335 331 330 329 330 331 332 331 333 332 332 332 331 331 327 323 324 324 325
298 296 295 313 312 307 310 311 315 316 316 317 316 319 318 318 320 321 323 324 330 332 331 332 332 331 327 324 329 330 331 333 334 334 335 334 331 330 327 324 324 322 322 319
304 302 311 315 311 313 314 311 314 314 315 316 316 316 318 318 319 318 322 332 330 325 326 330 328 326 322 320 325 325 323 321 322 325 326 331 331 328 325 323 321 320 319 319
308 311 314 316 319 319 318 316 317 318 318 318 316 319 320 319 320 328 326 324 324 324 324 323 324 324 321 323 325 324 324 324 322 324 321 323 328 326 324 322 320 319 317 314
308 313 313 314 314 315 317 316 317 318 317 318 318 322 328 326 326 326 327 326 325 324 323 321 323 323 323 323 323 322 322 321 321 322 326 321 316 314 315 306 309 312 310 310
303 312 311 311 314 315 312 312 312 311 311 313 316 317 329 328 326 325 326 323 321 321 322 321 323 321 322 323 322 322 321 320 320 324 321 315 308 304 299 299 297 297 300 303
308 314 313 315 315 312 309 311 311 310 309 308 310 313 318 326 324 321 323 322 320 321 323 325 322 322 322 324 323 319 319 318 323 319 319 313 308 307 304 304 300 297 296 298
312 310 303 307 304 309 312 313 313 312 311 310 310 311 315 325 325 323 323 324 323 322 321 321 319 319 322 324 323 324 322 316 317 316 317 312 309 308 305 304 303 302 299 299
305 305 304 306 308 307 309 310 308 307 307 308 311 310 311 318 322 322 322 325 323 321 320 320 321 323 326 326 323 321 320 318 318 317 316 314 313 313 310 308 306 303 301 300
305 305 305 305 305 306 306 306 305 305 305 305 307 308 311 312 316 320 321 322 319 318 320 322 322 322 324 326 324 320 318 318 316 314 313 311 310 310 309 307 305 302 301 301
304 303 303 303 304 305 305 306 305 305 305 305 305 307 312 317 319 319 320 321 321 320 323 322 320 323 325 325 321 321 319 317 317 314 311 310 308 307 306 305 305 302 301 300
306 305 305 304 305 304 305 307 307 306 305 307 307 307 318 318 316 316 316 317 314 314 315 316 317 319 321 321 320 318 317 316 315 313 312 309 308 307 308 305 305 302 297 297
309 308 308 309 308 307 307 306 306 307 308 307 306 306 317 314 317 315 314 315 314 314 316 317 322 321 318 320 318 316 315 313 313 312 310 309 308 310 310 305 305 303 301 300
310 310 310 312 312 310 309 309 309 310 310 310 310 313 314 313 312 311 312 310 312 313 315 317 316 317 314 316 317 311 309 308 307 305 304 303 304 305 304 301 304 305 302 299
309 312 312 311 312 313 313 312 311 310 313 313 311 312 312 313 315 315 313 311 312 315 316 317 314 314 314 312 310 307 306 306 304 304 303 302 301 299 300 299 298 300 301 299
309 311 311 311 311 311 313 312 311 309 311 309 309 309 310 313 314 312 313 310 310 311 312 311 310 315 313 315 305 304 305 306 307 307 307 305 302 299 297 298 297 296 296 296
306 308 310 310 309 309 311 312 312 310 310 311 311 311 311 312 311 307 306 309 307 308 305 304 309 311 310 302 302 300 301 303 303 304 303 303 300 297 296 296 296 295 294 293
306 307 307 310 310 309 307 309 311 311 311 312 311 310 310 309 308 308 308 308 306 305 303 302 304 306 304 300 300 301 301 298 299 298 299 298 297 295 295 296 295 294 293 293
306 306 307 307 305 306 307 308 308 308 309 309 309 309 306 306 305 304 306 308 305 303 302 304 305 304 297 297 297 296 296 295 294 294 297 297 297 296 295 295 294 294 293 293
305 306 306 306 305 304 307 308 305 305 307 307 309 308 307 304 306 309 307 304 304 303 301 299 298 298 296 296 296 296 296 295 293 293 293 293 293 293 293 294 295 294 293 292
303 302 302 301 302 306 307 306 305 304 305 306 307 308 308 308 307 308 304 303 303 302 301 299 298 298 296 296 297 297 297 296 295 295 293 293 292 292 292 293 293 293 292 292

GFSNGP_sfc_thetae_015.txt.gz
Theta_e
299 300 300 300 301 300 298 299 298 299 300 305 307 309 311 315 315 317 319 321 325 327 328 330 332 337 344 345 342 340 335 333 331 332 334 332 332 331 330 329 329 327 327 327
294 299 300 299 301 302 302 299 299 298 301 307 311 309 310 314 315 316 317 322 325 326 326 328 332 337 342 343 342 340 336 333 333 333 332 329 329 330 330 328 329 328 327 327
294 296 298 294 300 300 302 304 304 300 303 308 308 310 311 311 314 317 318 321 323 323 324 324 331 338 339 341 342 338 336 334 334 334 334 332 331 330 328 329 328 328 327 328
295 294 290 299 306 306 307 309 310 308 305 311 312 314 312 311 312 312 314 317 321 325 328 329 327 336 338 340 339 337 332 334 335 334 332 332 331 330 329 330 328 328 327 326
292 292 297 304 308 308 304 304 311 309 310 313 314 313 311 314 313 313 314 313 314 318 325 329 333 334 335 334 336 335 332 333 335 334 331 331 329 330 329 329 328 328 326 324
294 291 291 304 310 315 311 299 312 313 311 312 312 308 308 315 315 316 317 319 319 320 325 330 332 334 333 331 333 333 333 332 333 334 333 331 330 330 329 329 328 327 324 324
295 295 299 308 312 314 301 300 310 312 311 311 308 309 313 317 318 318 318 319 323 328 329 331 333 332 327 328 328 329 331 331 331 330 330 330 329 330 330 327 324 323 323 325
297 293 294 311 311 305 308 310 311 311 312 313 312 314 314 316 315 317 320 326 332 330 329 331 331 330 327 325 328 329 330 329 326 329 333 331 329 325 321 323 325 322 322 322
300 299 307 312 309 312 312 308 311 312 313 317 320 318 317 316 317 324 329 329 328 327 326 326 327 328 325 322 324 325 323 322 323 323 327 327 326 319 318 319 324 322 320 317
306 306 308 312 314 315 314 311 311 313 315 314 315 323 323 324 323 325 324 323 324 325 322 319 320 322 321 323 326 325 323 322 321 321 320 322 323 322 322 323 322 319 318 316
306 312 311 312 314 314 315 316 315 314 314 314 314 315 326 325 326 326 324 322 322 321 320 319 321 322 323 323 324 322 320 320 320 322 323 321 310 308 316 310 311 318 315 313
303 308 309 310 314 314 311 311 310 311 311 311 311 311 315 324 327 327 324 323 321 321 321 320 321 321 321 320 322 318 317 317 316 318 319 317 311 305 301 299 297 297 301 305
310 315 311 313 311 313 310 310 310 309 309 308 309 310 312 321 322 321 323 320 322 322 321 319 319 319 320 320 321 317 315 315 315 316 317 315 309 305 303 302 297 295 295 297
312 307 304 306 306 310 310 310 310 308 307 307 307 308 307 311 322 322 322 322 321 321 321 321 320 319 320 320 319 316 316 313 317 318 316 312 309 308 306 303 301 301 297 298
305 306 307 308 306 305 305 306 305 304 304 304 306 306 307 308 311 316 323 323 322 320 319 319 318 318 320 320 320 319 318 317 316 315 316 312 310 307 305 304 302 301 300 299
303 304 304 304 304 304 304 305 303 303 303 304 304 305 307 313 316 318 319 321 319 317 318 318 320 323 324 322 319 317 315 315 315 314 313 311 311 309 307 305 303 301 301 301
302 301 302 303 303 304 303 304 304 303 304 305 304 305 309 314 318 318 318 320 320 318 319 320 322 320 320 321 319 316 314 313 315 313 311 310 310 309 308 306 304 302 302 300
304 303 303 302 304 304 305 306 305 305 305 306 306 305 307 309 313 316 319 314 315 316 318 320 318 317 317 320 318 317 314 313 312 310 310 311 310 309 306 306 305 302 299 299
308 307 308 309 309 308 306 306 307 307 308 308 307 306 307 312 315 313 314 313 313 311 311 315 320 319 317 318 316 313 312 311 311 310 311 309 308 306 306 306 307 305 302 301
309 310 311 311 311 310 310 311 310 308 310 312 313 310 311 314 313 312 310 309 309 311 313 316 314 313 312 315 315 311 310 310 310 310 311 308 306 306 304 304 304 301 300 301
306 309 310 309 309 311 311 311 310 308 310 309 309 308 307 308 309 310 309 308 310 312 315 317 314 314 312 311 308 307 307 307 306 308 307 303 301 299 299 299 302 301 300 299
304 305 307 309 308 308 309 310 309 308 308 306 307 308 309 309 310 309 310 309 312 312 312 310 311 314 312 310 304 304 304 305 304 305 305 303 300 301 300 298 297 298 299 298
303 304 305 305 306 307 308 309 309 308 309 309 309 309 308 308 307 306 306 309 308 307 308 306 308 312 310 302 301 301 299 302 301 303 305 303 302 302 300 299 297 295 295 296
304 304 305 306 306 305 305 306 307 308 308 309 307 307 307 307 306 307 307 307 305 304 304 303 305 306 303 297 298 298 299 300 299 299 301 299 298 298 298 297 294 294 293 293
304 304 304 303 303 303 302 305 305 305 306 306 307 306 304 305 306 305 305 310 305 303 302 304 306 305 297 297 296 295 295 294 293 293 295 295 295 294 294 294 294 294 293 293
303 302 302 303 303 302 302 304 304 303 304 304 306 308 306 303 303 303 304 306 304 302 301 300 300 299 296 296 296 296 295 295 292 291 291 293 294 294 294 294 293 293 293 294
302 299 299 299 300 301 303 303 303 304 303 303 304 306 307 307 306 304 303 303 302 302 301 300 298 298 296 295 295 296 295 295 292 292 292 291 291 291 292 292 293 294 292 291

GFSNGP_sfc_thetae_018.txt.gz
Theta_e
298 297 297 297 298 297 295 295 294 297 298 303 306 309 310 316 318 318 318 320 325 327 329 331 332 334 339 343 345 343 339 336 333 332 333 333 334 334 333 330 330 330 331 330
296 298 298 297 298 299 299 298 297 298 298 304 308 310 311 314 316 318 318 320 323 326 328 328 330 332 338 342 345 342 338 335 333 333 333 332 330 329 330 332 330 330 330 330
292 294 294 291 298 298 299 300 301 297 304 306 308 309 311 312 316 318 320 321 320 324 326 327 329 334 338 342 344 340 338 333 332 331 330 330 329 329 330 331 330 330 330 330
290 291 286 297 304 303 302 306 306 307 306 308 310 313 313 314 314 317 318 321 322 323 325 326 332 336 339 341 341 338 335 332 331 328 329 330 330 328 330 332 330 329 330 330
291 287 293 303 307 308 304 304 310 308 310 313 314 313 311 314 315 315 319 320 323 325 327 328 327 332 337 338 339 336 334 332 331 330 330 331 332 331 332 331 331 330 331 331
290 288 289 299 308 314 312 299 310 311 310 312 312 305 307 316 316 316 317 317 318 320 324 329 332 332 334 334 336 335 334 334 334 332 331 333 332 332 333 332 332 331 327 328
294 293 297 307 310 313 300 301 310 311 311 312 310 309 315 319 318 319 321 323 326 327 328 331 335 333 330 331 333 335 335 336 335 335 335 334 332 332 331 329 329 326 326 326
297 294 293 310 309 303 307 310 312 314 314 311 313 314 317 318 321 325 326 329 330 329 330 332 333 332 329 329 330 333 333 333 332 332 333 332 332 330 329 327 325 325 325 325
301 298 307 310 308 312 312 310 312 312 314 320 320 321 321 322 325 325 325 325 328 327 326 327 330 331 328 327 330 330 329 330 332 332 332 332 330 326 323 321 322 324 325 325
305 308 309 310 310 312 312 309 310 310 311 312 317 321 322 324 324 324 324 325 326 324 323 323 324 326 327 327 328 328 326 326 327 328 327 327 326 323 321 322 323 324 325 323
305 310 310 311 313 313 311 312 312 312 311 311 312 313 318 324 326 326 325 325 325 323 323 322 323 325 327 328 328 326 326 325 323 322 322 314 308 310 321 314 318 324 323 322
303 310 308 309 312 313 310 310 311 309 309 311 312 312 321 324 326 327 325 324 323 322 323 321 323 323 323 325 326 324 321 321 320 322 322 316 312 306 299 298 297 297 299 310
307 311 310 310 312 312 308 307 308 308 308 307 308 309 312 319 324 321 324 323 322 322 321 321 322 322 323 323 322 321 320 320 320 318 320 315 314 311 307 303 296 295 296 297
309 308 304 307 307 308 308 308 308 307 308 307 308 309 309 312 315 321 324 325 324 323 322 321 322 322 323 322 322 322 321 310 317 319 320 315 314 311 309 308 307 305 298 298
306 307 307 307 307 306 306 306 305 304 304 305 307 307 310 310 312 317 318 325 324 322 323 322 321 322 323 323 322 319 322 322 320 320 319 314 313 311 309 308 307 305 305 302
307 306 306 304 304 305 305 305 304 303 304 306 306 307 308 312 313 317 320 323 321 320 320 321 321 323 323 322 322 323 321 317 317 318 315 313 312 310 309 308 306 306 306 307
302 301 302 303 304 305 305 306 305 304 306 307 307 307 308 309 311 312 317 319 322 321 321 321 322 324 325 324 322 320 319 318 316 317 316 314 313 311 311 309 308 307 308 306
305 305 306 306 307 307 307 308 308 308 307 308 308 308 307 308 308 312 317 317 318 319 319 319 320 319 321 322 322 321 318 318 317 316 314 313 314 313 312 312 310 309 307 305
309 309 309 309 309 309 309 309 309 310 309 309 310 310 309 309 313 316 317 316 315 316 316 318 322 320 320 322 321 320 318 316 315 315 315 312 313 311 310 311 311 309 307 306
307 310 310 309 310 310 309 311 311 310 311 311 311 311 311 313 316 313 313 313 314 316 317 319 319 318 318 319 317 316 315 315 314 313 313 313 312 311 311 306 310 309 308 306
304 306 307 308 309 310 310 310 310 309 309 307 310 310 310 311 313 313 312 311 313 314 318 317 318 317 317 315 312 314 314 314 314 314 313 313 312 309 309 309 309 308 307 306
304 304 306 307 307 307 309 310 310 310 311 310 311 311 311 311 312 312 312 312 314 311 314 315 316 316 315 312 308 308 307 309 310 310 309 309 307 307 304 305 305 305 306 305
303 304 305 305 305 306 307 309 310 310 311 311 311 310 310 311 311 310 309 313 312 309 312 311 310 313 310 306 305 304 304 304 303 305 307 307 306 305 304 305 304 303 305 304
304 304 304 306 305 305 305 307 308 309 310 310 308 308 310 310 311 311 311 308 306 307 309 308 308 306 303 303 303 303 302 302 301 301 302 299 306 307 307 304 302 302 302 301
303 303 303 303 303 303 304 305 307 307 308 309 309 310 309 307 309 310 308 310 306 306 308 305 305 305 303 302 302 301 300 300 300 300 299 301 303 303 302 302 302 301 301 301
302 302 302 302 301 302 303 304 305 306 305 306 307 309 311 309 306 307 308 306 310 306 307 306 306 306 304 302 302 302 301 301 300 299 297 299 300 301 301 301 300 300 300 301
303 300 302 302 301 301 303 304 305 306 305 305 305 307 309 310 309 307 305 307 307 307 307 306 305 304 303 302 301 301 301 301 298 299 298 298 298 299 300 300 301 301 300 299

GFSNGP_sfc_thetae_021.txt.gz
Theta_e
306 307 305 304 302 303 302 305 302 305 306 312 317 319 324 329 329 328 329 332 336 337 342 346 348 351 351 350 353 354 353 350 346 342 344 342 341 338 331 333 334 337 335 337
304 307 305 302 304 304 304 305 305 307 308 317 320 321 320 324 326 328 330 331 334 337 339 342 345 346 348 350 351 355 351 349 346 342 343 342 341 339 337 332 335 337 335 335
299 305 302 298 304 305 306 308 307 304 311 319 315 317 321 326 327 329 332 334 334 336 341 342 342 345 345 348 353 352 350 348 343 343 342 341 339 339 338 337 337 336 336 337
301 300 292 304 310 309 307 308 310 311 314 317 319 322 324 327 328 329 332 334 334 334 338 341 342 343 347 349 352 351 349 345 343 342 341 342 339 337 339 339 336 337 338 339
301 299 302 305 311 306 304 307 313 312 316 319 319 318 321 322 324 328 330 332 334 335 337 339 342 345 348 349 351 350 347 344 344 343 341 340 337 337 340 340 338 337 339 339
301 297 295 306 312 316 316 304 317 318 319 319 319 313 320 322 324 327 330 333 335 337 339 340 341 346 347 348 348 347 347 345 344 343 341 338 338 338 340 339 339 337 338 339
302 299 304 312 315 316 304 308 317 318 320 319 318 320 323 326 328 330 330 332 336 339 340 343 345 344 344 346 346 349 348 346 343 342 340 340 340 340 339 339 338 338 338 339
305 300 298 315 314 310 315 319 319 320 321 320 323 326 329 331 332 334 336 338 339 339 340 343 345 346 345 345 349 348 344 343 341 342 339 339 340 339 340 339 338 338 336 330
305 305 314 314 315 317 318 319 321 326 328 329 327 328 330 331 332 333 334 335 338 339 340 342 344 344 342 336 341 344 344 342 339 339 340 339 338 340 338 338 338 336 328 329
310 312 312 313 315 315 316 315 317 319 321 324 324 327 330 332 332 333 334 335 338 340 339 338 340 337 340 341 343 343 341 340 340 340 339 339 338 337 335 334 333 329 329 328
309 310 312 311 314 316 316 316 315 316 318 322 327 327 330 331 333 334 335 335 335 336 336 334 336 337 339 338 338 339 339 339 338 335 334 327 320 321 328 329 321 328 329 328
307 313 314 312 314 316 313 313 315 315 315 318 321 326 330 331 333 334 334 334 335 334 335 333 332 336 337 336 337 337 335 334 332 332 328 324 320 316 299 299 298 299 301 318
313 316 314 313 313 311 310 310 312 312 312 312 315 320 323 323 327 324 333 332 332 334 334 335 335 335 335 336 337 335 331 329 328 327 326 322 321 321 318 305 297 295 296 297
313 313 308 310 306 310 311 311 311 312 312 311 313 315 315 317 322 325 327 333 334 332 331 332 333 333 333 334 332 331 328 314 327 327 327 324 323 325 323 319 316 312 298 301
309 311 310 311 312 311 311 311 310 309 311 312 313 314 316 315 317 321 328 331 332 333 332 331 331 332 332 331 330 329 329 328 326 325 327 324 326 323 322 320 317 315 312 304
308 309 309 309 309 311 311 311 309 310 312 313 314 315 315 317 317 319 324 329 331 331 330 331 331 333 333 331 331 330 329 321 324 329 325 325 324 322 320 319 317 316 316 316
306 306 309 309 310 310 311 313 313 313 314 314 315 315 317 316 317 318 322 327 329 331 331 331 331 332 332 332 331 331 330 328 321 327 326 326 324 322 321 319 318 317 318 315
312 313 314 313 312 313 313 315 316 316 315 317 318 317 317 317 317 319 324 327 328 328 328 329 330 331 332 332 332 329 328 327 326 326 325 324 323 323 322 320 319 318 317 313
313 313 314 314 315 315 315 315 316 317 317 319 320 319 319 319 320 319 323 326 325 326 324 327 321 326 327 328 329 330 328 327 326 326 325 318 321 323 321 319 318 315 316 315
311 313 314 314 316 316 316 317 318 316 316 317 319 320 319 316 319 322 324 322 323 323 327 327 328 328 329 325 323 327 326 326 325 325 323 322 323 322 320 312 315 314 316 316
310 311 312 313 314 316 316 317 317 317 318 319 319 319 320 321 321 322 321 319 323 325 326 321 325 326 325 323 322 324 324 324 323 323 322 321 321 321 319 317 314 317 315 315
310 310 311 312 312 314 316 318 319 319 320 319 320 320 320 320 320 320 321 320 324 312 321 323 325 319 319 317 319 318 317 320 321 322 321 321 321 320 318 318 317 314 314 315
311 312 312 313 312 313 315 316 318 319 318 318 317 317 317 318 319 316 315 320 322 314 319 320 314 314 310 320 317 316 314 314 313 313 314 316 317 317 318 315 311 311 313 312
312 312 312 313 313 313 313 315 317 317 318 319 318 317 315 314 317 320 321 313 308 310 317 315 313 308 307 314 314 314 313 313 312 311 310 300 310 312 313 309 312 313 310 308
312 312 312 313 312 312 314 315 314 316 316 317 317 319 319 319 316 317 317 318 308 311 318 306 306 305 312 313 312 311 310 310 309 309 308 307 308 308 309 311 311 310 311 312
312 311 311 312 311 311 312 314 313 314 314 314 315 316 317 319 319 316 318 312 317 312 317 318 316 315 314 313 312 311 311 310 309 309 306 307 307 308 309 310 310 310 310 310
310 303 311 311 310 308 309 310 311 312 312 313 312 314 315 316 316 314 311 317 317 316 316 316 316 313 315 314 313 312 312 312 306 311 310 308 307 307 307 308 308 308 308 308

GFSNGP_sfc_thetae_024.txt.gz
Theta_e
309 309 309 307 305 305 305 307 305 309 310 315 319 320 322 324 325 326 334 338 341 341 344 349 352 357 356 355 356 357 357 357 360 364 357 355 358 352 349 347 344 343 341 342
307 309 309 306 308 308 307 307 307 308 309 318 320 322 321 322 323 326 332 338 341 343 345 349 351 354 355 355 356 358 357 358 361 359 354 357 355 352 348 348 346 345 343 342
304 309 309 304 308 309 309 310 308 305 311 316 316 318 321 326 326 327 329 337 340 343 346 349 351 355 354 356 357 358 359 360 360 358 354 353 352 349 349 344 341 345 343 343
305 308 298 309 315 314 311 312 312 311 313 315 317 321 323 330 328 329 331 333 340 342 345 349 351 353 354 356 358 359 360 359 359 356 353 352 352 349 347 341 343 342 343 344
304 304 307 309 312 311 310 310 315 313 315 316 319 322 324 329 332 333 334 337 340 344 346 349 349 352 353 354 356 357 357 358 357 354 352 350 349 349 346 343 342 342 342 343
309 302 299 312 317 321 320 307 316 316 315 316 318 313 319 330 332 331 333 338 342 343 344 347 349 351 352 353 355 354 356 356 356 355 353 350 348 348 347 344 340 340 341 345
306 305 308 316 318 320 306 309 323 319 318 318 317 321 329 331 333 335 337 341 343 344 344 348 351 353 352 353 353 356 356 356 355 355 352 350 349 347 345 343 342 342 342 343
308 305 303 317 318 312 320 328 326 326 326 326 328 331 333 335 337 338 340 342 345 346 347 348 352 354 353 353 356 358 357 355 353 352 348 346 345 342 343 340 338 340 342 342
312 311 318 319 319 322 323 325 330 328 328 330 330 331 334 335 338 339 341 342 344 346 347 351 354 354 352 354 357 356 355 352 349 346 346 345 342 341 338 339 338 338 341 339
313 314 316 318 318 320 323 322 325 331 332 332 330 331 332 334 335 337 339 340 342 344 346 348 351 353 351 352 354 351 349 346 344 342 340 342 341 341 339 338 336 336 339 335
314 315 314 316 318 319 318 321 323 327 330 332 333 334 336 337 338 339 340 343 345 346 347 348 350 349 351 350 351 346 346 345 340 339 337 331 324 321 333 325 323 337 332 333
310 317 316 315 317 318 317 318 320 321 322 325 327 328 333 336 339 340 339 343 343 344 345 344 346 345 345 349 348 346 343 342 340 340 339 338 333 324 299 300 299 301 303 322
317 320 317 315 312 313 312 313 315 316 318 318 322 324 327 330 336 333 342 342 341 341 343 345 343 343 346 344 345 344 342 340 337 334 336 334 332 330 326 310 298 296 296 298
320 317 310 309 307 311 311 313 312 314 314 315 317 320 321 324 328 331 338 340 340 339 340 342 341 340 344 345 343 338 335 319 333 332 331 331 330 329 329 326 324 318 300 305
310 312 310 312 311 311 313 313 312 313 314 314 315 317 318 318 319 324 331 335 340 340 339 340 340 339 341 339 337 335 333 330 330 330 330 327 331 332 329 328 325 321 314 307
309 309 311 310 310 312 312 312 313 311 313 314 316 316 317 319 319 320 325 332 333 334 338 339 340 339 338 337 335 334 333 323 326 330 330 331 331 328 326 326 325 322 321 321
305 304 306 308 310 311 312 314 315 315 314 315 315 316 318 319 319 322 325 329 334 337 339 339 339 340 340 337 336 335 331 331 325 329 328 327 327 327 326 325 324 323 323 321
313 313 314 313 312 313 315 316 317 318 319 320 321 322 321 319 320 323 327 332 334 333 335 337 338 338 338 337 336 333 331 329 328 328 328 328 327 327 326 324 324 322 322 316
316 314 316 316 316 317 318 318 318 319 321 323 323 323 323 324 326 325 330 331 329 327 330 333 324 332 335 332 331 332 330 330 329 330 329 321 326 326 325 324 323 322 320 319
315 316 316 316 318 319 319 320 321 321 322 323 324 324 324 324 327 327 328 327 328 329 333 331 333 333 333 328 325 333 330 330 328 328 327 326 325 325 325 315 322 320 320 319
313 313 313 315 315 317 320 322 321 320 322 323 323 323 323 325 326 325 324 322 328 327 328 324 329 329 328 326 325 329 328 326 325 325 325 324 324 324 324 323 321 320 318 317
313 313 313 314 313 315 317 319 321 321 321 321 322 323 323 323 324 324 326 323 323 312 322 324 324 317 320 316 325 324 325 326 324 324 324 325 324 323 323 322 320 317 318 317
315 315 315 315 315 316 317 317 317 318 318 319 319 320 319 320 320 318 317 323 322 315 321 320 315 314 313 320 322 321 321 319 318 318 319 320 320 319 319 320 318 318 318 316
316 317 317 317 317 315 314 317 317 318 318 317 318 320 319 316 318 321 322 314 312 313 318 317 316 312 307 318 318 317 315 316 316 316 316 302 314 315 317 317 320 320 316 313
318 318 317 316 314 312 314 317 317 317 316 317 317 317 319 317 316 316 318 320 310 313 320 307 309 308 314 316 316 315 314 313 312 312 312 311 310 312 314 315 316 316 317 318
316 313 314 317 316 313 313 313 311 313 313 313 314 315 316 319 319 317 320 313 318 314 317 318 319 316 317 316 316 315 314 313 312 312 310 312 311 310 311 313 314 314 314 314
311 305 312 312 312 312 312 312 312 312 312 313 312 314 315 316 315 314 311 316 317 317 317 317 317 315 317 316 316 316 316 315 309 314 313 313 313 312 310 311 312 312 312 312

GFSNGP_sfc_thetae_027.txt.gz
Theta_e
309 311 311 309 307 307 307 309 307 311 312 317 320 322 325 326 326 327 327 329 338 341 342 352 354 360 359 360 360 358 362 363 367 372 372 372 369 367 363 360 353 353 352 346
308 311 310 309 308 308 308 308 309 310 311 320 323 324 325 325 325 325 326 327 336 343 345 350 355 359 362 361 362 364 365 365 369 372 372 369 367 367 361 356 353 351 348 343
303 309 309 304 309 310 310 310 309 306 313 318 318 320 324 330 327 326 327 329 329 342 347 353 352 360 361 363 365 365 369 367 371 372 370 365 363 363 358 355 352 350 347 346
305 308 298 310 315 314 312 313 314 313 314 316 317 321 324 327 326 328 329 329 332 337 345 349 352 354 361 360 365 367 367 369 371 369 365 362 360 361 360 355 351 347 347 348
302 303 308 310 313 312 311 311 316 315 317 318 318 318 321 325 328 331 333 334 335 331 343 351 354 360 364 363 363 365 365 368 367 365 364 361 354 357 358 355 349 348 347 348
306 301 299 309 318 322 320 308 319 319 320 318 319 311 318 326 324 327 330 332 332 336 340 348 355 354 361 360 362 363 363 365 366 365 361 357 356 356 357 353 349 345 344 347
307 304 308 319 321 321 307 311 326 327 326 325 320 319 324 327 328 333 333 336 339 343 344 357 359 360 360 359 358 361 361 362 363 360 360 359 357 357 351 346 343 344 342 341
306 304 300 321 320 314 322 329 331 330 328 327 330 325 324 333 335 337 338 340 342 344 349 354 361 363 362 362 367 366 363 358 359 360 356 354 353 350 348 344 345 344 341 341
309 309 324 325 325 326 326 325 330 331 331 330 329 330 333 337 337 339 342 344 345 347 353 356 361 365 361 366 367 364 361 360 359 358 354 353 347 344 341 343 341 341 339 344
318 320 320 322 324 326 327 328 331 332 332 332 330 333 336 339 340 342 345 347 350 349 350 355 362 362 362 362 365 361 357 354 351 348 347 348 344 343 342 340 340 340 339 340
318 319 321 321 322 324 325 330 332 334 335 335 334 334 336 337 339 340 342 346 348 349 351 351 354 355 357 357 358 354 350 349 346 346 346 340 327 327 341 335 327 341 338 337
314 320 321 319 323 324 323 324 327 327 328 328 332 334 337 338 341 342 343 346 348 349 349 350 351 352 355 355 354 351 346 345 341 341 339 340 335 325 300 302 300 301 304 323
317 322 319 318 318 319 318 318 320 321 324 324 326 328 331 336 341 335 342 344 346 347 348 348 348 349 351 353 351 349 345 344 342 339 340 339 337 334 328 312 299 297 297 298
320 319 315 316 312 316 316 316 315 317 317 319 320 321 324 328 333 339 340 341 342 344 345 345 343 343 347 349 350 346 343 325 339 337 336 335 334 333 331 327 325 321 302 306
314 318 315 315 315 309 310 316 314 313 316 316 319 319 320 320 324 330 336 341 342 342 343 343 343 344 346 343 340 336 335 334 335 333 332 329 331 330 330 329 328 324 316 308
309 312 309 308 309 314 311 313 312 312 314 316 318 319 318 319 321 324 329 333 334 336 340 342 342 342 342 341 339 337 334 326 327 332 330 330 330 329 328 327 327 324 321 321
303 302 306 308 311 311 312 314 315 315 318 316 317 317 319 318 321 323 324 329 334 336 339 343 341 342 341 340 338 335 333 329 327 331 330 330 329 328 326 325 324 324 323 321
308 308 309 309 311 314 314 315 317 318 319 321 322 321 320 321 323 323 326 330 335 336 337 340 341 342 341 339 339 336 331 329 329 329 328 328 329 330 329 325 325 323 318 316
314 311 312 315 316 316 316 317 317 319 322 323 323 323 324 324 324 326 328 331 329 328 331 336 329 334 337 334 332 333 330 330 328 329 325 322 327 327 327 327 325 324 320 318
315 316 317 317 318 318 317 320 320 320 322 323 323 323 324 326 328 328 330 329 331 334 334 334 334 334 334 331 328 329 327 327 327 328 326 327 328 326 327 315 322 322 322 321
314 315 316 315 316 319 319 320 319 319 321 323 323 322 323 324 327 324 325 323 327 330 331 326 329 329 328 327 325 327 327 324 325 325 325 324 323 324 323 324 322 322 321 320
313 313 313 315 316 315 316 319 320 321 320 322 322 324 323 324 325 325 327 323 325 314 326 324 323 318 321 318 324 324 324 323 322 323 323 325 323 323 324 322 321 322 319 320
314 315 315 315 315 316 317 317 317 318 318 319 320 321 321 320 320 319 317 323 321 317 321 319 314 317 316 320 321 322 321 320 319 319 320 322 321 321 321 321 322 320 318 320
315 316 316 317 317 316 316 316 317 318 318 318 318 320 319 317 318 320 321 314 313 314 318 317 316 314 309 317 318 318 316 316 317 317 317 305 317 317 318 320 320 319 320 315
317 317 317 316 317 312 316 318 317 317 317 318 318 319 320 318 316 316 317 321 312 314 318 309 311 311 316 316 317 317 316 315 314 314 313 314 313 312 313 315 316 319 319 320
315 313 314 317 314 313 313 314 312 313 314 314 315 316 317 318 317 317 320 314 318 316 317 318 319 318 318 317 317 318 316 316 314 313 312 313 313 313 312 312 313 315 316 316
312 306 312 311 311 312 312 312 311 311 313 314 313 314 315 315 315 314 311 316 316 316 317 317 318 315 317 317 317 317 317 317 311 316 315 315 315 315 314 312 312 314 314 314

GFSNGP_sfc_thetae_030.txt.gz
Theta_e
309 308 310 309 309 308 307 308 305 308 312 316 320 324 325 334 332 333 336 337 341 340 348 354 350 350 350 350 351 354 358 360 363 367 367 367 366 366 366 365 362 358 353 351
306 308 308 307 310 310 310 309 309 310 310 319 323 325 328 324 325 330 333 333 341 347 350 354 356 353 351 352 352 354 355 358 362 365 367 367 366 366 364 364 360 357 351 349
303 308 307 303 309 310 310 311 310 306 313 319 319 321 326 329 326 331 331 332 337 346 349 353 357 358 354 354 357 354 357 358 361 365 366 366 367 365 363 362 359 353 350 348
304 307 298 309 314 313 312 312 312 312 315 317 319 322 323 329 332 333 334 333 338 334 346 352 353 354 362 358 359 358 360 360 363 366 366 367 366 364 363 361 355 350 348 346
302 301 305 308 312 312 310 312 316 315 317 317 318 319 320 324 326 330 333 338 340 334 332 350 350 355 358 361 359 360 359 366 366 367 367 366 363 362 360 358 351 348 346 346
305 299 297 309 313 318 317 308 319 318 319 318 321 313 316 326 325 326 328 330 337 338 335 337 351 354 358 358 361 358 363 365 369 369 367 364 362 361 362 360 351 346 344 345
303 301 305 313 316 321 308 313 327 325 324 323 322 327 335 333 329 327 328 331 334 339 342 359 354 355 358 359 360 362 366 368 368 368 367 366 361 359 357 355 353 347 344 343
304 303 300 319 320 313 324 330 330 329 329 327 330 331 332 334 335 336 342 341 341 351 356 362 360 364 361 361 366 368 366 366 366 366 360 360 355 353 351 348 346 344 340 340
308 308 322 321 327 329 328 327 329 330 329 329 328 328 329 337 340 337 340 345 347 353 364 366 372 365 361 367 366 366 363 362 360 360 358 355 351 350 343 344 340 339 339 337
310 314 321 323 324 328 329 329 331 332 331 330 329 330 333 338 339 341 345 349 353 355 358 361 366 367 366 365 363 361 359 359 358 354 349 348 346 345 342 339 340 340 340 341
312 324 323 323 325 326 328 332 332 336 336 337 338 338 340 342 345 345 350 354 355 357 357 360 363 362 363 362 361 358 356 351 348 346 342 328 319 316 339 325 326 341 341 342
311 311 313 322 325 328 327 327 330 331 332 336 338 337 339 339 344 345 348 352 352 350 348 352 356 355 356 359 358 353 347 346 343 339 335 329 327 320 301 302 300 300 305 326
310 315 312 321 321 322 320 322 325 326 327 327 333 337 336 338 336 332 341 344 347 347 349 350 352 354 357 357 354 348 344 344 342 340 340 337 334 329 320 308 300 298 298 304
315 315 311 312 312 317 317 317 317 319 321 322 324 329 335 335 340 339 340 345 345 345 344 347 347 348 351 350 354 350 346 327 341 341 340 340 337 333 327 322 322 318 302 304
315 314 312 314 315 314 316 316 315 315 317 317 320 320 323 328 333 337 342 341 344 345 345 345 345 345 349 349 346 345 343 341 339 339 338 334 336 334 330 329 326 318 313 307
311 313 313 313 315 315 315 312 312 316 315 315 318 318 320 324 325 330 336 341 339 340 343 342 344 345 344 343 342 339 337 328 332 334 331 332 331 330 330 329 325 320 319 316
308 309 312 311 311 313 312 313 312 311 317 319 319 320 321 320 324 327 331 335 340 341 342 343 343 345 345 344 344 336 332 331 325 331 330 330 331 331 330 327 326 324 323 320
307 309 311 313 313 313 315 316 316 313 317 319 322 322 322 324 324 325 329 334 335 336 338 339 340 341 340 343 340 335 331 328 329 329 330 332 332 332 331 326 326 325 323 316
312 312 314 313 314 316 316 317 316 319 321 323 322 322 323 324 326 329 330 329 331 329 333 334 329 332 339 329 329 332 332 329 329 330 329 323 327 323 327 324 319 322 321 318
315 316 316 317 319 319 318 319 319 319 321 322 323 323 324 327 327 328 331 327 328 330 336 334 334 335 337 333 330 332 329 329 329 330 325 328 327 323 325 316 322 322 320 319
313 314 316 316 317 317 319 320 319 318 321 322 322 323 323 325 326 328 327 322 330 331 332 327 322 322 328 324 325 325 329 323 327 326 326 323 322 323 324 325 324 323 318 320
313 314 314 315 315 316 318 317 318 318 319 319 321 323 323 325 322 322 327 324 323 315 321 321 316 316 316 318 321 322 323 323 322 323 321 323 324 323 325 325 320 323 321 320
315 317 315 316 316 316 319 318 318 319 317 318 322 319 317 318 319 319 317 323 321 314 317 314 315 314 313 318 319 320 320 319 319 320 322 324 324 322 323 323 323 320 318 322
315 315 316 312 317 319 318 318 317 318 320 319 319 321 322 318 319 320 320 313 314 314 318 316 314 313 309 315 317 317 315 315 316 317 317 307 318 318 321 322 321 321 322 318
313 319 314 312 316 313 317 318 318 316 318 319 321 322 324 319 316 316 320 320 312 313 317 311 311 311 315 315 315 316 315 315 313 313 313 313 313 313 313 314 315 319 321 321
315 313 313 317 313 312 312 313 311 312 314 314 314 315 316 316 316 318 323 317 318 316 315 316 317 316 317 317 316 316 316 315 314 313 312 312 312 313 312 312 312 313 315 317
312 306 311 310 310 311 310 311 310 309 310 311 310 312 314 315 315 315 312 316 314 314 317 316 314 314 314 315 317 318 316 315 308 314 316 316 315 314 314 314 314 313 313 315

GFSNGP_sfc_thetae_033.txt.gz
Theta_e
303 305 305 304 305 304 301 301 296 298 299 303 308 316 319 319 318 320 324 326 324 331 333 336 336 339 343 346 347 355 356 358 358 360 361 361 361 360 356 357 356 349 346 346
300 305 304 303 305 305 305 304 303 303 302 307 309 320 320 321 320 320 324 328 329 328 335 336 336 337 340 343 345 347 353 355 358 358 360 360 359 359 358 355 357 352 347 346
295 302 301 298 302 304 306 307 305 301 303 308 308 312 316 320 319 320 321 325 329 332 333 336 340 340 339 341 344 346 346 352 355 357 358 359 359 358 358 356 358 353 348 345
295 299 292 301 307 308 307 309 308 307 307 310 310 313 317 321 320 321 322 324 325 336 336 338 347 343 343 343 343 345 347 349 353 355 358 359 359 358 358 358 354 351 347 344
295 295 297 304 307 306 303 304 311 308 309 311 311 310 309 316 319 315 320 321 326 328 338 342 345 348 345 344 346 344 346 348 353 355 357 359 358 358 358 356 353 348 344 342
295 292 291 300 310 313 310 300 317 314 311 310 309 302 306 321 322 319 320 320 323 326 326 340 339 351 347 345 347 345 345 350 352 356 357 359 359 358 355 353 349 345 343 342
296 293 297 307 311 312 300 302 322 322 320 320 316 320 322 324 324 323 319 321 320 322 324 327 340 348 350 348 346 351 352 357 358 360 361 360 358 356 355 349 346 343 341 341
297 294 293 317 312 310 318 322 324 323 322 320 320 322 322 330 330 330 333 335 333 326 330 333 340 348 347 349 352 353 358 360 360 360 360 356 353 351 350 347 343 340 338 335
302 301 316 319 319 321 322 324 322 322 322 322 320 319 329 331 332 330 331 333 337 347 353 355 352 349 349 354 358 359 359 358 358 356 355 351 347 344 342 341 339 335 335 333
305 308 311 315 319 320 323 324 331 333 333 333 333 336 336 337 337 340 343 345 348 350 350 352 355 358 357 358 358 357 354 352 349 349 347 346 343 342 340 339 338 336 336 334
305 308 313 318 313 319 324 332 332 334 334 334 334 335 336 336 339 343 345 348 349 349 351 352 355 354 355 356 355 352 350 346 343 339 330 320 315 326 334 322 328 338 337 336
301 309 311 312 312 315 326 327 327 328 331 333 334 334 335 334 337 341 341 343 344 347 348 350 352 352 352 351 348 345 341 340 334 331 328 324 320 312 301 302 300 302 308 319
309 314 312 313 314 315 315 323 325 325 327 327 332 332 332 333 334 331 336 337 338 340 341 342 342 340 347 346 343 342 340 336 333 330 330 326 323 320 313 308 301 298 299 302
316 315 309 311 309 314 314 315 315 316 316 316 322 326 329 330 333 335 335 338 338 337 338 342 342 341 343 343 342 340 338 327 338 335 334 330 325 321 318 316 314 310 299 300
312 313 311 313 314 313 313 315 314 311 314 314 315 317 319 319 323 328 335 338 338 338 337 339 339 339 341 342 342 339 338 338 337 336 335 330 329 323 321 320 313 306 304 302
310 311 313 312 313 314 314 312 312 314 314 314 314 316 317 319 322 326 332 334 332 332 335 336 334 335 336 336 336 331 330 329 330 333 332 332 329 323 322 318 312 310 308 306
308 308 309 309 311 311 311 312 313 311 316 316 316 318 318 319 319 323 329 333 334 332 333 334 334 337 336 335 331 325 325 323 324 323 323 324 324 325 326 319 315 314 312 310
308 310 312 312 313 314 314 312 314 312 311 314 319 319 318 318 317 323 327 329 330 329 329 329 330 332 330 328 329 327 324 322 322 323 323 323 324 323 325 322 318 317 315 309
310 311 313 315 315 316 315 316 317 318 319 319 319 319 319 319 322 326 326 326 325 324 325 321 325 324 327 329 328 327 326 325 324 323 323 321 323 321 319 317 319 318 317 312
314 315 317 317 318 317 316 318 319 319 320 320 320 320 319 322 323 323 323 322 324 325 327 326 326 321 320 326 327 325 327 326 325 323 322 320 319 320 322 315 318 317 315 313
313 314 315 314 315 316 318 316 316 315 317 319 319 318 317 320 321 321 319 317 319 323 318 318 316 318 317 319 321 323 327 326 326 321 318 318 318 320 318 319 317 316 314 314
312 313 314 315 315 314 315 314 315 315 316 317 317 318 318 318 317 315 317 313 313 312 312 311 310 313 311 318 314 315 319 322 321 322 321 319 316 318 319 317 317 318 315 314
312 311 311 313 315 314 316 314 314 314 314 316 315 315 315 314 316 312 309 312 314 310 310 309 312 312 311 310 310 313 315 316 319 319 318 318 317 317 317 315 316 317 316 315
313 311 311 313 317 315 310 312 313 314 315 315 314 316 315 314 315 315 312 310 311 312 311 311 309 310 309 309 309 309 308 308 307 307 311 310 315 316 316 316 315 316 315 313
313 310 310 308 309 309 310 313 311 312 311 311 312 313 314 315 312 316 316 313 310 310 312 310 310 310 309 311 312 310 308 307 305 305 305 305 303 303 305 307 312 314 316 316
309 311 308 306 305 305 305 306 309 308 309 309 309 310 310 313 312 312 312 311 314 311 312 313 311 312 311 311 313 313 312 311 312 309 307 307 306 307 305 304 303 303 309 316
306 303 304 303 303 303 304 303 303 303 305 305 304 306 309 311 310 309 309 311 312 310 312 313 310 309 310 310 311 312 313 313 306 312 313 312 312 312 313 311 311 311 308 307

GFSNGP_sfc_thetae_036.txt.gz
Theta_e
295 301 301 300 301 302 298 299 296 294 295 298 301 306 314 319 321 323 323 321 325 326 328 333 335 339 341 343 350 353 353 353 353 354 356 357 357 357 355 353 352 349 346 344
296 300 302 300 302 303 302 302 300 296 296 301 304 305 308 316 320 320 318 320 321 323 327 333 335 339 341 343 348 352 353 353 355 356 356 356 357 358 356 354 353 348 346 344
289 298 299 296 301 302 302 302 301 296 299 303 303 308 310 314 316 316 321 321 323 325 328 334 336 340 341 342 346 351 351 354 355 356 356 356 357 357 356 353 354 348 345 344
289 292 289 298 306 306 302 303 304 302 303 306 306 307 310 311 314 316 317 319 322 327 330 334 336 337 341 343 344 346 351 352 354 355 355 357 357 356 356 354 353 349 345 344
288 289 294 301 303 302 300 301 306 306 306 306 308 307 306 313 317 317 317 318 320 327 333 334 337 336 337 338 341 343 345 349 352 355 354 356 355 355 356 356 353 352 347 345
292 288 288 296 306 309 306 296 311 308 307 307 305 303 302 316 315 314 314 316 323 326 331 332 339 339 336 336 338 340 343 344 350 354 354 355 356 356 357 356 353 351 347 347
293 293 294 302 307 307 297 297 317 316 311 308 309 306 316 321 320 318 315 315 317 318 323 335 340 342 337 337 337 340 343 345 346 352 353 356 357 357 356 355 350 348 345 344
295 292 289 311 312 299 304 318 318 317 316 316 317 318 323 324 326 328 328 330 324 316 316 317 335 346 341 338 342 343 342 344 346 351 353 355 357 357 355 351 347 343 337 335
300 301 308 312 309 312 320 318 319 319 317 318 317 322 326 325 326 333 332 330 341 330 332 338 330 344 344 343 344 347 344 347 349 352 355 357 356 354 351 347 342 338 337 335
302 307 307 312 311 313 316 327 330 330 331 331 330 333 333 334 336 340 342 342 344 344 343 343 345 339 343 345 347 350 348 354 356 356 354 355 354 351 346 343 339 337 335 335
302 307 309 312 311 312 324 330 331 332 333 332 332 331 335 335 337 339 341 343 344 344 343 344 345 346 350 354 355 354 353 353 351 347 347 334 323 333 341 332 335 337 336 335
300 306 309 309 312 314 314 317 322 328 329 330 330 330 333 332 333 335 337 339 341 341 343 344 346 346 349 353 352 348 345 339 335 332 329 325 322 315 305 306 308 305 313 323
308 313 312 312 314 315 314 314 314 314 321 322 323 328 331 329 330 329 334 335 337 337 338 340 340 342 341 344 343 342 336 333 330 328 326 324 322 320 315 307 300 300 300 303
314 314 310 312 309 314 315 316 317 318 317 318 318 320 322 324 326 330 332 333 335 335 335 336 338 337 339 339 338 336 333 322 331 329 326 325 323 320 322 321 316 309 300 300
311 312 312 313 312 312 314 315 314 315 316 316 318 319 322 323 324 326 331 334 335 335 334 333 333 335 339 338 336 335 335 333 332 330 329 325 323 321 319 317 312 306 306 302
311 310 310 310 310 311 312 313 313 313 314 317 316 316 318 322 326 328 330 332 330 329 330 330 330 332 335 332 332 335 333 327 332 331 328 325 323 322 318 313 311 311 311 307
308 305 308 308 309 308 309 312 314 313 312 315 316 318 319 321 324 325 326 328 327 326 328 328 327 330 328 328 327 326 327 330 326 331 329 326 323 321 317 313 310 310 310 307
310 310 311 313 313 313 312 313 311 311 312 316 318 315 316 318 319 320 321 321 321 320 320 323 328 327 326 327 326 326 325 324 323 324 325 325 322 322 318 315 313 313 310 306
312 312 312 314 316 316 316 317 317 318 319 319 318 319 322 321 318 317 318 322 320 319 318 318 321 321 322 324 324 324 325 324 324 323 322 319 319 320 319 318 316 314 313 309
313 314 314 315 317 317 316 318 318 318 319 319 319 319 318 320 320 318 317 316 315 312 313 316 315 313 317 323 322 322 322 322 322 322 321 321 321 320 319 315 319 317 314 311
313 314 314 314 314 315 315 314 315 314 315 318 317 315 312 318 319 317 316 314 315 314 314 314 313 312 314 315 319 321 322 324 322 321 321 320 320 320 316 318 319 318 316 314
309 309 312 312 311 310 312 312 312 313 314 312 314 318 316 311 310 311 311 309 310 310 308 307 308 312 311 315 310 316 324 324 325 324 321 318 316 317 315 314 314 314 315 314
307 309 309 310 308 308 308 308 310 311 311 312 314 313 313 313 310 308 307 309 307 309 308 308 311 311 311 312 310 310 322 322 320 321 319 316 316 315 315 314 314 314 313 314
303 303 303 303 304 303 304 307 307 308 308 309 311 312 313 312 311 308 307 308 308 309 310 309 310 310 309 309 309 309 305 305 306 310 311 309 313 313 313 312 313 313 313 313
302 301 300 299 299 299 300 301 305 306 305 305 304 306 308 310 310 311 310 311 309 310 309 308 309 309 309 309 312 311 310 307 304 305 306 305 304 303 308 312 312 312 312 312
299 298 298 296 298 299 300 299 299 301 301 302 304 307 307 307 306 308 309 307 308 309 308 307 308 308 309 310 310 310 310 309 309 308 308 309 310 310 309 307 306 304 304 303
299 298 298 298 299 298 298 299 299 298 299 301 302 302 303 303 303 303 303 304 305 307 305 303 303 303 305 308 309 308 308 307 304 309 309 308 308 307 307 306 305 304 303 302

GFSNGP_sfc_thetae_039.txt.gz
Theta_e
292 295 297 296 298 299 294 297 294 296 295 298 300 304 307 312 317 319 320 322 325 326 327 326 328 334 337 341 345 346 345 346 346 348 349 349 348 346 347 349 350 347 345 343
290 296 298 296 298 300 300 300 297 294 294 300 303 302 303 307 314 317 319 323 323 324 328 329 330 333 337 338 343 347 346 346 348 348 350 350 350 350 348 348 348 348 345 344
285 293 293 292 297 299 300 301 300 294 297 300 300 301 302 304 308 316 320 322 320 320 324 327 331 334 335 338 342 347 347 348 349 349 349 351 352 352 351 349 349 347 346 344
285 289 285 297 303 304 301 301 300 299 300 302 303 305 307 306 308 313 317 319 319 321 321 322 328 333 337 339 339 345 347 348 350 350 350 351 352 352 353 353 350 349 346 345
285 285 292 299 300 300 298 297 303 302 303 303 304 303 303 308 309 314 316 317 322 324 325 324 326 332 335 336 339 343 345 347 350 351 351 351 351 352 353 355 353 352 348 344
287 285 285 295 308 312 305 297 304 304 304 304 303 298 305 307 312 314 315 315 318 323 327 328 329 334 336 337 339 340 345 347 350 352 352 352 353 353 354 355 354 353 349 345
289 288 292 306 310 313 295 297 306 310 307 304 302 305 308 309 314 311 312 314 316 321 327 331 331 332 333 336 337 341 344 348 349 351 353 354 354 355 355 355 354 352 349 347
290 290 287 310 310 301 304 309 312 314 310 305 306 308 313 318 321 322 320 314 313 314 322 327 334 333 331 331 337 340 342 342 345 349 352 353 353 354 355 355 353 350 348 345
295 295 305 309 310 312 313 311 311 318 314 314 317 319 321 322 322 325 325 332 327 312 312 313 326 335 332 334 336 336 338 339 341 344 350 352 352 353 354 354 352 348 344 339
299 306 308 311 313 313 315 317 328 329 325 323 326 328 329 332 333 335 337 339 339 338 338 338 342 332 334 336 336 334 334 335 338 341 344 349 353 354 354 353 349 344 340 337
298 306 311 312 312 313 314 317 325 328 328 329 332 331 332 334 335 338 340 341 342 341 340 341 344 344 345 343 340 339 339 337 340 343 343 319 312 311 332 333 341 341 338 337
297 306 308 308 313 316 314 314 316 318 320 321 324 327 331 330 332 334 335 337 339 341 342 342 342 341 343 346 347 347 346 345 340 329 327 324 326 324 309 310 314 310 312 321
307 310 311 313 314 316 315 315 317 317 318 319 322 324 326 326 328 326 333 334 334 336 339 339 338 338 340 341 340 336 333 330 329 327 328 329 332 329 322 316 311 306 303 304
312 310 309 312 311 315 316 317 317 317 318 318 321 324 326 327 328 330 330 330 332 332 331 333 337 336 338 338 336 332 330 320 329 328 328 327 326 325 325 325 323 318 302 307
311 311 311 313 314 313 316 316 314 314 316 316 319 320 323 326 327 328 329 329 329 329 329 332 333 333 336 335 333 332 333 332 330 328 326 324 325 323 321 319 316 309 309 305
311 311 311 310 310 311 312 311 312 313 315 315 317 320 322 327 327 328 328 328 326 324 324 326 327 327 330 334 333 332 330 323 325 326 324 325 323 321 317 315 315 317 318 312
306 306 307 306 308 308 307 308 308 309 313 314 315 320 322 323 324 323 321 321 321 322 324 323 322 324 325 327 329 332 331 330 326 327 325 324 322 321 318 316 316 316 314 310
312 312 312 312 311 312 312 313 313 314 314 316 317 321 321 320 318 320 320 321 319 316 316 319 322 322 322 323 323 323 325 328 329 326 325 322 320 318 314 314 313 312 306 302
311 311 314 316 316 316 316 316 316 316 317 318 318 317 317 317 318 319 318 315 315 316 316 318 321 321 319 324 322 321 321 321 321 321 323 318 319 317 314 313 311 310 309 306
313 314 316 315 315 315 314 316 316 316 317 318 318 318 317 318 317 316 314 310 310 312 312 314 313 315 318 319 322 319 319 320 320 318 319 319 320 319 317 311 315 313 312 310
313 314 313 313 313 314 314 315 315 315 316 317 316 315 315 315 316 316 311 308 312 310 310 312 311 310 310 314 320 320 318 318 320 321 320 320 319 319 319 319 318 316 314 313
307 309 309 308 307 307 310 312 314 313 313 315 316 315 312 309 307 306 308 309 309 308 308 309 309 313 312 312 311 320 321 322 320 320 320 320 319 319 317 316 316 316 314 312
299 300 300 301 302 304 306 306 306 306 306 308 310 311 310 309 308 306 303 307 307 307 306 308 310 311 311 309 306 314 321 321 321 321 321 319 318 316 315 316 314 313 312 313
298 299 299 300 301 300 298 300 302 303 305 306 307 308 307 307 309 309 307 306 306 307 307 308 309 309 310 311 310 309 307 304 307 314 313 307 312 312 311 311 311 312 311 310
297 297 297 298 297 297 298 299 301 301 302 302 302 302 302 303 304 304 307 308 305 306 307 308 308 308 310 310 311 310 310 308 308 309 307 306 305 304 306 305 304 307 308 308
295 296 297 296 295 296 297 299 298 299 299 299 299 300 301 302 302 304 303 302 300 301 300 300 302 306 307 307 307 308 309 309 309 308 307 307 307 306 304 302 302 301 301 302
297 296 297 297 297 298 298 297 295 295 296 296 296 298 298 300 299 299 299 298 298 298 298 298 297 298 298 300 304 305 306 307 302 307 307 305 304 303 301 300 299 298 297 296

GFSNGP_sfc_thetae_042.txt.gz
Theta_e
290 293 295 294 295 296 295 296 292 295 295 297 300 303 306 306 313 318 319 321 322 325 325 326 328 332 335 337 341 343 343 343 344 346 346 347 347 349 350 351 350 347 345 344
288 294 295 293 296 297 297 297 297 296 295 300 303 302 304 307 310 315 318 321 322 325 326 327 327 331 335 337 340 343 343 342 345 346 347 346 346 346 347 349 351 349 348 346
284 291 291 289 295 297 297 298 298 295 298 301 300 301 303 306 306 311 317 320 321 323 325 328 327 331 334 336 341 342 343 344 345 346 346 347 347 346 345 345 349 349 349 348
284 287 283 292 300 301 299 300 300 299 302 304 304 306 306 306 308 306 311 319 321 323 324 327 330 330 334 337 339 343 343 343 345 346 346 348 348 347 347 347 346 346 348 348
284 283 290 294 303 304 300 297 302 300 302 303 306 305 303 306 306 308 310 316 321 324 325 326 327 332 333 335 338 341 343 344 346 347 346 347 348 348 349 349 348 347 348 348
284 283 282 294 306 312 310 295 306 307 304 304 302 297 304 307 309 310 312 315 317 320 323 322 324 326 331 334 336 338 344 345 348 349 348 347 348 349 351 352 351 351 350 349
284 285 289 301 309 311 295 297 309 311 310 309 301 306 309 309 309 312 313 314 316 319 324 326 327 331 332 334 336 339 343 347 349 350 350 351 350 351 352 352 353 352 351 351
283 284 284 307 308 302 304 310 312 314 314 312 314 307 308 311 312 313 313 315 316 319 321 325 331 333 333 334 338 342 343 345 347 350 351 352 352 352 352 352 352 352 351 349
288 288 299 308 307 311 311 312 313 314 316 322 322 309 311 317 322 325 332 333 320 313 327 334 331 334 330 333 337 338 341 342 347 351 351 353 352 352 352 353 351 350 349 347
294 299 305 309 311 312 314 314 315 317 324 327 317 323 329 332 335 339 340 340 342 341 340 340 344 341 337 339 339 336 336 337 340 342 346 351 353 354 353 352 351 350 348 346
294 296 305 311 311 312 315 317 317 319 324 331 332 333 335 334 336 336 338 339 340 340 341 340 343 345 348 347 342 339 337 336 339 340 327 322 318 322 330 323 340 339 339 338
288 298 299 306 311 315 314 314 317 318 325 327 330 330 333 332 333 333 333 337 337 338 339 340 341 342 345 348 347 346 342 340 333 328 327 329 325 321 307 310 308 308 311 322
296 307 308 310 313 315 314 315 317 319 321 325 327 330 330 329 329 326 330 332 332 333 333 333 335 338 340 340 340 336 332 330 329 328 331 331 331 326 321 316 306 308 309 311
302 307 308 310 309 314 315 317 318 321 323 322 326 330 330 327 328 328 328 328 331 332 334 333 333 334 338 337 336 333 330 319 331 332 331 329 327 327 326 324 321 318 303 312
308 311 310 313 313 314 315 316 314 315 319 322 324 326 328 326 326 327 328 327 327 327 326 328 329 331 336 336 335 333 332 331 331 331 331 327 328 329 329 327 323 312 309 304
310 312 312 311 312 313 313 312 312 313 316 321 322 324 325 325 324 324 325 327 325 323 323 324 324 326 332 335 334 333 332 323 326 328 326 325 325 323 321 319 316 317 316 309
307 306 308 307 307 308 309 312 314 314 315 317 321 323 322 321 320 319 319 321 322 321 322 322 322 326 328 330 332 330 329 328 323 327 326 325 324 322 320 322 321 320 316 314
311 311 312 310 310 311 313 314 315 316 317 319 319 320 319 318 317 317 317 319 317 317 317 319 323 325 326 327 327 329 329 329 327 325 325 324 322 321 320 320 320 317 312 310
315 315 315 315 315 315 315 315 315 316 317 317 317 316 317 316 315 315 316 314 314 312 313 315 321 322 323 326 325 326 326 327 326 326 325 318 320 318 317 318 318 317 314 312
312 314 314 313 315 315 314 316 317 316 317 318 317 316 315 316 314 309 309 307 308 310 311 312 312 314 318 323 322 325 325 325 324 324 324 324 322 318 317 311 317 316 314 313
306 307 308 308 310 311 312 315 316 315 315 315 313 311 309 309 310 311 308 307 309 310 311 312 312 313 313 317 323 323 322 322 323 324 324 323 322 321 319 319 317 316 314 313
302 303 305 305 305 304 306 308 313 313 313 312 312 311 308 306 306 306 307 306 307 308 310 310 311 313 311 314 319 323 323 320 322 323 323 322 321 319 317 318 318 316 316 315
299 300 300 300 300 301 302 304 306 306 305 305 305 308 307 307 307 305 305 307 309 308 310 310 310 311 311 310 310 312 316 318 322 322 323 323 321 320 320 318 317 318 317 317
298 298 299 300 301 300 300 301 301 301 301 301 301 302 304 306 304 307 306 305 305 306 305 307 308 308 310 311 311 310 310 311 312 311 313 308 316 316 316 317 317 317 317 315
297 297 297 297 296 297 298 299 299 299 299 299 300 301 301 302 300 300 300 300 300 300 300 301 303 306 308 309 310 310 309 307 307 308 309 307 308 308 307 305 304 304 305 305
295 296 297 297 296 296 296 297 296 296 297 297 297 299 299 299 299 299 299 299 298 299 298 299 300 301 302 305 307 308 308 308 307 305 304 303 302 301 300 302 301 300 301 301
293 294 294 295 296 297 296 295 294 293 295 296 295 297 298 297 297 297 297 296 297 297 298 298 300 301 302 302 303 303 305 306 301 305 304 303 302 301 301 300 299 299 298 298

GFSNGP_sfc_thetae_045.txt.gz
Theta_e
296 296 297 298 298 300 300 303 300 302 304 307 310 313 317 319 320 320 323 328 332 335 338 341 342 344 345 345 348 349 351 351 352 355 357 357 358 358 359 360 359 359 358 359
292 296 297 296 299 300 300 301 301 302 303 311 314 316 316 318 319 321 322 326 332 336 339 341 341 343 344 345 347 350 351 350 353 355 357 357 357 358 359 359 360 360 358 357
289 294 295 293 298 300 301 303 303 299 306 311 310 312 316 319 321 321 323 328 332 335 339 343 341 343 343 345 349 350 351 352 354 355 355 356 357 358 358 358 360 359 359 358
289 292 286 299 305 306 303 304 306 305 307 310 312 316 318 321 321 322 324 325 328 330 335 340 340 339 345 346 349 350 351 353 355 355 355 356 356 356 357 357 357 359 359 359
286 289 293 296 301 307 306 304 311 308 309 310 312 314 317 319 321 323 326 328 328 327 331 341 342 343 345 346 348 350 350 352 354 354 355 356 355 355 356 356 356 356 359 360
289 285 285 297 303 309 312 300 313 315 314 314 315 306 311 323 320 321 322 324 326 329 330 334 341 340 344 345 348 348 350 352 355 356 355 355 356 356 358 357 356 354 356 359
286 286 292 301 308 315 301 303 316 318 319 319 316 315 322 323 322 324 326 327 329 329 331 339 339 343 345 346 346 349 353 355 356 357 357 356 358 359 359 358 358 358 357 358
287 285 283 302 309 304 311 316 318 320 322 320 322 325 326 327 326 322 325 325 325 328 331 335 340 343 344 347 350 354 355 353 357 359 355 355 358 354 359 355 350 358 359 356
291 290 300 304 306 315 317 316 318 320 324 324 322 325 330 330 327 327 338 336 326 330 337 341 344 344 347 352 351 351 351 354 356 357 357 360 359 358 355 356 351 352 354 353
295 298 301 304 308 312 317 318 320 324 325 324 324 329 333 331 332 343 346 341 340 348 346 346 348 348 349 349 353 355 353 354 356 355 356 358 357 357 355 355 356 354 354 352
294 296 299 304 307 312 317 320 322 325 323 322 330 334 329 335 342 341 341 342 345 346 346 348 352 354 356 352 352 350 350 351 352 353 352 345 335 341 359 363 352 357 356 350
290 299 300 302 307 312 314 319 323 323 320 325 334 335 337 338 339 340 340 342 342 342 342 345 350 352 350 355 355 352 348 346 339 337 337 333 330 324 308 309 310 310 310 323
297 302 302 305 305 306 308 319 321 319 322 325 333 333 330 330 332 327 334 334 335 335 338 342 346 343 346 348 347 343 339 336 333 335 333 331 333 331 324 318 304 305 308 308
302 300 298 301 301 307 317 321 318 320 326 327 329 331 330 329 329 328 330 332 333 334 334 336 337 338 341 345 342 342 338 321 337 338 337 336 336 335 334 327 323 321 309 304
299 300 302 304 309 312 320 318 317 319 325 326 328 327 327 325 325 325 329 335 336 333 331 332 333 336 338 340 339 339 338 337 337 337 335 330 330 328 329 330 332 324 318 310
303 308 305 303 309 315 315 314 318 322 324 327 328 326 325 325 325 325 327 329 328 328 330 330 331 333 336 336 336 335 331 323 328 332 333 336 335 335 331 328 326 320 319 314
302 307 309 311 311 313 313 314 318 324 325 324 324 327 327 325 324 324 322 324 324 324 328 332 334 339 337 336 335 332 331 332 325 332 333 334 334 333 330 328 324 321 318 314
311 314 313 313 313 314 315 316 322 321 319 320 321 323 320 317 316 317 318 321 320 318 320 326 331 336 338 339 337 335 332 331 331 332 331 331 330 329 328 326 324 320 315 314
314 314 315 315 316 317 316 318 320 321 321 320 316 314 312 310 310 311 314 313 313 313 315 319 320 329 332 329 335 337 336 334 333 332 330 323 330 331 328 327 324 323 319 321
307 308 309 310 315 316 315 315 315 316 319 316 312 310 310 311 313 313 314 312 313 313 318 318 321 321 325 329 329 335 336 335 335 333 332 331 330 329 326 316 324 324 325 325
301 304 304 305 306 310 312 312 311 309 310 310 310 310 311 311 311 314 312 310 312 315 315 316 317 319 319 325 327 329 331 332 332 331 330 329 328 327 326 328 326 325 325 324
302 301 303 303 303 303 305 305 305 305 306 309 309 309 310 310 310 309 308 308 310 309 311 313 315 314 318 320 326 328 326 328 328 327 328 327 325 321 320 321 322 323 323 319
302 301 301 303 302 302 302 303 303 303 303 306 310 310 308 308 309 309 305 307 307 307 310 310 310 312 313 316 317 317 315 315 318 323 325 325 327 327 323 319 319 319 318 317
301 302 302 302 300 299 298 299 300 300 303 304 304 305 309 307 305 305 305 303 304 307 307 308 310 310 312 315 313 312 311 314 314 316 317 309 317 316 314 310 309 311 314 315
300 300 300 300 300 300 301 301 300 301 301 300 299 299 300 302 300 299 303 304 302 305 307 305 306 307 312 314 313 311 310 307 306 308 310 310 308 305 304 303 305 308 308 308
297 297 298 299 300 300 300 300 298 299 300 299 300 301 301 302 301 302 301 301 301 302 303 304 305 307 307 308 309 310 310 309 310 310 308 307 304 303 302 300 301 301 302 304
297 295 299 298 298 298 298 297 297 296 298 299 297 299 300 300 300 299 299 299 299 300 300 301 302 302 303 304 305 306 307 308 303 308 309 309 309 309 308 308 307 306 304 302

GFSNGP_sfc_thetae_048.txt.gz
Theta_e
306 303 302 306 305 306 305 307 303 307 308 312 314 315 318 320 321 322 325 327 331 336 338 342 345 353 357 355 356 355 358 358 360 365 367 368 368 369 370 370 370 371 370 371
300 302 301 300 304 305 306 307 308 308 308 316 317 319 318 319 320 320 322 323 327 334 338 343 345 348 352 355 354 357 360 359 363 365 368 367 368 369 369 369 370 370 369 369
296 302 301 298 303 305 306 308 308 305 311 315 315 316 317 319 321 321 323 325 327 332 338 342 346 349 351 355 355 357 359 362 364 365 366 367 366 368 368 368 368 368 368 368
295 299 290 304 311 309 307 308 310 310 312 314 316 318 320 322 321 322 323 325 329 329 332 340 343 343 351 351 357 358 359 361 364 365 365 366 367 367 368 368 367 368 368 368
292 293 299 303 304 304 305 307 312 311 313 315 316 317 317 320 323 324 326 327 329 329 329 333 336 341 347 350 351 353 358 360 362 364 365 365 365 366 368 365 365 364 365 368
294 290 290 301 307 310 311 302 313 316 316 317 317 310 314 322 323 325 326 327 327 329 330 331 334 338 345 349 353 356 358 360 363 365 365 365 366 366 367 366 361 360 360 365
291 290 296 304 309 315 300 308 320 321 323 324 322 323 327 330 331 332 332 331 332 332 332 338 338 343 350 349 351 358 356 357 363 367 367 368 368 368 366 364 363 364 361 365
290 289 287 304 304 304 312 318 320 321 322 323 326 329 331 333 334 334 333 334 332 333 333 337 344 347 357 356 359 362 362 358 364 367 360 358 367 363 365 365 363 362 361 353
294 293 303 305 306 309 311 312 315 319 321 322 323 326 329 334 337 337 338 337 334 337 336 341 346 351 352 362 364 360 360 363 365 366 361 364 365 363 358 362 357 356 355 354
297 300 302 305 307 310 312 312 315 319 321 321 322 325 329 336 339 339 341 337 341 338 339 346 352 354 355 356 361 360 360 359 360 361 361 362 359 359 357 356 356 354 353 351
297 301 302 304 307 308 309 315 316 319 321 323 324 326 331 337 342 341 341 349 347 347 351 353 356 357 356 356 358 355 356 357 358 358 359 360 353 351 359 364 351 357 357 357
293 301 302 303 307 310 309 309 311 313 317 323 327 328 330 340 345 344 344 347 349 350 355 360 358 353 360 359 358 358 357 356 355 356 358 358 352 342 308 305 303 304 311 337
300 304 304 306 308 309 308 309 311 313 318 322 325 326 336 334 334 329 337 338 340 342 344 347 347 347 351 356 361 359 355 352 350 345 348 349 351 352 343 319 305 301 300 302
304 304 302 305 304 308 309 310 311 317 323 324 325 330 332 329 331 334 334 336 338 340 341 345 347 345 347 349 350 350 347 324 348 345 348 350 350 348 344 340 336 332 307 306
301 301 300 303 304 305 308 311 311 315 323 322 327 329 330 328 328 331 334 336 334 334 335 337 339 338 345 348 347 346 343 343 344 343 345 339 344 343 340 336 334 329 327 314
300 301 300 300 302 306 309 309 316 320 320 320 327 326 328 330 330 331 331 331 330 331 333 334 335 338 340 340 340 340 338 327 335 339 335 333 334 335 334 334 334 330 330 333
298 298 303 305 305 305 308 316 318 318 321 322 328 328 332 332 331 330 331 331 331 332 334 336 337 340 342 343 341 340 339 336 330 339 337 336 335 334 335 338 339 334 332 323
311 311 315 312 310 311 315 317 319 319 318 323 326 324 324 325 324 324 324 325 325 324 327 333 339 341 342 341 340 339 339 338 338 338 338 337 336 336 335 333 329 327 324 316
308 312 314 312 312 316 317 318 318 314 314 315 314 315 318 319 319 319 319 319 319 319 321 327 325 334 338 334 336 339 338 338 337 337 336 327 334 333 330 330 330 331 328 324
305 307 306 306 307 308 309 314 314 313 312 312 311 312 316 316 317 316 317 315 315 316 320 320 326 328 331 334 332 337 337 336 336 336 336 335 333 332 331 320 328 326 325 327
302 304 304 304 302 304 305 306 308 311 314 312 310 309 308 308 307 311 313 310 312 318 318 319 323 327 329 328 330 333 335 335 333 331 330 330 330 331 331 327 326 327 329 329
303 301 302 303 302 301 302 304 305 305 308 309 310 310 312 309 308 309 310 311 313 310 317 318 318 318 323 324 328 330 330 330 331 330 330 329 329 327 325 327 328 326 327 328
305 305 303 302 302 302 302 302 302 303 303 304 308 307 306 306 308 305 302 308 310 310 315 316 312 312 314 320 322 323 322 322 323 324 324 323 321 320 319 316 315 319 320 324
304 306 305 305 304 304 302 303 303 302 301 303 303 304 307 305 306 307 308 307 306 308 308 309 310 310 312 316 315 313 315 316 311 311 311 305 318 318 321 316 309 309 309 308
304 305 304 303 303 302 302 304 304 304 304 302 303 303 305 303 302 303 306 307 304 307 308 306 307 308 314 315 315 315 314 310 307 308 308 311 312 311 312 310 316 313 308 307
301 302 302 303 303 303 302 301 300 301 302 301 302 303 303 303 304 305 304 304 306 305 306 306 307 309 308 308 310 311 311 311 313 313 310 311 311 309 308 307 307 305 310 310
301 299 301 300 301 301 301 300 299 297 299 300 300 301 302 303 302 302 301 303 303 303 304 304 304 305 306 306 306 306 307 307 302 310 311 312 312 312 312 312 310 306 305 304

GFSNGP_sfc_thetae_051.txt.gz
Theta_e
309 310 310 309 308 309 307 309 306 309 310 314 316 317 320 322 324 324 325 327 331 333 336 340 347 354 359 356 359 356 361 362 364 369 372 372 372 371 374 374 374 375 374 374
306 309 308 305 309 309 309 309 310 310 311 319 320 320 319 320 321 321 324 327 329 333 336 339 341 347 355 361 358 362 362 362 367 369 372 372 372 372 373 373 373 374 373 373
300 307 306 302 307 309 310 312 311 307 313 318 318 319 319 320 322 322 324 326 327 329 333 339 339 349 352 359 363 362 360 366 367 369 370 372 373 373 373 372 373 372 373 373
298 303 295 307 314 312 310 312 313 314 316 318 319 321 322 324 324 324 325 326 328 328 331 335 338 342 351 351 364 363 364 362 367 368 369 372 373 372 373 373 372 372 372 373
295 299 304 307 309 310 309 309 314 314 315 317 318 319 320 323 324 325 326 328 329 329 330 333 333 340 346 352 356 361 362 363 365 368 369 370 370 371 372 372 372 372 373 373
297 294 295 306 311 312 314 305 315 316 316 317 318 312 316 326 329 333 332 334 333 331 331 331 334 333 337 347 358 360 361 364 367 370 370 369 371 372 373 373 371 366 368 372
294 294 300 308 311 315 301 310 322 322 323 323 321 325 332 333 334 336 336 336 338 338 336 339 341 342 347 347 355 359 361 365 369 370 371 372 373 373 373 372 367 369 368 371
294 293 292 309 307 304 313 317 314 318 321 323 324 325 327 330 332 335 339 340 339 337 338 341 344 351 354 357 360 369 367 366 368 370 367 365 374 374 373 372 369 369 369 366
297 297 306 308 308 311 312 311 314 316 317 319 321 322 324 327 330 335 341 343 343 340 344 350 350 357 357 361 371 369 370 369 370 372 371 370 371 372 366 369 361 362 358 358
297 302 304 306 309 311 311 311 313 314 319 320 321 323 325 327 331 336 343 345 346 343 342 349 355 356 363 366 375 371 370 369 370 370 370 371 365 364 361 359 359 357 356 355
298 301 302 305 307 309 310 312 312 314 316 315 316 318 323 326 331 338 346 347 346 349 348 347 353 357 357 362 367 364 364 362 367 363 365 366 360 343 359 362 343 358 357 357
294 302 303 304 308 309 309 309 311 313 312 314 315 316 321 326 331 340 345 350 349 351 353 356 358 360 363 363 363 364 360 358 355 355 360 359 355 342 305 305 302 301 303 330
299 305 305 307 308 309 309 309 311 312 312 312 315 317 322 327 331 336 344 347 348 351 354 355 353 352 360 364 363 362 361 362 355 350 358 357 359 356 350 322 304 300 299 300
302 303 302 304 305 309 310 311 311 312 313 313 315 322 325 328 330 338 338 343 345 344 348 348 346 346 350 356 363 362 358 329 357 357 356 356 355 355 353 352 347 337 309 309
297 300 302 305 307 307 310 310 309 310 311 313 316 323 329 324 329 334 334 336 337 338 340 340 340 341 349 350 351 353 352 351 353 353 353 349 353 351 349 346 343 338 332 317
304 305 301 301 303 306 307 308 307 308 311 314 319 327 325 330 331 333 336 338 335 334 336 338 338 341 347 350 348 344 342 329 336 344 346 346 346 344 342 341 339 338 337 336
305 302 302 300 303 305 306 308 309 311 314 318 325 324 328 328 331 331 332 334 337 340 341 342 342 346 347 347 346 344 342 342 333 344 344 343 342 341 340 340 338 337 337 327
310 308 306 306 306 308 309 311 311 313 317 320 325 324 327 326 327 328 329 331 332 334 337 341 344 344 343 343 342 341 341 342 342 341 341 340 339 338 337 335 334 332 329 322
305 304 309 309 309 313 311 312 312 314 312 315 318 315 317 318 320 324 327 326 327 328 331 337 330 338 340 336 337 339 339 338 337 335 336 330 336 336 336 336 336 333 332 330
304 305 304 304 305 305 305 311 311 310 310 308 308 307 308 313 313 316 320 319 322 325 331 333 334 334 337 338 331 335 334 336 334 332 329 332 333 334 332 324 333 334 333 333
303 304 303 302 302 302 303 304 306 307 307 306 308 305 306 307 309 311 310 310 316 319 323 324 329 331 332 332 330 331 332 332 332 329 329 330 332 330 330 330 331 331 329 333
306 304 302 303 302 301 302 302 304 304 306 307 305 305 305 305 306 306 307 309 314 312 315 317 319 318 323 325 328 328 328 328 329 329 328 328 326 325 324 322 322 323 324 327
304 305 305 302 302 303 303 302 303 303 302 302 304 305 305 307 306 304 304 308 308 308 312 316 312 313 316 323 322 321 319 319 321 324 324 324 322 322 318 316 316 313 313 315
304 305 304 305 305 303 304 304 303 303 303 304 303 303 306 306 307 308 309 306 306 308 309 309 309 310 313 317 315 314 314 314 313 314 316 309 322 321 318 318 315 312 309 308
305 304 303 303 304 302 303 304 304 306 304 303 302 305 306 306 305 307 308 308 305 308 308 306 307 308 313 314 314 314 314 311 310 310 311 312 314 314 313 313 316 315 311 309
302 302 302 303 303 302 302 302 301 302 302 301 302 303 303 304 303 305 306 305 306 304 305 305 306 308 308 309 309 309 310 312 313 313 311 312 313 312 312 312 308 306 305 307
302 298 302 301 302 302 301 302 301 300 301 301 300 302 302 302 302 302 301 302 303 303 303 304 303 303 305 306 307 308 308 308 302 309 311 312 313 312 311 310 310 310 308 304

GFSNGP_sfc_thetae_054.txt.gz
Theta_e
307 309 311 308 307 308 308 309 306 308 310 314 318 318 321 327 329 330 333 333 340 337 340 346 350 352 353 353 354 354 356 359 362 365 367 367 367 366 367 367 365 368 367 367
304 308 309 308 309 309 309 309 309 310 311 318 321 323 322 325 325 327 328 330 334 340 345 350 349 353 354 354 356 356 357 357 362 364 365 366 366 366 367 367 367 367 367 367
298 306 307 303 309 309 310 311 311 308 315 321 319 320 322 326 325 324 325 332 333 337 346 354 353 356 356 357 358 359 358 361 362 364 364 365 367 367 366 366 367 366 367 367
298 302 295 308 315 313 311 313 314 314 316 318 320 323 325 328 326 323 326 330 333 330 336 341 340 341 356 357 364 359 360 362 364 365 364 366 366 367 367 367 366 366 366 367
295 297 304 308 311 311 309 309 315 314 317 318 319 321 322 324 325 327 332 334 335 331 331 344 340 342 354 353 357 363 360 362 361 364 365 365 365 366 367 367 367 366 368 367
297 294 294 306 312 316 315 305 321 317 316 316 317 311 322 334 333 334 336 339 340 340 339 341 343 341 355 352 358 358 360 361 364 364 364 365 365 367 368 369 367 368 367 368
294 294 300 308 311 315 303 309 318 320 321 324 320 324 328 330 331 333 336 339 344 344 341 345 351 352 361 363 356 360 362 364 364 364 365 366 368 368 368 368 367 366 366 367
294 293 293 309 308 306 314 316 314 317 317 317 321 324 324 326 329 331 336 338 343 345 346 348 351 353 358 360 365 367 368 364 364 367 362 365 367 368 369 368 366 365 365 364
297 297 307 306 307 310 312 312 313 313 314 317 320 321 323 325 329 331 335 338 346 348 351 352 356 364 361 362 372 381 368 367 366 366 367 364 367 366 366 368 365 363 361 363
297 301 303 305 307 310 311 310 312 312 313 314 316 317 317 320 323 329 333 335 346 352 349 353 356 356 366 371 375 373 374 369 369 367 366 367 366 367 366 364 363 361 360 359
296 300 303 304 306 307 308 310 310 312 312 312 315 315 315 318 321 325 332 335 346 350 352 355 361 363 363 368 368 362 370 368 368 366 365 367 349 335 358 354 340 362 360 361
294 301 302 303 307 309 308 308 310 310 310 312 314 314 314 317 320 323 332 334 343 347 351 357 362 366 369 373 371 364 364 364 362 361 364 363 340 336 305 304 301 301 307 341
296 302 303 305 308 308 307 309 309 310 311 313 314 314 314 316 320 325 331 336 340 347 350 356 358 359 361 366 370 367 364 361 358 352 359 359 353 346 333 316 302 300 299 304
297 297 297 300 301 305 308 309 311 311 313 312 313 316 316 317 319 327 330 336 342 346 348 352 352 352 355 359 366 366 364 330 359 356 359 360 360 357 350 344 343 330 307 306
306 303 298 301 303 304 307 309 308 309 311 312 314 315 316 316 318 329 334 338 339 341 345 345 344 346 351 355 361 364 359 359 364 361 365 356 361 354 353 351 340 333 330 315
310 308 302 298 301 304 304 306 307 308 311 312 313 314 315 318 326 331 336 337 335 335 338 341 340 342 347 350 350 349 346 333 343 354 354 351 348 348 346 344 342 339 338 332
300 303 305 302 302 302 305 306 309 309 311 312 313 315 317 322 328 331 334 335 336 337 338 338 339 345 349 350 346 343 344 346 335 348 347 345 344 342 341 341 340 339 337 322
303 304 304 306 306 305 306 308 309 309 310 313 316 318 320 323 327 329 334 329 332 333 336 340 346 347 348 348 347 344 344 344 344 343 343 342 342 341 341 338 336 334 331 323
302 302 302 302 304 305 311 309 309 310 311 315 316 315 315 314 316 323 326 326 329 328 332 334 330 339 342 340 339 343 341 339 338 337 337 331 336 336 336 334 332 332 330 329
301 302 304 302 303 303 304 306 307 307 308 309 307 306 306 308 310 312 313 311 315 322 325 328 332 332 333 333 332 335 333 331 331 332 331 331 333 332 331 323 331 332 332 332
302 301 302 302 301 302 303 304 305 304 306 306 306 305 305 306 307 308 307 306 309 314 316 322 328 329 328 332 331 331 331 329 326 326 329 328 327 330 329 330 329 329 329 328
303 302 301 303 301 300 302 302 304 303 304 305 305 305 304 303 306 306 306 306 308 309 312 313 316 320 322 323 322 321 322 326 326 324 322 323 324 323 322 318 318 320 318 321
303 303 304 303 303 302 301 301 302 302 302 301 304 304 303 304 304 303 301 306 307 307 308 310 311 312 313 315 316 314 316 318 320 321 321 321 319 317 316 313 311 311 311 312
304 303 304 304 303 303 301 302 301 301 303 302 302 303 305 305 305 306 306 306 306 306 306 307 308 309 311 313 312 312 313 313 313 315 315 309 315 318 317 315 315 314 310 307
303 305 304 303 301 300 301 302 301 301 300 300 301 302 303 304 304 304 305 304 303 304 305 306 307 307 309 309 309 311 311 311 311 312 311 312 311 310 309 308 309 311 309 306
302 301 302 304 301 301 302 302 300 300 300 299 299 300 301 301 302 303 303 303 303 303 302 303 303 305 306 306 308 307 306 307 311 310 309 309 310 310 309 307 305 303 301 299
301 297 300 301 301 301 300 300 299 298 299 300 299 300 300 300 300 301 300 301 301 301 301 302 301 302 303 304 304 305 307 307 302 308 309 309 309 310 309 308 308 306 302 300

GFSNGP_sfc_thetae_057.txt.gz
Theta_e
298 303 304 304 305 304 301 301 298 299 301 306 308 312 316 319 321 322 324 329 332 335 338 339 338 338 340 341 343 345 353 354 355 357 359 359 358 360 359 355 358 356 356 359
297 303 304 304 307 306 305 304 303 302 302 311 314 314 316 318 319 318 322 324 326 329 336 338 340 340 341 341 344 346 345 353 355 358 358 359 359 359 360 359 356 357 358 356
291 301 301 297 304 306 305 307 305 301 304 312 311 316 316 317 318 319 322 322 321 325 328 337 341 343 343 344 345 346 347 348 353 356 357 358 360 360 359 359 360 358 357 360
290 297 289 301 311 311 307 308 309 307 311 314 314 317 318 316 315 317 319 319 321 320 322 328 338 347 347 347 348 347 347 349 350 355 357 358 358 358 359 360 359 359 359 359
288 293 298 305 306 305 304 308 313 315 317 317 322 323 323 328 328 328 329 331 330 331 332 333 333 332 348 347 349 350 350 350 352 355 356 357 357 358 360 359 359 359 360 360
292 289 291 297 304 309 310 301 313 313 316 317 321 313 316 324 327 329 332 334 337 337 333 332 335 338 341 346 350 348 349 353 357 356 357 356 358 358 361 361 359 360 359 361
290 290 296 300 304 313 300 301 310 310 311 315 314 316 318 324 326 331 330 332 338 340 339 337 337 336 337 334 341 350 352 353 355 357 357 359 359 360 360 361 361 360 360 360
290 290 288 303 303 297 304 310 308 309 309 313 314 315 316 317 320 326 327 329 331 336 341 346 341 337 332 340 340 344 354 354 353 354 357 360 360 360 361 361 360 359 359 359
291 288 299 302 302 305 305 304 308 307 308 310 312 311 313 313 314 317 324 326 329 332 342 347 348 340 339 340 346 351 355 353 354 355 356 353 359 359 359 360 360 359 358 358
291 296 298 300 303 303 304 303 306 306 307 308 308 311 310 311 312 313 316 323 328 326 335 340 347 350 349 341 351 353 350 356 355 354 355 353 358 360 360 360 360 358 358 357
290 294 295 299 300 301 303 305 306 307 307 306 306 309 309 309 310 311 313 321 326 325 328 337 343 354 358 352 350 346 346 358 357 357 353 354 327 322 351 344 342 359 359 357
287 293 292 293 298 301 300 301 303 305 306 308 308 308 310 308 310 311 310 313 325 327 333 338 342 350 355 357 358 356 347 351 356 355 356 344 327 322 303 302 300 300 314 342
292 295 295 296 298 300 299 301 302 304 306 306 308 309 307 308 309 311 312 312 324 325 331 338 342 346 352 352 352 353 355 348 353 349 354 342 337 333 328 314 303 299 299 301
301 301 299 301 297 302 302 303 304 306 306 308 308 309 309 309 310 310 312 314 326 328 333 336 340 344 346 348 348 351 354 337 350 349 349 350 343 337 333 331 328 321 306 304
300 304 306 306 305 304 303 302 301 302 304 306 308 309 309 308 308 308 312 315 328 331 333 335 336 340 344 347 347 344 352 354 351 349 350 351 348 341 338 338 326 320 317 312
300 301 303 305 304 303 302 302 301 301 304 306 307 308 309 309 308 308 311 320 327 329 332 334 338 340 341 342 346 346 343 332 338 346 346 349 350 348 338 332 328 326 326 322
297 297 299 300 303 304 301 302 303 303 305 306 307 308 309 308 309 310 314 319 328 333 336 336 337 339 340 342 344 343 343 339 333 339 339 340 340 339 338 337 335 328 322 315
300 302 302 301 301 304 306 304 304 305 304 306 308 308 308 309 312 315 318 324 329 329 333 336 338 340 341 345 342 341 343 342 339 339 338 336 336 338 336 331 329 325 321 317
301 300 301 301 301 302 303 307 308 310 311 312 311 309 310 311 312 310 311 311 313 315 317 325 329 333 336 341 339 339 339 341 337 335 335 329 331 330 330 327 326 323 322 321
301 301 300 299 301 300 301 303 306 306 308 308 308 307 306 307 308 309 309 306 309 311 318 320 323 328 329 330 330 331 331 330 327 327 327 329 328 328 328 321 327 326 324 325
301 301 299 298 298 299 300 302 302 301 304 305 305 305 305 305 305 305 305 304 307 312 313 315 316 318 320 325 327 326 325 324 325 325 324 323 321 319 319 319 318 317 318 320
302 300 302 300 298 297 299 301 301 301 300 302 304 303 303 303 304 304 305 304 307 309 310 311 312 314 316 319 321 323 322 321 321 320 319 318 315 312 311 311 312 313 313 313
301 301 301 301 300 299 299 299 300 300 299 299 300 301 301 301 302 301 299 304 306 307 308 308 309 311 312 312 313 313 314 315 317 317 316 315 314 312 311 309 308 307 307 306
302 302 302 301 303 300 297 298 299 300 300 301 300 301 301 300 301 303 303 303 303 304 306 307 308 308 307 310 311 310 310 310 311 310 309 304 307 310 312 309 305 304 302 301
300 302 302 300 298 298 298 300 299 299 299 299 300 301 302 302 300 302 303 303 303 303 303 305 307 307 307 306 305 308 309 309 309 309 308 306 305 304 302 300 300 299 297 296
297 297 299 300 298 298 298 297 295 297 298 297 298 299 299 302 302 302 302 301 301 300 299 300 302 303 303 304 305 305 304 307 309 308 308 308 307 305 303 301 299 298 297 296
297 296 296 295 297 298 296 295 295 294 295 294 294 296 296 297 297 297 298 298 297 298 298 299 299 299 298 299 299 301 300 300 298 303 305 306 306 304 304 300 298 297 295 294

GFSNGP_sfc_thetae_060.txt.gz
Theta_e
289 292 295 296 297 301 297 298 295 297 296 300 302 306 311 311 314 319 328 332 334 334 333 334 335 335 337 339 342 346 348 349 349 351 351 353 356 355 352 349 350 351 350 350
284 293 297 297 302 303 303 301 298 298 298 305 306 310 312 314 318 319 328 332 334 335 334 334 334 335 336 338 340 345 346 348 349 351 353 353 354 355 356 353 351 351 350 352
282 295 297 295 298 303 303 302 300 298 301 307 308 312 315 314 317 317 320 327 334 335 335 335 335 336 335 338 340 343 345 347 349 351 352 354 355 355 355 355 354 351 353 352
283 292 289 298 303 303 306 305 306 307 312 312 318 321 322 325 324 324 324 325 325 326 327 336 338 337 338 338 339 340 341 347 350 351 353 354 355 355 355 356 356 355 352 353
282 289 297 298 299 299 297 301 305 307 316 319 319 320 319 325 328 329 331 332 328 328 328 331 333 337 339 338 339 340 340 342 348 352 353 354 354 355 356 356 356 357 357 356
285 286 289 292 300 306 308 296 306 306 309 312 315 308 310 320 325 325 328 333 337 340 342 335 331 335 341 341 341 340 341 343 346 349 353 354 355 355 357 357 357 358 357 358
287 288 294 296 301 305 294 296 305 307 307 307 305 308 310 314 315 324 325 326 334 340 343 343 338 330 332 339 342 344 345 346 348 349 349 353 355 356 356 357 356 356 356 357
286 286 287 298 299 294 297 301 302 304 304 306 307 308 309 310 311 313 317 324 324 329 337 341 344 345 337 335 337 341 349 348 351 351 352 354 354 355 356 355 356 355 355 356
287 288 295 296 299 304 303 300 301 301 303 303 306 306 308 308 308 310 312 324 324 320 324 335 339 346 347 352 337 340 345 347 349 351 354 355 354 353 354 355 355 355 355 355
288 292 292 294 298 303 300 299 301 301 302 304 303 306 306 307 308 309 310 313 324 323 323 328 336 342 348 353 350 344 341 344 348 348 348 348 356 356 356 356 355 355 355 355
288 290 293 296 297 298 298 301 301 302 301 302 304 305 306 306 307 307 308 309 317 322 321 322 333 337 344 351 352 351 346 343 347 349 345 348 340 338 353 354 347 357 357 357
287 293 293 294 297 300 298 299 300 301 301 301 304 304 306 306 307 307 308 309 310 321 322 324 331 335 340 348 348 346 346 348 346 349 347 342 328 319 303 302 301 302 310 335
293 297 297 301 301 301 299 301 302 302 302 301 305 305 305 306 306 308 307 309 309 317 324 326 328 331 334 341 344 341 341 344 348 342 350 339 333 332 328 315 301 298 298 307
298 299 298 303 302 305 304 304 305 305 303 303 304 307 306 305 307 306 305 308 309 312 324 326 328 329 333 336 341 341 341 329 342 349 348 344 340 337 334 330 331 325 307 302
298 301 301 302 302 303 306 306 303 302 302 302 303 305 306 305 304 305 306 308 309 318 323 326 327 329 333 335 339 340 341 340 344 351 348 346 344 338 335 330 325 321 319 311
298 299 299 299 299 301 302 303 301 301 302 303 303 304 306 306 305 305 306 310 312 313 317 323 328 330 333 335 337 339 341 333 331 343 347 346 343 337 336 327 323 322 323 322
296 294 296 296 297 299 301 304 301 301 302 302 303 304 305 305 305 308 310 313 315 317 320 324 328 333 335 336 336 339 341 340 333 335 337 348 344 340 333 330 327 326 325 322
300 299 299 298 297 299 300 305 304 305 304 303 303 305 306 306 304 305 306 310 310 312 315 317 320 321 331 336 337 340 340 341 336 337 338 339 337 337 334 331 328 325 321 315
301 298 298 299 299 299 300 301 304 305 307 306 305 305 306 307 307 307 309 308 307 309 311 314 316 321 325 335 338 341 340 340 333 332 334 330 331 330 329 327 325 324 323 321
301 300 299 298 299 299 299 300 300 302 303 306 306 304 303 305 307 307 307 305 306 309 312 313 312 314 320 332 334 334 333 332 329 328 327 327 324 322 320 315 322 322 321 321
300 300 299 298 297 298 299 300 299 298 300 301 300 301 303 303 304 305 304 303 306 309 310 311 311 312 319 326 327 328 328 328 326 323 321 320 318 317 316 316 315 315 315 316
299 300 300 298 297 297 299 299 299 298 298 298 299 300 300 300 301 302 303 303 306 308 309 308 309 312 314 319 322 322 321 320 319 317 315 313 312 311 310 310 309 308 308 307
297 298 300 300 298 297 298 298 299 298 297 297 298 298 299 300 300 298 297 302 304 306 306 306 308 309 311 311 312 313 315 316 315 314 312 311 309 307 305 304 303 303 303 302
296 296 298 300 300 298 296 297 298 299 299 298 298 299 299 298 299 301 301 302 302 303 303 303 304 306 307 308 309 309 309 308 308 306 305 303 304 303 302 300 299 299 299 298
291 293 294 293 293 295 297 297 298 298 298 298 299 299 300 301 299 301 301 300 301 301 301 302 303 303 303 302 302 305 308 307 307 305 303 301 299 298 297 297 297 296 296 296
289 289 290 290 291 291 292 293 293 294 294 294 295 296 298 301 300 299 298 300 300 300 299 300 300 301 301 301 301 301 301 303 306 306 304 303 301 300 299 298 297 297 296 295
289 292 289 290 291 291 291 292 291 291 292 293 294 296 295 296 296 296 297 296 297 298 298 298 299 300 300 300 300 300 300 299 298 300 302 304 301 299 298 296 295 295 294 293

GFSNGP_sfc_thetae_063.txt.gz
Theta_e
288 289 290 289 289 291 290 294 290 298 295 298 299 302 303 308 311 310 316 328 331 332 333 333 334 335 337 339 341 343 342 342 342 344 346 347 348 347 345 346 348 348 346 344
285 290 290 288 291 294 296 298 298 297 296 300 308 315 317 313 311 311 321 329 331 333 333 333 334 335 336 337 340 343 342 342 344 344 345 348 350 350 349 346 345 348 347 347
280 288 288 290 295 300 300 301 299 295 299 307 315 318 319 320 321 315 323 329 331 333 333 333 334 335 335 336 339 342 343 344 345 346 346 346 349 351 352 349 348 345 346 347
280 285 283 295 300 301 300 300 302 304 311 316 317 318 318 321 321 326 323 324 329 334 334 335 335 335 336 336 337 339 342 344 346 346 347 349 348 349 350 353 352 350 347 348
281 283 291 296 296 295 296 295 298 300 305 311 319 319 314 313 321 323 330 335 332 327 329 330 333 335 334 334 336 338 340 342 345 347 346 348 350 350 351 351 353 353 352 350
285 281 289 292 297 299 301 292 299 300 298 304 311 303 304 310 313 320 322 331 339 340 333 330 329 335 333 334 335 335 338 343 345 346 347 348 349 351 353 353 353 354 354 355
284 285 291 296 296 301 293 291 299 299 298 299 301 304 307 309 310 315 323 321 327 337 339 340 336 335 334 334 335 337 337 338 340 347 348 350 351 352 353 353 354 354 354 355
286 286 287 295 296 293 296 300 299 299 298 298 302 307 306 307 307 309 313 322 322 325 332 338 344 349 344 339 336 343 343 341 342 343 347 351 351 352 353 353 352 353 352 353
286 286 294 296 295 299 301 297 297 298 300 300 301 303 305 305 306 307 308 313 323 319 321 331 337 346 346 346 338 336 343 344 344 345 346 346 348 350 351 352 351 351 352 351
287 292 292 295 298 299 300 298 300 301 301 301 300 303 304 304 305 305 307 308 319 321 318 321 331 337 343 347 347 346 343 341 344 344 345 347 350 350 350 351 351 351 351 351
289 292 293 296 297 299 300 302 302 304 303 302 302 301 302 303 305 305 306 308 309 317 319 320 325 330 335 344 345 342 342 343 343 345 343 344 345 341 350 352 345 352 353 353
286 293 293 294 298 300 300 302 302 302 303 304 304 302 304 302 304 305 304 306 306 308 316 321 323 324 328 335 340 338 337 338 339 340 344 344 337 326 304 304 303 303 306 328
293 297 297 299 301 304 304 304 304 304 304 304 305 304 303 302 304 306 304 305 306 306 313 320 323 324 325 328 332 333 334 334 337 335 341 341 334 334 333 314 301 299 298 301
299 298 297 300 298 302 303 305 307 307 306 306 305 305 303 304 305 305 304 305 307 308 315 318 320 322 326 328 328 330 332 322 334 337 339 342 340 337 336 333 332 330 306 302
297 299 298 299 300 300 303 304 304 304 306 305 305 304 304 305 303 304 305 306 308 311 311 312 315 318 325 328 328 330 333 334 336 337 340 340 344 338 336 334 332 326 320 310
297 298 298 297 297 299 300 301 304 303 303 304 303 303 304 303 304 304 304 308 309 307 310 312 315 319 323 327 329 331 333 327 327 334 335 341 344 340 335 331 329 326 327 325
294 293 295 295 296 297 298 300 303 302 302 302 303 304 304 304 303 304 307 308 310 312 313 317 320 320 318 322 328 332 333 334 331 333 332 337 343 339 336 331 328 326 325 323
298 298 298 297 297 297 297 299 301 304 305 307 306 303 305 306 304 306 307 309 309 310 312 312 313 314 315 317 320 329 334 335 336 334 333 335 342 338 334 330 328 325 323 318
298 297 298 298 298 298 298 297 298 301 302 306 305 305 306 307 307 307 309 307 306 306 308 312 313 314 312 316 322 326 332 334 335 332 331 325 331 330 328 327 325 324 324 322
298 298 297 297 298 298 298 298 298 298 300 301 301 301 301 302 304 307 307 304 305 306 310 311 311 312 311 314 322 324 333 335 330 328 326 327 326 324 322 317 324 324 324 324
298 299 297 296 295 297 298 298 297 296 298 299 299 299 299 300 302 302 301 300 303 306 308 310 311 311 313 321 323 328 335 329 324 321 320 318 318 318 318 318 317 316 314 314
296 297 298 297 296 295 297 298 298 297 297 297 298 298 297 297 298 299 300 299 302 304 304 305 308 312 312 313 315 318 320 319 318 318 317 315 313 310 309 307 307 307 306 306
294 296 297 297 295 295 297 297 298 298 297 297 296 297 298 297 297 296 295 300 301 302 302 303 305 308 310 308 307 306 305 304 305 307 307 307 306 306 304 303 302 302 301 300
291 292 293 297 298 297 294 296 298 298 299 299 298 299 298 297 297 299 299 300 300 301 301 302 303 304 305 307 306 305 304 302 301 300 299 297 299 301 299 299 299 299 299 298
288 288 288 289 289 292 295 295 296 297 297 296 296 297 298 300 298 299 299 299 300 300 300 302 302 302 302 302 303 305 304 303 303 301 300 299 298 297 297 296 296 296 296 296
287 286 286 286 287 287 289 290 289 290 292 292 294 295 296 296 296 297 298 299 298 299 299 300 300 300 300 300 300 301 302 303 302 301 300 298 297 296 296 295 294 294 294 294
287 290 287 288 287 288 289 289 289 289 291 291 292 293 294 295 295 295 296 296 298 299 299 299 299 300 299 299 299 298 299 300 299 301 299 298 297 296 295 295 294 294 293 293

GFSNGP_sfc_thetae_066.txt.gz
Theta_e
286 289 289 289 289 291 288 288 286 292 295 299 301 303 305 312 316 311 310 323 326 328 331 333 334 336 338 340 341 341 340 341 342 344 345 345 344 345 349 349 346 346 344 345
282 288 289 287 290 293 292 292 291 293 294 304 315 318 318 318 321 322 315 313 326 329 332 332 334 335 337 339 340 342 340 340 342 344 345 345 345 345 344 345 349 349 347 347
278 286 286 285 290 294 295 295 297 294 299 307 315 312 309 311 316 320 325 326 315 328 332 333 334 336 336 339 341 341 341 341 342 343 344 345 347 347 346 344 345 346 348 348
281 282 279 291 299 300 295 295 296 296 298 314 314 313 311 312 312 317 323 331 326 330 333 335 335 336 337 339 340 341 341 342 343 343 343 345 346 348 349 349 347 345 346 348
280 280 287 293 295 293 292 293 297 295 297 300 309 315 312 311 312 318 321 324 335 331 332 334 335 336 336 337 339 340 341 342 344 345 345 345 345 347 350 352 351 350 349 347
286 278 283 293 295 297 299 290 298 297 295 296 306 299 303 308 310 314 321 322 336 335 331 331 333 336 334 334 336 337 341 343 346 347 347 347 348 347 349 351 352 354 353 353
283 282 287 292 294 297 291 290 298 297 296 296 295 300 307 309 309 311 318 322 326 337 339 342 334 335 333 333 334 338 341 344 346 347 347 348 349 351 351 351 352 352 353 355
285 281 282 293 293 290 292 296 298 298 297 297 299 302 305 307 307 308 309 319 322 323 331 340 347 338 333 334 338 340 341 343 344 346 347 348 349 350 352 352 351 352 353 353
285 285 293 295 294 298 299 297 298 299 300 301 301 300 302 304 307 307 308 310 320 322 323 327 336 348 345 344 342 344 340 340 341 344 348 350 349 350 350 352 351 351 352 352
288 291 292 295 299 300 300 299 301 302 303 304 301 302 301 303 304 305 307 308 312 319 322 323 326 331 340 345 347 345 344 346 347 346 345 347 350 352 351 351 351 352 352 352
288 292 293 296 298 299 300 302 303 305 305 304 304 304 303 302 303 307 306 307 308 312 318 322 325 326 330 337 340 341 342 344 347 348 346 349 349 346 351 354 346 352 352 353
286 292 293 294 299 302 301 302 305 305 305 306 305 304 305 304 303 306 305 306 307 309 314 319 322 323 327 331 334 336 338 339 339 344 348 348 345 337 305 307 304 304 307 328
293 297 298 299 300 301 301 303 304 305 306 306 307 306 305 304 304 306 307 306 308 309 313 316 317 318 323 328 331 332 334 337 338 335 342 345 344 340 337 321 302 301 302 302
298 298 295 298 296 300 301 303 305 306 308 307 307 307 306 304 305 305 306 307 308 310 313 313 314 315 318 324 327 328 331 315 333 338 340 342 344 343 341 339 336 337 304 305
297 298 298 298 299 299 301 301 304 304 306 307 308 306 305 304 303 305 307 307 308 312 311 311 312 314 320 325 326 327 329 333 335 338 340 336 341 343 342 341 340 337 328 312
296 297 297 296 297 297 297 298 299 302 304 305 305 305 305 305 304 305 307 309 310 309 312 313 315 318 321 320 321 325 328 322 322 334 337 338 341 342 340 340 339 334 332 335
293 293 294 294 295 296 296 297 298 299 303 305 305 306 305 305 306 307 308 309 310 309 310 311 311 314 314 315 316 319 324 329 326 334 336 338 339 341 341 339 337 335 335 328
298 298 297 297 296 296 296 297 297 298 300 304 306 306 306 306 306 306 308 309 309 309 310 310 312 312 313 314 315 316 319 324 328 331 336 338 339 341 342 339 338 334 328 320
299 297 297 297 297 297 297 296 297 298 299 300 301 301 302 302 304 307 306 303 302 302 305 309 312 311 310 312 315 316 318 321 326 328 333 329 335 338 339 337 334 330 328 324
298 298 297 297 297 297 296 297 297 297 298 299 298 298 298 299 300 300 302 300 300 301 304 306 308 309 310 314 316 316 317 320 325 330 332 334 335 333 331 320 328 328 327 327
298 298 297 296 295 296 297 297 297 295 296 297 297 297 296 297 299 299 298 297 300 303 304 305 305 307 310 313 316 320 323 324 327 331 329 329 324 324 323 323 321 320 318 316
295 297 297 296 295 294 296 297 297 297 297 297 296 297 296 296 297 298 299 298 301 303 303 303 303 308 309 309 306 305 310 313 314 314 313 311 310 309 308 308 307 307 306 305
293 294 297 297 295 295 296 296 297 297 298 297 297 297 296 297 297 295 294 299 300 302 302 302 304 305 307 306 304 302 301 300 300 301 302 302 301 301 300 300 300 300 300 300
289 289 290 295 297 296 295 295 296 297 297 297 299 299 299 298 297 299 299 300 300 300 301 302 302 303 302 303 303 303 302 300 299 298 297 296 297 297 297 297 297 297 297 297
288 288 288 289 289 289 291 293 295 293 294 295 297 298 299 301 299 299 300 299 299 299 299 301 302 301 300 300 301 302 300 299 299 299 298 297 296 295 295 294 294 294 293 293
288 287 287 288 288 289 289 290 290 291 292 292 294 295 296 297 298 299 300 300 299 298 298 299 299 299 299 298 299 300 300 299 298 297 297 297 296 295 294 294 293 293 292 292
288 290 288 289 288 289 290 291 290 290 291 292 292 294 295 296 296 298 298 299 299 299 299 298 298 298 297 298 298 298 299 299 296 298 298 297 296 295 295 294 293 293 293 292

GFSNGP_sfc_thetae_069.txt.gz
Theta_e
289 290 290 289 290 292 293 296 295 300 302 307 311 312 321 323 326 328 329 326 330 334 338 342 344 347 349 349 351 350 350 350 352 355 356 357 357 357 356 356 357 359 358 356
286 289 291 289 291 292 293 295 296 298 299 308 313 322 319 319 321 324 328 332 331 333 338 342 343 345 348 349 350 351 351 351 354 356 356 356 357 357 357 356 355 357 356 355
282 289 290 287 292 293 295 300 301 298 303 308 314 318 317 318 320 322 326 329 332 338 337 343 343 344 346 349 352 350 350 352 354 356 355 356 356 356 357 358 357 357 356 356
283 286 280 295 302 302 299 299 300 302 303 305 315 318 316 316 316 319 324 328 331 334 340 341 343 343 348 348 351 350 350 351 353 355 354 356 356 355 356 354 356 357 356 358
281 282 288 293 294 294 295 295 300 299 301 301 307 313 315 312 312 314 320 327 331 340 342 339 343 347 348 348 350 350 350 351 352 353 354 355 355 355 356 356 355 355 356 357
285 280 281 290 294 298 298 294 301 300 300 299 309 313 308 309 310 311 319 327 331 344 341 339 345 344 347 347 349 349 350 352 354 355 354 354 356 356 358 359 356 355 355 356
284 282 287 292 294 297 290 293 298 300 301 300 302 304 307 309 310 311 315 326 334 343 344 345 347 347 346 347 347 350 351 352 355 356 356 357 357 359 358 358 359 359 359 360
284 282 281 294 293 289 292 299 299 301 302 302 306 305 305 307 309 310 311 319 328 333 337 347 346 348 348 347 352 354 355 354 356 357 354 353 359 358 359 359 357 358 358 357
287 289 295 296 295 297 299 299 300 301 304 305 305 305 306 305 308 311 311 312 320 325 331 336 343 350 346 349 350 352 353 355 356 358 357 359 358 358 355 358 354 354 354 354
288 292 293 296 298 300 300 300 302 304 305 306 304 305 306 307 309 313 313 311 315 317 320 324 334 339 344 350 352 351 352 352 353 353 353 356 354 355 353 353 353 353 354 354
288 292 293 297 298 300 301 303 304 307 307 306 306 305 306 307 309 311 315 316 316 316 317 318 323 330 335 341 351 353 353 352 350 349 351 353 355 354 354 359 350 355 356 357
287 293 294 295 299 301 300 300 303 304 305 308 308 306 307 307 309 311 312 317 318 318 317 318 320 322 328 333 340 344 346 348 348 356 355 353 351 350 310 311 307 306 309 329
293 297 297 298 299 300 300 301 304 305 305 305 309 308 308 307 309 309 313 316 316 318 319 320 319 320 324 329 332 335 335 341 340 343 351 354 354 350 350 331 306 305 304 304
297 297 294 297 295 299 300 301 304 308 308 308 308 309 307 306 308 309 311 314 316 319 319 319 320 321 325 326 327 329 332 317 341 345 347 349 351 352 352 349 351 353 310 312
296 298 297 298 298 298 299 300 301 302 304 306 307 306 306 305 305 307 311 313 317 318 318 318 319 320 322 322 322 323 324 328 333 337 343 341 349 350 349 349 351 352 350 317
297 297 297 296 296 297 297 297 297 298 302 306 307 308 308 308 308 310 312 316 313 310 311 312 314 316 318 319 319 320 322 320 322 330 334 340 344 347 346 347 346 347 351 351
295 293 295 294 295 296 296 297 298 298 300 301 304 309 311 309 311 309 309 311 312 312 314 312 312 314 316 317 318 318 319 322 321 328 331 334 338 343 345 346 344 343 347 346
299 298 298 297 296 296 296 297 297 298 298 299 301 302 302 303 304 304 304 305 305 306 307 310 311 312 314 314 315 315 318 321 323 324 328 330 335 338 343 344 343 341 342 337
300 299 298 298 298 297 296 296 297 297 299 299 299 298 299 300 300 302 303 302 301 301 303 307 310 310 310 313 314 315 315 317 320 323 326 325 332 335 337 342 343 343 341 335
300 300 299 298 299 299 297 297 297 297 298 298 298 297 296 297 299 299 301 299 300 302 305 306 306 307 311 312 313 314 316 317 317 323 325 330 332 333 335 327 339 341 341 337
302 301 299 298 298 300 299 300 299 297 297 297 296 295 296 297 298 299 297 297 300 304 304 305 304 306 309 309 308 307 309 313 322 323 327 327 332 332 335 337 335 333 332 326
300 301 301 300 300 300 301 302 302 301 300 299 298 297 295 296 297 298 299 298 301 303 303 303 303 305 307 307 304 302 302 302 303 306 311 313 314 311 309 310 309 307 307 307
297 297 300 301 302 302 303 302 301 301 300 301 299 300 300 299 297 296 295 300 300 301 302 303 303 303 304 302 301 301 300 299 298 298 299 301 302 302 302 301 301 301 300 300
298 298 298 299 300 298 298 300 301 301 301 301 301 302 301 299 300 303 302 300 300 300 300 301 302 302 301 301 300 299 298 298 298 297 297 295 296 296 296 296 296 296 296 296
298 298 298 298 297 296 298 299 298 299 299 300 301 302 303 303 301 301 300 301 300 300 299 300 300 301 300 299 299 298 298 297 297 296 295 295 294 294 294 293 293 293 293 293
297 296 296 297 296 296 297 298 297 298 298 298 299 300 301 302 302 302 302 301 301 300 301 300 298 298 298 299 299 298 297 297 297 296 296 295 295 294 294 293 292 292 292 292
297 294 297 298 298 298 297 297 297 297 298 298 298 299 300 301 301 302 300 301 300 300 300 300 300 299 298 298 298 297 297 297 295 296 296 295 295 294 294 294 293 293 292 292

GFSNGP_sfc_thetae_072.txt.gz
Theta_e
294 294 293 293 293 295 298 301 300 304 306 311 315 317 321 326 327 327 330 331 331 337 341 345 350 355 356 352 356 354 356 353 359 364 365 366 366 365 364 363 362 363 363 362
290 293 293 291 294 295 296 299 301 303 304 314 316 319 320 325 326 327 330 332 336 338 337 341 346 351 355 356 356 358 359 357 362 365 366 365 366 365 365 363 364 363 362 362
287 292 291 288 293 295 297 300 301 299 306 313 314 318 323 323 325 327 329 333 336 338 341 341 343 349 354 357 358 359 361 361 363 365 365 366 364 366 366 365 364 364 362 363
287 290 282 294 305 304 301 300 303 306 310 312 314 322 322 322 322 323 326 330 335 338 340 343 344 345 351 353 359 361 361 362 363 364 364 365 366 366 367 365 366 366 362 364
285 286 290 292 297 296 295 299 306 306 310 311 312 317 320 320 320 322 323 326 334 339 341 345 347 346 350 351 354 357 359 361 363 364 364 364 363 365 364 364 363 363 364 365
288 283 282 292 295 298 298 292 303 306 307 307 311 311 317 316 317 318 320 324 334 341 345 349 351 347 347 350 356 358 359 360 364 364 365 364 365 366 366 363 360 359 360 363
287 285 289 297 298 299 288 292 301 303 304 306 304 311 314 315 315 315 316 317 331 342 346 352 350 348 353 352 354 358 357 357 361 363 366 366 367 367 367 364 364 365 364 365
286 284 282 299 299 291 294 298 301 302 303 305 307 309 313 314 313 314 314 315 321 334 341 353 350 351 358 356 357 361 361 358 362 364 359 358 366 364 364 365 364 365 363 360
290 290 299 299 299 301 301 298 299 300 303 305 306 307 311 312 312 312 316 315 317 324 338 346 355 352 352 358 361 359 360 361 361 361 360 364 364 362 359 362 358 358 357 357
291 297 298 296 302 302 301 300 302 304 305 307 307 307 309 310 310 311 314 315 318 318 324 330 341 349 353 355 358 358 357 358 359 359 358 360 359 360 358 357 356 355 355 355
291 296 294 297 299 300 301 303 302 304 305 306 308 308 308 309 310 311 313 317 318 318 319 320 327 333 342 353 357 354 356 356 357 357 358 359 360 358 357 363 353 357 356 358
287 292 293 294 298 300 299 301 303 303 304 306 307 309 309 309 310 311 312 317 318 320 320 320 323 327 331 338 351 357 355 353 352 352 355 355 355 356 316 317 312 312 313 332
291 296 296 297 299 300 298 300 303 304 305 306 307 310 310 307 309 310 315 316 318 321 322 324 324 323 325 328 333 344 348 353 355 351 355 354 355 358 356 335 310 309 310 309
297 297 294 296 295 299 299 300 304 307 308 308 308 309 308 308 309 310 311 316 319 320 320 321 322 321 324 326 330 333 340 317 350 351 352 354 348 352 358 350 352 355 318 318
296 298 297 298 298 297 300 300 302 303 306 307 309 309 308 308 308 312 316 318 319 318 318 319 318 319 323 326 327 328 334 333 333 340 349 341 343 340 345 350 350 353 355 319
298 298 297 296 296 296 296 297 297 299 302 303 306 308 309 310 312 311 312 314 313 313 315 313 315 317 321 322 324 326 330 322 325 342 333 340 342 343 344 345 349 351 350 350
297 295 296 294 294 295 295 296 297 298 300 300 301 303 305 307 306 306 307 308 310 309 311 311 312 316 318 321 322 322 323 324 322 326 329 332 335 338 342 342 342 345 348 346
302 301 300 299 297 295 295 296 297 297 298 299 300 301 301 301 302 302 303 304 305 306 306 308 310 312 315 319 319 320 322 322 324 324 326 328 330 333 334 335 338 340 340 339
302 302 301 301 300 299 297 296 296 297 298 299 299 298 299 300 301 302 302 302 302 302 303 306 309 311 313 314 314 318 320 322 323 324 325 322 326 330 331 332 333 338 339 339
302 302 303 302 302 301 299 300 299 298 298 298 298 297 297 299 300 300 302 300 302 303 305 306 308 309 310 311 311 315 315 317 320 325 326 326 327 329 332 322 331 334 339 339
301 302 301 302 302 303 302 301 300 299 299 299 297 297 297 298 300 299 299 298 302 305 305 305 306 306 307 307 307 306 306 307 308 311 314 325 330 329 331 335 336 332 333 334
300 300 301 301 301 302 303 302 302 301 301 301 301 300 298 297 298 299 299 299 302 303 304 303 304 304 303 303 302 302 301 300 300 300 300 301 304 308 310 310 312 309 309 310
301 301 301 301 301 301 302 302 302 302 301 301 301 300 300 301 300 297 295 300 303 302 302 303 302 302 302 300 299 298 298 298 297 296 296 296 296 296 297 296 298 298 299 299
301 302 301 301 301 301 300 302 302 302 302 303 304 303 302 300 300 301 302 301 301 301 301 301 302 300 300 299 298 297 296 296 296 295 295 294 294 294 293 293 293 294 294 294
301 301 301 300 299 299 300 302 300 301 302 302 303 303 303 303 301 300 301 302 301 302 302 301 300 301 302 300 299 298 297 296 295 295 295 294 294 293 293 293 293 293 292 292
300 299 300 301 300 300 300 301 298 300 300 300 300 301 302 303 302 302 301 301 302 301 300 301 302 301 301 301 300 298 298 297 296 295 295 294 294 293 293 292 292 292 292 292
300 292 298 298 299 299 300 300 298 298 299 300 299 301 302 302 302 301 300 300 300 301 300 300 300 301 299 300 300 301 300 298 295 297 296 295 294 294 293 293 293 293 293 292

GFSNGP_sfc_thetae_075.txt.gz
Theta_e
297 298 298 297 298 301 303 305 301 305 308 313 316 318 324 327 328 328 329 333 332 336 339 346 350 359 359 356 359 357 359 357 360 366 367 367 366 368 369 370 370 371 371 371
293 297 297 295 297 298 299 301 302 306 306 315 315 320 321 322 327 328 330 333 336 338 340 343 348 352 359 359 360 361 361 358 362 366 368 367 367 368 369 370 370 371 371 370
289 294 295 291 296 297 298 301 301 300 308 315 314 316 322 327 326 327 329 332 336 339 342 344 343 351 355 361 360 361 364 362 363 366 367 368 368 369 369 370 370 370 370 370
289 292 283 296 302 303 301 301 303 304 307 311 315 319 321 327 324 324 327 329 331 336 341 344 344 344 352 355 363 363 363 365 364 366 367 369 370 369 371 370 370 370 370 371
286 287 292 294 300 300 299 300 309 305 307 311 315 316 318 323 325 323 325 328 330 333 339 345 347 348 349 355 359 362 363 365 365 366 367 369 368 369 371 370 371 370 372 372
289 285 283 294 300 303 304 295 308 309 308 308 311 308 315 320 321 322 324 327 329 333 341 344 348 351 349 348 358 361 362 365 368 368 368 369 370 370 371 371 370 364 367 372
289 287 291 299 302 302 292 295 305 304 305 306 304 309 314 319 320 321 323 323 328 332 339 348 352 357 356 353 355 362 362 366 370 370 371 372 373 373 373 370 366 369 369 372
290 286 284 301 301 295 302 306 304 304 303 303 306 310 311 316 319 319 320 321 326 326 333 340 354 360 361 358 362 368 367 366 368 371 366 366 372 372 372 372 370 370 368 367
292 292 299 304 302 305 306 303 303 304 306 306 307 309 312 313 317 317 317 318 321 323 328 328 338 354 356 368 369 368 368 367 368 369 368 369 370 370 365 370 360 360 359 357
292 297 300 301 304 304 303 303 303 305 306 305 306 310 310 311 315 316 315 315 318 321 324 324 330 333 341 345 362 365 367 367 367 366 366 367 364 363 360 358 358 356 356 355
291 296 296 300 298 299 300 302 303 304 306 305 306 307 311 311 313 314 312 315 319 320 320 322 325 325 328 331 335 359 359 360 363 361 361 363 363 360 359 363 351 357 354 355
286 291 290 293 298 299 299 300 302 303 305 307 307 307 309 311 312 312 312 316 318 321 321 321 322 321 324 328 327 344 355 356 356 357 359 359 358 355 316 323 313 313 314 334
291 296 295 296 298 300 298 300 301 303 305 306 308 311 310 310 310 310 313 315 319 320 320 321 322 321 323 324 325 328 338 346 358 351 358 356 358 357 354 335 313 315 314 313
298 298 293 295 294 297 297 300 302 304 307 307 310 314 309 309 310 312 314 317 321 319 319 321 320 320 322 324 325 326 330 323 341 353 356 355 356 357 356 357 355 354 322 326
298 299 297 296 296 295 297 298 298 299 303 309 310 310 310 309 310 312 314 315 317 318 315 316 316 317 320 324 325 326 331 327 331 340 340 342 360 359 358 357 354 350 350 323
298 298 298 296 294 294 294 295 295 297 300 303 305 307 311 311 309 308 308 311 310 309 311 313 314 315 320 323 323 326 328 326 326 338 340 348 350 344 344 344 343 345 344 354
297 296 296 296 294 293 293 295 296 296 299 299 302 304 306 305 304 305 305 306 308 307 309 310 311 315 317 320 321 324 332 333 328 331 334 339 338 341 342 341 345 348 342 338
301 300 300 299 298 296 296 296 296 297 297 299 300 301 303 303 300 301 303 305 305 305 306 308 312 314 317 317 316 318 321 322 327 330 326 327 330 333 339 341 341 341 343 341
302 301 300 300 301 300 299 298 296 297 298 298 299 299 300 301 302 302 303 303 302 301 303 307 310 312 310 312 313 316 321 321 323 325 326 323 327 331 331 333 334 337 339 340
301 302 301 301 302 302 300 301 299 298 299 299 298 298 298 299 300 302 302 301 302 302 305 305 306 305 308 309 309 310 313 315 317 320 323 326 329 329 329 322 330 332 335 337
302 302 301 301 301 302 302 302 301 301 301 300 298 298 298 299 300 300 299 298 301 305 304 304 304 304 303 306 306 304 303 303 303 304 308 311 317 319 319 320 324 322 322 322
301 302 302 302 301 301 302 302 302 302 301 302 302 300 298 298 299 299 300 300 302 303 302 301 302 303 302 302 300 299 299 298 297 298 297 298 298 299 299 301 301 302 302 302
301 302 302 302 301 301 302 302 303 302 303 303 301 301 301 299 299 297 297 302 302 303 303 302 302 302 301 300 299 298 297 296 296 295 295 295 295 295 295 294 295 295 295 295
303 303 302 303 302 302 301 303 302 303 304 304 303 304 302 299 299 302 302 303 302 303 302 302 303 302 301 301 300 299 298 296 295 295 294 293 293 293 293 293 293 293 293 293
303 303 302 301 301 300 302 303 303 303 304 303 303 304 305 302 300 301 302 303 302 302 301 302 302 301 300 300 299 299 298 297 297 297 295 294 294 293 293 292 292 292 292 292
302 300 302 303 301 300 300 302 299 302 302 301 302 303 304 304 303 302 302 301 302 301 302 301 302 301 300 299 299 299 298 298 298 297 296 295 294 294 293 293 293 293 292 292
301 296 300 303 304 302 301 301 300 299 301 301 302 303 304 304 304 304 302 302 301 301 302 301 302 301 300 301 300 300 300 298 296 298 298 298 298 296 295 294 294 293 293 293

GFSNGP_sfc_thetae_081.txt.gz
Theta_e
290 292 293 292 293 294 293 295 291 294 298 304 310 315 316 319 323 325 328 330 332 334 334 336 340 341 345 347 348 351 351 350 349 348 348 349 346 346 341 353 352 352 354 355
288 293 293 291 293 295 295 296 295 296 301 308 313 315 314 315 318 318 320 323 324 329 335 338 341 342 343 346 348 351 351 351 351 351 350 349 350 349 346 343 351 354 354 355
281 290 290 286 291 293 295 297 297 293 302 308 310 313 313 313 314 316 318 321 320 323 327 330 337 339 334 336 340 349 350 352 352 351 351 350 352 351 352 348 346 350 354 356
282 285 277 288 296 299 298 300 302 303 306 310 311 313 314 315 313 315 317 318 320 321 325 331 337 339 337 337 334 341 348 350 352 353 351 352 351 352 352 354 351 351 353 355
281 282 286 290 297 297 293 295 302 301 303 304 306 310 308 312 314 314 316 317 318 322 325 328 328 334 341 344 344 344 350 349 352 352 353 353 351 351 353 353 354 352 354 356
286 281 279 291 299 302 300 289 302 302 301 301 304 299 301 309 312 313 315 316 316 319 324 326 326 328 332 335 339 337 344 354 354 353 353 353 354 353 355 355 353 356 355 355
284 283 288 295 300 302 286 290 300 301 302 300 298 301 305 309 311 313 315 316 316 318 319 323 325 323 323 327 327 331 334 337 357 355 353 355 355 356 355 355 355 353 354 356
285 284 282 296 298 292 296 299 300 301 301 300 301 303 305 307 309 312 313 315 314 315 317 322 324 320 318 320 323 326 329 332 353 357 355 356 356 357 356 355 354 354 354 354
285 287 295 295 293 297 299 298 298 298 299 300 300 301 303 305 307 310 313 313 314 314 316 319 321 320 316 319 323 324 326 331 349 357 356 355 356 356 356 356 355 354 354 354
287 291 292 293 294 296 297 296 297 298 299 300 299 301 301 304 306 308 311 312 313 313 314 316 318 320 317 320 323 324 325 329 353 356 356 356 358 358 358 357 355 355 354 354
287 291 291 294 294 295 296 297 298 299 299 298 299 299 301 303 305 308 309 313 313 313 314 316 317 317 316 318 322 322 324 328 340 354 353 357 357 358 358 359 356 356 356 356
284 290 291 291 295 296 295 295 296 296 296 298 300 298 300 301 305 309 309 311 312 313 316 315 315 314 314 315 319 320 321 325 324 333 343 355 354 350 318 325 321 321 325 345
291 295 295 296 297 297 295 295 295 296 297 297 300 300 301 301 305 308 310 309 314 316 314 312 312 312 312 313 316 319 320 321 324 325 333 337 351 353 352 333 314 309 310 320
298 296 294 297 293 296 297 296 296 296 298 299 301 303 303 302 305 308 309 314 313 313 310 309 309 309 311 313 314 318 320 316 322 324 326 331 334 345 353 350 344 342 312 312
298 299 297 300 298 297 298 297 295 293 295 297 301 301 304 303 304 309 309 309 309 309 305 305 305 306 309 311 314 314 318 320 322 324 327 326 334 341 351 351 347 347 333 313
300 299 299 298 298 298 297 296 293 293 295 297 299 300 307 310 310 307 306 305 303 302 302 304 303 306 308 312 311 311 315 318 320 324 327 328 331 333 335 342 345 347 346 340
297 296 297 296 297 297 297 296 295 295 296 297 299 302 304 304 304 303 304 305 304 303 301 301 303 305 305 309 309 309 310 316 321 326 325 326 327 328 329 333 337 338 338 340
301 300 300 299 298 298 298 297 297 297 296 299 300 300 301 300 299 300 301 302 302 301 301 301 305 302 303 307 306 309 308 310 315 319 324 326 326 323 321 326 329 328 333 324
302 301 301 301 300 300 299 298 298 298 298 298 298 298 298 299 299 300 300 300 299 298 299 301 304 302 301 306 305 304 304 304 306 308 310 312 314 314 311 312 312 313 317 317
302 303 304 302 303 301 300 300 300 299 299 298 298 297 297 298 299 299 299 297 299 300 301 301 300 299 299 301 303 299 300 299 299 300 302 304 305 304 305 303 305 304 303 304
301 302 302 301 301 302 302 301 299 298 298 299 297 296 297 298 299 299 297 296 299 301 302 303 300 298 299 298 297 296 296 296 296 295 296 296 297 297 298 298 298 298 298 298
301 300 301 300 300 300 302 301 301 300 298 299 298 298 297 297 297 298 299 297 300 302 300 300 300 302 300 300 296 295 294 294 293 293 293 293 293 293 293 293 293 294 294 294
300 301 301 301 300 299 301 301 301 301 300 299 298 298 297 297 297 295 295 300 301 301 300 300 301 301 300 296 297 295 295 294 293 293 293 292 292 292 292 291 292 292 292 292
301 301 302 301 301 301 299 300 302 301 302 301 301 301 300 298 299 300 301 301 302 300 299 301 301 300 300 298 297 296 295 294 294 293 293 293 292 292 292 292 291 291 291 291
302 301 301 300 299 298 300 301 301 301 301 301 301 301 301 301 299 300 300 301 301 301 299 302 303 302 299 298 297 296 295 294 293 294 293 293 292 292 292 292 291 291 291 291
300 299 299 300 298 300 301 300 298 300 300 299 301 301 301 301 301 300 300 301 300 300 298 298 299 298 298 297 297 296 296 296 296 295 293 293 293 292 292 293 293 292 291 291
300 299 300 300 299 300 300 299 298 300 300 299 298 300 302 302 301 300 301 300 299 299 298 298 299 299 299 298 297 296 296 296 295 295 296 295 295 294 293 292 292 291 291 292

GFSNGP_sfc_thetae_084.txt.gz
Theta_e
286 290 291 290 291 292 289 288 284 289 292 305 309 310 313 317 318 319 319 320 322 324 334 334 337 341 342 340 344 346 344 344 343 345 344 339 339 345 342 347 349 352 353 351
284 290 290 288 290 292 292 294 296 295 298 307 311 312 312 314 317 317 317 319 321 324 325 329 334 339 339 343 344 347 346 345 344 345 345 344 340 340 342 340 349 348 351 353
279 287 286 281 288 292 294 299 299 296 299 302 309 308 308 310 314 316 317 318 318 321 324 327 329 337 338 336 337 337 345 348 347 345 345 345 346 342 341 340 337 347 348 350
279 281 276 284 293 299 297 298 299 299 300 301 304 306 306 309 310 312 317 316 317 318 323 327 329 328 336 341 339 338 340 343 349 348 346 345 346 346 344 344 340 338 349 350
279 278 283 288 294 294 291 294 299 296 300 301 302 305 303 308 311 311 315 318 316 319 321 323 326 327 329 335 339 339 340 337 338 349 348 347 347 347 348 347 346 343 342 347
280 278 278 286 295 299 298 288 299 300 299 299 300 293 297 305 309 311 313 317 315 317 319 320 324 324 324 324 327 328 329 332 337 335 350 349 349 349 350 350 350 351 349 348
280 279 285 292 296 299 284 286 298 299 297 297 294 298 299 305 305 309 312 315 316 314 315 318 323 320 316 320 320 324 327 331 336 336 344 352 351 351 350 350 350 351 351 351
279 278 279 293 294 288 293 296 297 298 298 296 298 300 301 302 304 307 309 313 315 314 314 316 320 320 316 314 319 322 325 329 331 335 343 353 352 352 350 350 350 349 349 351
282 282 291 292 291 293 293 292 293 294 296 297 296 298 300 300 302 304 307 311 313 314 313 316 319 318 314 315 317 319 323 326 331 333 342 353 352 351 351 351 351 350 349 349
284 287 290 291 293 293 293 292 294 295 296 297 297 297 297 299 301 303 306 309 312 311 313 314 316 318 314 314 316 318 320 324 328 325 344 351 353 353 353 352 351 351 350 350
284 288 288 292 291 293 295 294 294 295 296 295 295 295 296 297 299 301 303 307 312 311 311 314 314 314 314 313 313 315 318 322 325 326 332 349 352 353 354 355 351 352 352 352
281 287 286 287 291 294 293 293 295 293 294 295 295 294 296 296 298 299 300 305 309 310 313 314 313 312 311 311 311 312 316 319 322 324 326 333 348 347 318 322 320 319 323 342
288 291 291 292 294 296 294 295 297 296 296 295 296 297 298 299 300 300 302 304 309 314 313 311 310 308 309 309 310 311 313 317 321 322 326 327 329 337 347 333 316 312 310 314
293 292 292 293 293 295 295 296 297 297 297 296 296 297 299 300 302 301 302 305 312 312 307 307 307 306 307 307 307 310 310 312 317 320 323 327 329 331 336 347 344 342 317 314
295 295 295 294 295 296 295 298 294 294 295 295 297 297 299 300 300 301 303 308 310 304 304 304 303 304 306 306 307 307 308 312 316 319 323 324 327 328 333 343 347 346 330 313
297 297 296 295 295 296 295 296 292 294 295 295 295 297 301 302 303 305 307 307 304 300 300 301 301 302 305 304 304 305 307 311 314 317 321 322 326 327 326 330 340 343 341 339
294 292 294 294 294 294 294 294 296 296 295 295 298 299 301 303 303 303 303 304 302 300 299 298 302 301 301 303 302 303 306 307 315 318 321 323 319 317 317 324 331 332 325 328
297 297 297 295 295 295 295 296 297 297 295 297 298 297 298 299 299 300 300 301 299 299 299 300 303 301 299 300 301 301 301 302 307 308 312 314 312 311 312 311 314 318 316 313
299 299 298 298 297 297 296 295 296 298 298 298 296 294 295 298 298 298 299 298 298 297 298 300 302 300 296 301 301 298 299 299 300 303 305 307 307 306 305 307 306 307 310 309
299 300 299 299 299 298 297 297 297 298 298 298 297 297 296 297 298 298 298 296 297 299 301 300 298 298 298 299 300 296 298 297 298 298 299 299 301 302 301 300 302 302 304 305
298 300 300 298 297 299 299 299 297 297 297 298 297 296 296 297 297 297 296 295 298 301 300 301 299 298 298 297 296 295 295 295 294 294 294 294 295 296 296 297 297 297 298 299
298 300 299 298 297 296 298 298 298 298 297 297 298 297 296 296 297 296 298 297 299 301 300 299 299 300 299 298 295 294 294 293 293 293 292 293 292 292 292 293 294 294 293 294
298 295 298 299 297 295 298 298 298 299 297 297 297 296 295 294 294 291 292 298 300 300 299 299 300 300 299 296 295 294 294 293 292 292 292 292 292 291 291 291 291 293 293 292
300 299 298 298 296 295 295 296 297 298 299 299 298 298 297 296 297 298 298 300 301 301 300 300 299 300 299 296 295 294 294 293 293 292 292 292 292 291 291 291 290 290 290 290
295 296 294 295 295 294 295 296 297 297 298 299 298 299 300 300 298 299 300 299 301 300 300 301 302 300 297 296 295 295 294 293 293 293 293 293 292 292 291 291 291 291 290 290
292 294 295 297 297 296 296 295 294 297 297 296 299 299 300 299 299 300 299 300 299 300 298 298 299 298 297 296 295 295 294 294 295 294 293 293 293 292 292 292 292 291 291 291
295 295 294 296 296 297 297 295 295 294 296 294 294 296 299 300 299 300 300 299 298 298 298 299 298 299 297 296 296 296 296 295 294 294 294 293 293 292 293 292 292 291 291 291

GFSNGP_sfc_thetae_087.txt.gz
Theta_e
283 287 289 288 288 289 286 286 283 288 297 300 307 309 311 316 318 316 316 317 321 323 326 328 330 339 341 341 340 343 341 341 341 342 339 338 338 341 343 344 344 344 346 349
281 288 287 285 290 291 292 295 292 294 295 301 308 307 307 309 316 315 315 316 318 322 325 325 327 328 333 337 342 344 342 342 343 343 342 338 337 337 341 342 344 345 346 346
277 285 283 281 287 293 295 295 296 292 297 300 304 302 303 305 307 313 314 315 316 318 321 326 324 325 326 336 338 339 343 343 344 341 342 342 339 336 337 340 340 342 345 348
278 279 275 282 295 298 295 296 296 296 298 300 301 305 305 306 305 308 313 314 315 316 318 322 325 323 324 330 340 338 343 345 346 344 342 343 343 340 336 338 339 337 340 345
278 277 281 288 291 293 289 291 297 296 297 298 301 304 304 303 306 306 309 315 315 316 319 318 323 323 321 322 327 333 338 335 337 338 343 345 343 343 343 340 338 338 336 336
279 278 277 285 292 296 296 284 296 297 295 295 298 294 298 302 304 306 308 312 316 317 316 318 319 321 320 319 320 322 324 328 334 336 335 339 346 344 345 345 343 343 341 338
278 277 284 291 293 295 283 283 295 296 295 294 291 295 298 302 303 305 305 307 313 316 315 315 319 320 318 317 316 320 322 325 329 333 336 336 338 348 346 345 346 345 345 344
277 281 279 293 293 286 289 290 292 293 294 293 295 296 298 299 300 300 303 305 309 312 314 315 317 319 316 313 316 318 320 323 325 329 334 340 338 344 348 346 345 346 346 347
281 281 289 291 289 291 290 289 289 290 292 293 293 295 297 298 299 299 300 303 306 309 312 315 316 316 313 312 314 314 317 321 322 327 330 333 336 342 348 347 346 346 346 346
284 285 289 290 292 292 293 291 292 292 293 294 293 294 295 296 297 298 299 300 303 306 309 312 315 315 314 312 313 313 313 316 320 325 325 328 337 348 348 348 345 346 347 346
282 287 287 290 291 292 293 294 293 294 294 294 294 294 294 294 294 296 298 299 300 302 306 309 314 314 313 312 311 310 312 315 318 323 324 326 332 346 350 352 347 347 348 349
281 287 287 287 291 293 292 293 293 293 294 295 296 294 295 295 296 296 296 298 298 300 304 308 313 312 310 309 308 307 309 312 313 318 322 326 329 332 322 319 315 313 314 337
288 288 289 290 292 293 293 294 294 296 297 296 296 296 296 295 297 299 299 299 299 300 304 308 309 309 309 307 307 305 306 308 311 314 319 323 327 329 331 333 311 308 309 311
290 292 290 292 291 294 294 296 297 299 298 297 297 297 297 296 297 298 298 300 301 302 305 309 305 304 305 307 306 305 304 306 308 313 316 321 325 328 332 334 339 345 319 313
293 294 294 292 292 293 294 295 295 296 297 296 297 296 297 296 297 299 301 301 301 302 305 305 303 304 304 305 305 304 303 305 307 310 313 318 323 325 328 331 334 342 338 318
297 295 294 293 294 294 294 294 292 295 297 296 296 297 297 299 300 301 303 303 301 302 303 302 299 301 301 303 302 303 304 307 310 314 315 320 324 321 321 325 328 333 342 340
293 291 292 292 293 293 293 293 293 294 297 296 296 296 296 299 299 301 303 304 303 301 300 300 298 299 299 301 301 302 302 303 308 312 315 316 315 314 315 315 320 321 320 316
297 296 295 295 293 293 294 294 294 294 296 297 297 295 294 296 296 297 299 300 299 299 299 300 302 299 298 298 300 298 300 301 302 306 310 311 309 310 309 310 309 312 312 311
299 298 297 297 296 295 294 294 293 294 297 298 296 294 294 295 296 296 298 298 298 298 298 299 301 298 296 299 301 296 298 298 297 301 304 304 305 304 304 304 305 306 306 306
298 298 299 297 298 297 296 295 293 294 295 298 297 296 295 295 296 297 296 296 297 299 301 300 298 298 297 298 300 297 297 297 297 298 298 298 299 299 300 298 299 301 300 300
298 299 298 298 297 297 297 297 295 294 295 296 296 296 296 297 297 297 295 294 298 300 300 300 298 297 298 297 296 295 295 294 294 294 294 294 295 295 295 296 296 295 296 297
295 296 297 299 297 297 297 297 296 295 295 294 296 297 296 295 295 296 297 296 298 300 299 298 298 299 298 297 295 294 293 293 293 293 292 292 292 292 292 292 293 293 293 293
295 295 295 297 297 296 296 298 296 296 295 295 295 295 296 296 296 294 293 298 299 300 298 298 299 299 298 295 294 294 293 292 292 292 292 292 291 291 291 290 291 291 291 291
295 296 295 296 297 296 295 295 295 297 297 298 297 298 297 296 298 299 300 300 301 300 300 298 298 298 297 295 294 293 293 293 292 292 292 292 291 291 291 291 290 290 290 290
297 296 294 295 294 294 295 294 294 295 296 298 298 299 299 301 298 300 300 300 301 300 299 301 298 298 295 295 295 294 293 293 293 293 293 292 292 291 291 291 290 290 290 290
293 295 294 294 296 298 297 294 292 295 295 295 296 297 297 298 299 299 300 300 300 300 299 298 298 296 295 294 294 294 294 294 294 293 292 292 292 291 291 291 291 291 291 290
292 295 294 296 297 297 298 295 293 293 294 292 290 292 293 296 297 298 299 299 298 299 299 298 298 297 296 295 295 295 295 295 293 294 294 294 293 292 292 291 291 291 291 290

GFSNGP_sfc_thetae_090.txt.gz
Theta_e
282 286 287 287 287 287 285 285 284 287 298 299 305 303 305 308 314 313 314 315 317 320 323 323 324 327 332 339 341 342 341 342 341 341 341 341 341 342 345 344 344 346 347 351
281 287 286 287 291 291 293 294 292 295 293 305 305 304 302 303 306 310 312 314 316 317 320 323 322 323 326 329 338 340 342 341 344 344 343 340 340 341 343 345 345 344 344 346
276 284 283 280 286 293 293 294 294 291 295 301 302 300 300 301 302 304 307 313 314 315 317 321 322 322 321 323 329 340 340 343 343 344 343 342 340 339 339 342 344 344 345 346
277 278 274 281 294 297 294 295 296 296 297 298 298 302 302 302 301 302 305 307 314 314 315 317 323 323 321 321 323 325 332 341 345 345 343 343 343 339 338 339 342 342 344 346
278 276 280 286 291 292 289 291 296 295 296 297 299 301 301 302 302 302 304 306 308 316 316 317 318 323 321 319 319 319 321 325 330 337 343 344 343 343 342 339 339 341 342 343
278 278 277 284 292 295 295 285 295 296 295 294 296 291 297 299 301 303 304 304 306 309 314 316 316 320 320 318 317 316 319 321 325 330 334 338 345 344 345 345 343 341 341 341
278 278 283 290 293 295 284 284 295 295 294 293 291 294 296 298 299 301 303 303 304 305 307 314 316 318 318 318 315 318 319 321 323 327 331 337 338 340 346 346 346 345 344 344
279 281 279 293 292 288 289 292 293 292 293 291 292 294 295 296 297 299 300 302 302 302 303 310 315 317 317 315 316 318 318 319 321 324 330 334 336 338 339 347 346 345 345 345
281 282 289 291 289 292 291 289 290 291 292 292 292 292 293 293 294 295 297 299 301 301 301 304 312 316 316 317 315 315 316 317 319 322 327 329 330 333 335 342 345 345 344 345
283 285 289 291 292 293 292 291 292 292 292 293 291 292 292 294 294 295 296 296 298 299 300 300 305 312 317 317 314 313 313 314 316 318 320 326 329 332 334 339 345 346 345 345
283 286 287 291 291 292 292 294 293 294 294 293 293 292 293 295 295 295 296 297 297 298 298 299 302 305 312 316 313 311 311 313 315 316 317 322 326 329 331 335 342 347 348 348
282 288 287 287 291 293 292 292 294 293 293 294 294 293 296 296 297 297 297 297 297 297 298 299 301 304 309 314 311 309 309 311 312 312 315 319 323 325 318 312 310 309 315 333
289 289 290 291 292 293 292 293 294 294 295 294 297 297 297 296 296 298 298 298 298 298 300 301 302 304 309 311 309 308 308 309 309 309 313 316 319 323 323 326 313 310 306 310
291 292 290 292 291 293 293 295 297 297 297 297 297 299 298 296 297 297 297 298 299 299 300 301 302 303 310 308 308 308 308 306 307 309 311 314 317 320 325 325 326 332 320 310
292 293 293 293 293 294 294 295 294 294 295 296 299 297 297 296 296 297 299 301 300 300 301 301 302 303 307 306 305 305 306 306 307 309 312 313 316 320 325 324 324 327 332 324
294 293 293 293 294 294 294 294 293 293 294 296 296 297 297 297 297 299 300 301 300 300 302 301 302 305 304 303 303 303 305 306 307 309 313 319 321 319 319 319 320 324 328 330
294 292 293 293 293 294 294 295 294 294 295 296 297 298 296 295 296 297 298 300 301 303 303 302 302 303 301 300 301 302 302 303 305 307 312 315 315 314 314 314 315 316 317 314
299 298 296 296 294 294 294 295 295 295 294 297 297 297 295 294 294 295 296 298 300 299 298 299 302 301 299 299 300 300 299 300 302 303 307 310 309 309 308 308 310 310 309 310
298 298 298 298 297 295 295 294 294 296 296 295 297 296 295 295 295 296 296 296 296 296 298 300 303 300 298 299 304 298 298 299 300 301 303 304 306 304 303 303 304 304 304 304
299 299 299 299 300 298 296 295 295 295 295 297 298 296 295 296 296 296 296 295 297 298 300 300 300 298 298 298 301 297 297 298 298 299 299 300 300 300 299 298 299 299 299 298
298 299 299 298 297 299 298 296 296 294 295 295 295 295 295 296 297 296 295 294 296 298 299 300 299 299 298 298 296 295 295 295 295 295 295 295 296 295 295 295 295 295 294 296
295 295 297 297 297 298 300 298 296 295 294 295 296 297 296 295 296 296 297 296 299 299 297 298 298 300 298 298 295 294 294 293 293 293 293 293 293 292 292 292 292 292 292 292
295 297 297 297 297 298 298 298 297 296 295 295 295 296 296 297 297 295 294 299 300 300 297 297 299 298 298 295 294 294 293 292 292 292 292 292 292 291 291 291 291 291 291 291
294 295 296 298 298 297 296 297 297 297 296 298 297 298 298 297 298 299 300 301 301 300 299 298 298 298 296 295 294 293 293 293 293 292 292 291 291 291 291 290 290 290 290 290
293 293 296 296 297 297 296 297 296 297 297 299 300 300 300 301 299 301 301 300 300 300 299 298 298 297 295 295 294 294 293 292 292 292 292 291 291 291 291 290 290 290 290 289
292 292 294 296 297 299 299 297 296 297 298 297 298 298 299 300 300 301 301 301 301 301 299 298 298 298 296 296 295 295 294 293 293 292 292 292 291 291 291 291 291 290 290 289
293 295 294 296 298 298 300 297 295 295 296 294 292 293 293 295 296 299 300 300 300 301 300 299 299 298 298 296 296 296 296 295 293 293 293 292 292 291 291 291 290 290 289 289

GFSNGP_sfc_thetae_093.txt.gz
Theta_e
291 292 292 290 290 291 293 294 294 300 300 302 303 304 305 307 311 313 316 316 317 316 320 323 322 322 326 329 339 349 350 348 349 352 353 353 353 354 355 354 353 356 356 357
289 291 292 291 294 294 295 297 300 303 300 304 306 306 307 308 309 308 310 315 317 317 316 318 323 322 323 325 329 341 346 348 351 352 351 351 351 352 352 353 354 354 355 354
286 289 290 287 293 296 297 299 301 300 300 304 302 302 304 305 306 307 308 310 312 316 317 317 319 324 323 323 325 329 329 336 349 351 351 351 351 350 351 351 353 353 353 353
287 288 281 291 300 300 298 299 302 301 302 302 302 304 304 306 306 306 307 307 309 310 313 318 319 321 325 324 324 323 323 325 328 334 349 352 352 351 351 350 351 353 352 353
287 286 287 292 297 298 297 295 301 301 301 302 302 305 304 305 305 304 306 308 309 310 310 313 318 321 323 325 321 322 321 322 325 328 331 336 349 350 351 349 350 350 351 353
288 285 283 291 297 301 301 291 301 302 300 299 299 297 303 303 302 303 305 306 308 309 310 310 313 317 320 322 321 320 320 322 325 327 328 331 335 339 346 350 347 347 348 351
289 287 290 296 297 300 289 293 301 300 298 298 296 299 300 301 302 303 303 304 306 306 307 309 311 313 317 319 320 322 321 322 323 326 326 330 334 337 339 344 349 351 350 351
289 287 284 299 297 294 298 301 300 298 297 296 297 298 299 300 300 301 301 302 303 303 304 306 309 310 312 315 321 323 319 320 322 323 326 330 331 330 333 341 342 343 350 350
292 292 296 300 297 300 300 299 297 298 298 298 297 298 299 300 301 301 302 302 303 302 303 305 308 309 309 313 318 321 321 318 319 321 323 327 327 327 330 335 341 342 343 345
291 295 296 299 299 300 300 298 299 299 299 299 298 300 300 300 301 301 302 302 303 302 302 303 306 307 308 310 314 318 320 320 317 318 319 320 323 327 330 331 336 339 341 344
293 295 295 297 300 301 300 299 299 299 299 299 300 300 301 301 301 302 302 302 303 302 302 302 305 305 307 309 312 315 318 319 319 316 318 318 320 321 324 329 330 334 339 347
294 299 299 297 301 302 300 299 299 299 299 301 301 301 302 302 302 302 301 302 302 303 303 303 304 305 307 309 311 313 315 317 317 316 316 317 319 319 315 311 310 308 307 313
299 301 299 300 300 301 301 301 300 300 301 301 303 303 303 301 302 301 300 299 300 301 302 304 305 305 307 309 311 313 312 314 316 314 315 314 315 316 318 320 310 308 304 304
299 299 297 298 299 301 301 302 301 302 303 303 303 303 302 301 302 301 298 299 300 301 303 304 305 305 308 309 310 312 312 308 312 313 314 314 314 316 319 321 324 328 318 316
298 300 301 302 302 302 302 302 301 302 303 302 303 302 301 299 299 299 300 300 301 302 302 304 306 306 308 310 309 311 310 309 313 313 314 313 315 318 319 323 324 323 327 322
301 300 300 299 301 301 301 301 301 302 302 302 302 301 301 300 299 298 299 300 298 298 300 304 304 306 309 310 310 309 307 307 308 310 312 312 316 319 320 320 320 319 322 323
299 299 300 300 302 303 302 304 304 303 302 301 301 301 298 298 297 296 298 299 299 300 300 299 300 304 304 304 306 303 305 309 307 308 310 312 314 316 317 317 316 317 318 316
304 305 304 304 303 303 303 303 303 303 302 302 301 298 297 297 295 296 297 298 299 299 300 301 301 303 301 301 303 306 306 307 307 307 308 308 311 312 312 312 311 311 312 311
304 304 304 304 304 303 304 303 303 303 303 301 300 298 298 298 296 296 298 297 296 296 298 300 302 300 299 301 303 303 304 305 306 307 307 306 307 309 307 307 306 306 305 304
304 305 305 305 305 304 304 303 303 303 302 301 300 299 298 297 297 296 297 296 297 299 300 301 300 299 298 300 302 300 302 302 303 303 303 303 303 303 302 299 300 301 301 300
302 303 303 304 304 305 305 304 303 301 301 301 300 299 298 297 298 297 296 295 299 300 300 300 300 300 299 299 299 297 296 297 298 299 299 299 300 299 298 297 297 296 296 297
303 302 301 302 302 303 304 305 303 301 301 301 302 301 300 299 298 298 300 298 301 299 300 300 299 299 298 297 296 294 294 294 294 295 295 295 295 295 294 293 293 293 293 294
302 302 302 302 302 301 304 304 303 302 300 301 301 301 301 301 300 296 295 301 304 299 300 300 299 298 297 295 293 293 294 293 293 293 293 293 293 292 292 291 292 292 292 292
301 301 301 303 303 301 301 303 304 303 302 303 303 303 302 301 304 305 304 301 301 300 299 299 299 297 296 295 293 292 291 292 293 293 292 292 292 291 291 291 290 291 291 291
300 300 301 301 300 301 301 302 303 303 303 304 305 306 306 305 305 307 307 305 301 301 299 298 298 297 297 296 295 294 292 291 290 290 290 291 291 291 291 291 291 290 290 290
300 300 301 301 302 299 301 303 303 303 303 304 305 304 302 303 306 305 305 304 305 302 300 299 300 299 299 298 296 295 294 293 292 290 289 289 289 290 290 289 291 291 290 291
301 299 300 301 302 302 303 302 302 302 301 301 300 300 299 300 300 299 302 304 305 304 303 301 299 300 300 299 299 297 297 295 293 294 292 290 289 288 288 289 289 289 289 289

GFSNGP_sfc_thetae_096.txt.gz
Theta_e
297 297 297 296 296 296 299 302 301 307 305 306 308 310 313 316 318 317 317 320 322 321 322 323 325 326 324 327 334 345 352 351 352 357 355 356 357 358 360 360 360 360 359 358
294 295 295 295 297 298 298 301 305 307 301 309 311 311 311 312 314 316 316 317 318 320 323 323 324 326 327 326 326 332 341 349 354 355 357 357 358 359 360 359 360 360 360 358
293 294 294 291 297 298 300 303 307 304 307 309 309 310 311 312 312 312 313 314 315 316 317 321 324 327 328 329 327 328 329 336 342 348 351 354 356 357 357 358 359 359 359 359
296 293 286 297 303 302 301 303 308 309 309 311 311 312 312 313 311 311 311 312 314 314 315 316 319 324 328 330 329 326 326 326 331 338 338 344 353 356 358 357 357 358 358 359
291 290 293 295 300 300 300 300 306 308 309 310 310 311 310 311 310 310 311 312 313 315 314 316 317 318 321 327 330 328 327 325 326 329 330 333 339 346 347 357 357 358 357 358
293 289 286 297 302 306 305 296 307 308 308 307 307 303 309 309 308 308 309 310 310 311 312 314 316 317 317 319 325 328 329 328 326 326 328 328 331 335 342 345 352 353 354 357
293 291 295 301 304 306 292 299 308 308 307 305 304 305 305 306 306 307 308 308 309 310 310 312 314 315 315 317 319 325 328 330 330 327 326 328 332 334 333 338 345 347 349 355
295 291 289 304 302 297 305 308 307 306 304 303 303 303 304 305 305 306 307 308 308 308 310 311 313 313 314 315 319 322 323 327 330 330 327 326 330 331 332 334 336 347 344 344
297 298 302 305 304 307 307 306 304 304 303 303 303 304 305 305 306 306 307 308 308 308 309 311 312 313 312 316 317 317 318 321 327 330 329 329 327 326 330 334 334 336 343 343
296 300 301 304 305 306 304 304 304 304 304 304 303 304 304 305 305 306 307 307 308 308 308 309 311 312 313 314 315 315 316 319 323 325 327 328 326 324 321 323 329 334 335 340
298 301 301 304 305 306 305 304 303 304 304 303 303 304 304 304 305 306 307 307 307 307 307 308 311 311 312 313 314 313 314 316 320 322 325 326 326 323 320 322 320 325 328 335
297 301 302 301 306 307 305 304 304 304 303 304 305 304 305 305 307 306 307 307 306 306 306 307 308 309 312 314 313 313 312 314 316 319 321 322 323 323 311 309 308 305 303 312
301 304 304 306 305 306 305 305 305 305 305 303 304 305 306 305 306 306 306 307 306 303 304 304 304 306 311 313 314 312 312 314 316 315 318 320 321 321 320 319 307 305 304 304
305 305 302 304 302 305 305 305 304 305 305 305 305 306 306 305 306 305 302 303 302 304 305 304 305 305 310 313 314 312 313 308 313 316 316 318 320 321 321 321 319 323 314 310
305 305 306 306 306 305 306 306 305 304 305 305 306 305 306 305 304 303 302 302 301 301 301 303 302 307 311 311 310 310 312 312 313 315 317 316 319 319 319 321 322 325 324 318
304 306 305 304 305 306 306 305 304 304 305 306 305 305 306 305 303 301 301 302 299 301 300 301 301 302 306 308 309 310 310 310 311 313 313 316 317 318 319 321 322 323 323 322
303 302 303 303 304 305 305 307 307 307 307 305 305 305 304 302 301 300 300 302 301 301 301 301 301 303 304 303 303 304 307 309 311 311 313 315 316 317 319 319 320 320 321 319
308 305 306 305 305 305 306 307 308 307 306 307 306 305 303 301 301 299 300 301 300 301 303 302 304 304 305 302 302 302 303 305 308 311 314 315 316 316 315 317 317 316 318 318
307 306 307 307 308 308 307 307 307 308 308 308 305 303 303 302 302 299 299 301 298 297 301 305 303 303 302 303 303 303 304 304 306 309 311 311 312 311 311 312 314 315 313 312
306 308 308 307 308 307 306 308 308 308 308 306 305 303 303 303 301 301 299 298 299 301 303 303 301 300 300 301 302 300 302 302 302 304 307 309 311 308 308 304 306 308 307 306
305 306 305 306 306 307 308 308 308 307 307 306 304 304 303 304 305 302 300 297 302 304 302 302 301 300 299 300 299 298 298 298 298 299 300 302 303 304 305 305 303 302 302 300
303 303 304 305 305 305 307 309 308 308 306 305 304 305 303 302 304 302 301 299 303 299 301 300 301 300 299 298 295 295 295 295 294 295 295 296 297 298 299 299 298 297 297 296
301 302 302 302 303 304 307 307 307 306 305 304 305 305 305 305 305 303 301 302 302 302 302 300 298 298 297 296 294 293 293 293 293 293 293 293 294 294 294 294 294 294 295 294
302 303 303 304 304 304 303 306 305 306 306 307 306 307 307 306 307 309 308 303 301 302 302 301 300 298 297 300 297 294 293 291 291 291 292 292 292 292 292 292 292 292 293 292
303 303 303 303 303 304 305 305 305 306 307 306 307 308 308 308 307 308 308 307 302 301 304 299 298 299 300 301 299 296 295 293 291 290 289 289 290 290 291 291 290 291 291 291
303 303 304 304 302 304 303 304 306 308 307 306 306 306 306 307 304 304 306 306 306 302 302 301 301 301 300 301 299 298 297 294 294 292 290 289 288 289 289 289 289 290 289 290
303 300 304 305 302 301 304 306 306 304 303 304 302 305 304 303 304 303 301 307 305 305 305 303 305 302 301 301 300 299 298 297 294 295 293 290 289 289 289 288 288 289 290 289

GFSNGP_sfc_thetae_099.txt.gz
Theta_e
302 301 302 302 302 301 303 305 303 310 308 313 317 317 318 319 319 320 320 320 321 321 323 326 330 329 328 327 329 335 347 353 353 360 359 360 361 362 362 365 363 365 365 364
300 300 300 299 301 301 302 304 305 312 307 316 318 321 320 319 318 319 319 319 320 322 323 325 329 330 331 327 329 329 332 337 345 354 357 360 359 362 362 361 366 367 364 363
296 301 299 296 300 302 303 304 306 307 312 315 314 316 317 318 318 317 318 319 319 319 320 321 325 328 329 331 329 330 329 327 332 338 341 352 357 359 360 362 362 364 365 364
296 299 289 300 306 304 303 305 309 315 314 316 315 315 316 318 317 315 315 316 317 318 319 320 321 322 326 331 333 333 330 329 327 331 333 338 342 356 358 361 361 362 360 363
294 294 297 299 302 302 302 303 310 313 313 314 314 315 314 316 316 315 315 316 316 317 316 319 320 321 321 323 329 332 332 332 331 330 330 332 336 339 345 355 355 360 360 362
297 291 290 300 304 307 307 297 310 314 314 313 314 308 311 315 313 312 313 313 314 314 316 317 318 318 319 320 321 325 329 332 334 334 328 329 331 332 335 341 348 350 354 360
295 294 298 305 307 307 295 300 310 312 312 312 309 311 312 312 311 311 311 311 312 314 313 315 317 317 317 319 320 323 325 325 329 334 335 331 331 333 334 334 338 341 345 350
297 294 291 307 305 298 308 312 311 311 312 310 310 309 309 309 309 309 310 310 311 312 312 314 316 316 316 317 321 322 323 323 324 328 331 332 333 332 331 335 335 339 338 343
300 299 308 308 308 312 311 310 310 310 308 309 307 307 307 309 309 309 309 310 311 311 311 313 315 316 314 317 319 319 319 320 322 325 327 331 333 332 328 332 330 336 338 338
301 303 305 306 308 311 310 310 308 308 308 307 306 307 308 309 309 309 309 309 311 310 310 311 314 315 316 317 318 318 317 318 319 320 324 327 326 328 328 325 324 324 327 330
301 304 305 306 308 309 308 308 307 307 307 306 306 306 308 308 309 309 309 310 311 310 309 310 312 313 314 315 316 315 316 316 317 318 320 323 326 326 328 332 324 324 323 322
299 305 305 306 309 310 309 307 307 306 306 307 306 306 307 308 310 309 309 310 309 310 310 310 310 310 312 314 315 314 314 314 314 315 317 319 321 323 313 312 307 305 305 312
305 309 307 309 309 310 309 309 309 307 307 306 308 307 307 307 309 308 309 309 309 308 307 307 307 307 308 312 314 314 313 315 314 313 315 316 319 319 319 319 307 303 301 302
309 308 305 306 305 307 307 308 306 308 308 308 307 308 307 307 308 308 307 308 308 307 307 305 305 304 308 309 312 314 314 310 314 313 314 315 318 319 320 320 320 323 309 308
307 308 307 308 308 307 308 308 306 305 306 306 308 308 308 307 308 308 308 308 307 307 306 304 303 304 307 309 307 311 312 312 312 314 315 314 316 317 319 320 320 320 323 315
306 305 305 306 307 307 307 306 305 305 307 307 308 308 308 308 308 307 307 307 304 303 304 305 304 304 306 307 307 307 308 309 309 312 312 313 315 315 316 318 319 320 320 323
303 303 305 304 305 305 305 307 307 307 307 307 307 308 308 307 306 306 306 306 303 304 305 304 305 308 306 306 305 305 306 306 306 307 309 312 313 313 314 316 317 319 321 319
309 308 309 307 306 304 306 307 308 308 308 310 310 308 308 307 306 306 305 305 305 305 304 306 306 305 304 304 303 303 303 303 304 304 307 310 311 313 315 316 316 318 319 319
308 307 307 307 309 309 309 306 305 307 310 310 309 308 308 307 306 306 305 304 303 303 303 306 305 304 303 302 303 302 302 302 302 304 306 306 308 310 312 313 314 316 318 319
307 307 308 308 309 308 308 308 310 308 309 309 310 307 306 306 306 305 306 304 303 304 307 306 305 302 303 302 302 300 299 300 300 300 302 303 305 306 306 307 308 310 312 312
305 306 307 307 307 308 308 308 307 308 309 310 307 306 305 306 307 305 303 302 306 305 305 303 302 301 300 300 299 297 297 296 296 296 297 299 301 302 305 306 305 306 305 306
304 303 304 304 305 305 307 307 310 310 309 309 308 307 306 305 304 304 307 304 308 303 303 304 302 299 300 300 299 296 295 295 294 295 294 294 295 296 298 300 301 301 301 300
303 303 303 303 303 303 305 306 307 309 307 307 307 307 307 305 306 305 304 309 307 305 304 303 299 298 299 300 300 298 294 294 293 293 293 293 293 294 294 295 296 296 296 296
304 304 303 303 304 304 303 306 307 309 308 309 308 308 307 307 309 313 313 305 304 304 304 303 300 299 299 301 300 299 297 294 293 292 291 290 292 292 292 293 293 293 293 293
305 303 304 305 305 305 307 307 307 307 307 308 308 310 310 307 306 308 308 309 304 303 304 302 301 301 300 301 301 300 299 296 293 292 290 290 290 289 290 291 290 291 291 291
304 303 304 304 304 305 307 308 305 306 307 307 306 307 306 307 306 304 304 308 307 303 304 305 303 303 304 303 302 300 299 298 295 294 292 291 290 289 289 289 290 290 290 291
305 300 303 304 306 308 307 306 306 304 305 305 304 305 305 306 304 304 301 307 308 306 305 304 303 302 303 302 303 301 300 298 296 294 295 292 291 290 289 289 289 289 290 290

GFSNGP_sfc_thetae_102.txt.gz
Theta_e
303 304 303 304 303 305 303 305 303 308 309 311 314 316 318 320 320 319 320 320 323 324 326 330 331 330 329 330 331 334 338 339 341 346 356 361 364 363 364 366 365 366 366 366
300 303 302 300 303 303 303 303 311 312 310 318 319 319 318 318 318 318 319 319 320 322 325 325 328 330 328 329 330 331 331 330 337 341 341 343 351 357 363 363 364 366 364 363
295 301 300 296 301 302 303 305 307 308 313 318 315 316 317 318 318 318 318 319 319 319 320 324 324 329 331 330 331 329 330 330 330 336 338 338 342 343 354 358 360 362 362 362
296 299 290 300 307 306 303 305 309 315 316 318 318 318 319 320 318 317 317 317 318 317 318 321 321 322 328 330 336 334 332 330 331 332 332 333 335 336 340 345 355 357 360 361
294 294 298 301 304 302 301 301 314 315 316 316 318 317 314 318 318 318 317 317 317 317 317 320 319 322 324 326 328 332 331 333 335 335 332 330 332 333 334 337 341 350 356 357
297 291 289 299 305 307 306 297 310 316 315 312 313 306 310 316 316 315 315 315 314 314 316 316 317 318 320 321 325 325 326 327 329 334 336 334 332 333 337 336 339 341 344 353
295 294 298 305 307 307 295 300 311 316 316 315 311 312 313 313 313 313 313 312 314 314 314 315 317 318 318 319 319 322 323 326 327 329 330 336 336 339 335 332 334 338 338 345
296 293 290 308 306 300 309 312 312 313 313 309 312 312 311 311 311 311 311 311 312 312 313 314 317 318 317 318 321 322 323 322 325 327 326 326 333 338 338 336 333 334 338 339
300 300 309 309 309 312 313 313 313 313 312 312 310 309 310 310 310 310 310 311 312 311 312 314 317 319 315 320 322 321 321 321 322 324 325 327 329 332 333 335 333 330 327 331
302 306 307 308 310 311 312 311 311 311 310 310 308 309 309 309 309 309 310 310 311 311 310 311 316 316 318 318 318 317 317 318 320 320 320 323 323 324 325 327 330 329 328 325
302 305 306 306 308 309 309 311 310 310 309 308 308 308 309 308 309 309 310 310 311 310 310 311 312 313 313 315 316 314 315 316 317 318 319 319 321 322 324 328 326 328 329 326
299 306 306 307 309 310 309 308 308 308 307 308 308 308 309 308 309 309 310 310 310 311 310 309 309 310 312 312 314 313 312 313 314 315 316 316 317 318 315 309 308 305 305 315
305 310 310 309 311 311 309 309 309 308 308 307 308 308 308 308 309 306 309 309 309 309 309 308 308 308 310 310 311 310 310 312 314 314 316 316 316 317 316 319 308 303 301 301
310 310 307 308 307 310 310 311 311 310 309 308 308 309 308 308 309 309 309 309 308 308 308 308 307 306 308 308 310 308 309 308 312 314 314 316 315 315 315 315 318 321 311 305
308 309 309 309 310 308 309 308 307 306 307 307 309 308 309 308 308 309 310 309 308 307 307 307 305 305 307 307 306 306 306 307 309 310 312 312 313 314 316 316 317 319 322 316
308 307 308 306 307 308 307 306 305 306 306 307 307 308 309 309 310 309 308 308 305 304 305 305 304 307 308 307 306 305 306 307 306 306 308 310 311 312 314 314 316 317 318 319
304 303 306 305 306 307 306 307 308 307 309 308 309 311 312 310 309 307 308 308 307 306 305 305 305 308 306 305 305 304 304 303 305 304 305 307 308 310 311 312 313 314 315 318
309 310 310 309 307 307 308 309 309 309 309 308 312 310 309 309 308 308 307 308 306 305 306 306 306 306 306 304 303 302 301 301 302 302 302 304 306 309 308 310 311 312 314 316
308 308 307 307 308 307 309 309 308 312 312 308 305 310 309 309 309 308 308 306 305 304 305 306 305 305 304 304 303 301 300 300 300 300 300 302 303 305 306 307 307 310 313 313
307 308 308 308 310 310 309 310 308 310 310 308 308 308 310 309 309 307 307 305 306 305 307 306 305 304 303 302 301 300 298 297 297 297 298 298 299 300 303 301 304 307 308 309
306 307 306 307 307 309 309 308 307 306 301 305 309 310 309 309 309 308 304 302 306 307 307 305 304 303 302 301 301 299 298 295 295 294 295 295 296 296 297 299 300 301 304 306
305 304 304 304 303 304 307 310 310 306 302 299 304 310 309 307 307 306 307 305 307 304 306 305 305 302 301 300 300 299 298 297 295 294 293 293 293 293 293 294 295 297 298 300
304 304 303 304 304 304 306 306 306 307 302 302 305 308 309 310 307 305 303 309 308 306 305 305 303 300 299 301 300 300 299 297 295 294 293 292 292 292 292 292 293 294 294 295
304 305 304 305 305 304 304 305 306 306 307 309 309 309 307 309 306 308 313 308 306 306 306 305 304 301 300 301 302 301 301 298 296 295 293 291 291 291 291 291 291 292 293 293
305 304 304 305 304 306 306 307 307 307 306 307 308 309 309 309 307 309 309 312 305 304 305 305 304 304 302 302 301 302 301 300 298 295 294 291 290 289 289 290 290 289 291 291
304 303 304 306 303 304 307 308 306 305 307 304 306 308 308 307 307 307 308 308 308 305 305 306 305 304 304 304 303 301 300 300 298 296 293 292 290 289 288 288 289 289 289 290
304 303 303 305 309 309 308 306 305 303 304 307 305 305 306 306 304 304 303 307 309 306 306 305 304 304 303 303 303 303 301 300 296 297 295 293 291 290 289 289 289 289 289 289

GFSNGP_sfc_thetae_105.txt.gz
Theta_e
297 301 301 299 299 301 296 299 301 305 306 310 313 314 316 318 317 316 319 321 322 325 326 324 324 325 326 329 330 334 333 335 337 339 340 343 348 350 353 354 355 355 355 356
294 300 300 297 299 301 300 309 309 309 306 314 315 317 317 316 316 315 314 316 321 320 322 326 325 325 326 327 327 329 330 332 336 338 339 339 340 339 348 350 351 353 353 351
290 298 297 292 296 298 298 300 311 305 309 314 313 314 315 316 316 315 314 314 315 315 315 316 318 325 326 327 328 328 327 329 331 333 333 335 338 338 339 339 347 348 350 352
291 294 284 294 304 302 299 301 312 313 314 315 315 316 317 318 315 314 313 311 310 311 312 313 315 317 320 326 329 327 327 329 327 327 328 332 333 334 336 338 340 342 347 350
287 288 293 298 302 299 297 307 315 313 314 316 317 316 314 317 316 313 311 309 309 312 313 312 312 314 317 319 320 320 321 322 323 325 328 326 325 329 332 334 337 339 341 339
290 286 285 296 302 305 302 299 314 315 314 313 312 304 308 314 313 310 309 309 309 310 311 310 310 313 313 315 315 315 317 318 321 322 322 322 325 327 327 329 333 336 336 337
288 288 295 302 304 305 292 296 309 315 312 311 307 308 310 309 308 308 307 308 309 310 309 309 312 312 311 312 311 314 316 316 318 319 319 319 321 328 329 327 327 328 332 334
289 286 288 306 305 299 303 308 310 311 309 306 305 306 307 308 308 307 306 307 309 307 307 310 311 310 309 310 313 314 314 314 315 317 318 319 318 320 324 330 328 327 327 330
294 295 303 306 305 307 309 307 308 308 308 308 307 307 307 307 307 306 306 306 307 305 306 308 309 310 308 308 310 310 309 310 311 314 315 317 317 317 316 321 324 326 322 318
297 304 303 305 307 308 309 307 308 309 309 308 306 307 306 305 304 304 305 305 306 305 305 305 307 307 306 308 309 308 307 307 309 309 310 311 313 315 315 316 317 321 321 318
296 299 302 305 306 306 306 308 307 307 305 304 305 304 304 304 303 304 304 305 305 304 305 304 305 304 306 306 306 305 306 307 307 309 308 308 309 311 313 314 314 316 318 320
294 302 300 302 305 308 305 304 306 304 304 304 303 303 305 303 304 305 304 304 304 304 303 302 303 303 304 305 304 303 303 306 307 308 310 309 309 308 309 306 304 303 302 305
302 306 305 307 308 309 306 306 306 303 303 302 303 303 304 303 304 306 303 304 303 302 302 302 302 302 303 304 303 302 300 302 304 306 308 307 308 308 307 309 306 304 303 300
307 306 303 306 303 308 309 310 309 307 305 305 304 304 304 304 304 303 303 304 303 302 302 302 301 300 302 301 302 301 300 304 303 303 304 305 306 306 307 307 308 310 308 306
305 306 305 306 306 307 307 307 305 305 306 303 305 305 304 303 302 304 304 304 303 302 301 301 300 299 302 302 301 300 300 302 301 302 302 303 304 305 306 307 308 309 311 310
304 305 306 305 303 305 305 306 304 304 303 304 304 304 305 305 305 306 303 303 300 299 299 299 299 301 302 300 300 299 300 306 304 300 300 301 302 303 304 305 306 307 308 310
300 302 303 304 304 304 305 306 305 304 306 305 305 306 306 306 306 302 302 302 302 300 300 299 299 301 301 300 297 297 297 297 302 298 298 299 301 302 303 304 304 305 307 309
306 306 307 306 304 304 306 308 306 306 306 307 307 308 306 305 304 303 304 303 301 300 300 301 301 301 300 298 297 296 296 295 296 295 297 298 299 300 301 301 303 303 305 307
308 307 307 306 306 305 305 305 306 308 308 307 307 306 306 307 304 304 303 302 300 298 300 305 307 303 299 299 298 295 294 293 293 293 294 296 295 297 297 298 299 302 303 303
307 307 306 308 309 305 303 308 308 305 306 307 307 306 305 305 306 305 303 300 300 301 302 301 300 299 298 298 300 294 293 292 291 291 292 292 293 293 295 295 296 297 299 301
306 307 306 308 306 307 305 306 306 303 303 304 303 304 303 302 306 305 301 300 301 304 302 306 300 299 297 296 296 294 293 293 291 290 290 290 291 291 293 293 294 294 295 295
304 302 303 303 303 303 304 304 306 304 302 301 302 302 304 304 305 302 302 300 303 307 302 300 300 303 299 301 294 294 294 295 292 294 293 291 290 291 291 291 291 292 293 294
302 302 303 302 301 301 302 303 303 303 301 300 299 302 303 304 304 301 299 303 303 304 301 300 304 304 302 295 295 295 295 295 293 292 293 292 291 290 290 290 290 290 291 292
303 302 302 303 303 302 300 302 303 303 302 304 301 304 303 303 304 305 305 306 306 305 302 302 303 304 302 296 296 296 296 296 294 293 295 293 292 291 289 289 288 289 290 290
302 302 303 302 301 301 302 302 303 302 302 302 304 305 306 306 303 304 305 305 305 303 301 304 304 304 298 297 298 298 296 297 295 293 292 292 292 290 289 289 288 289 289 290
302 301 302 303 302 302 303 303 301 301 301 301 303 305 305 306 306 306 307 306 305 303 301 302 301 301 301 300 300 299 298 296 294 292 292 291 292 291 289 289 288 288 288 289
302 299 303 302 305 304 304 302 301 301 301 303 303 305 306 306 305 304 304 303 303 302 301 302 301 302 301 300 301 301 300 299 296 295 294 291 293 291 290 289 289 289 289 289

GFSNGP_sfc_thetae_108.txt.gz
Theta_e
297 298 298 298 296 297 297 298 294 304 306 310 312 312 314 317 319 320 322 323 322 320 322 324 326 326 329 330 333 333 334 336 338 338 339 340 340 340 347 349 351 350 348 348
295 299 298 295 297 299 308 308 307 307 306 314 316 316 315 315 317 317 319 320 323 324 323 322 323 324 325 325 326 329 331 334 335 335 336 337 338 339 340 341 346 347 349 351
290 296 294 289 294 294 299 309 309 303 307 314 313 314 314 314 314 314 317 316 315 315 316 317 324 324 324 325 326 326 326 326 328 331 330 332 335 336 337 337 339 340 343 346
290 293 285 294 299 299 302 311 311 310 312 314 315 316 316 316 314 312 310 312 311 310 312 314 316 320 327 327 324 322 321 321 324 327 328 329 331 331 333 336 338 339 338 339
286 288 292 297 300 298 304 305 313 312 313 314 315 315 312 313 311 309 306 308 308 309 309 310 313 315 317 317 317 317 317 317 319 321 321 324 326 329 331 332 334 335 338 338
287 285 285 295 301 305 306 296 313 315 313 312 312 303 305 309 309 307 308 308 308 308 308 310 310 312 311 310 310 311 312 314 315 316 317 318 319 324 328 326 328 331 334 336
285 285 292 299 305 306 292 293 311 315 314 312 308 306 307 307 306 307 308 307 307 308 307 308 309 309 307 308 308 310 312 312 313 313 313 314 315 318 320 323 327 327 326 328
284 283 284 304 304 297 301 305 309 309 306 306 305 305 305 304 304 305 306 306 306 306 306 307 308 308 305 305 307 308 308 309 309 310 313 315 313 315 315 316 319 322 323 324
291 291 299 302 303 305 307 306 306 305 306 307 306 305 305 303 303 304 305 304 305 305 304 305 305 305 303 303 305 306 305 305 306 307 308 309 309 310 311 312 313 315 320 320
294 298 300 301 303 305 306 307 307 307 308 308 306 307 305 305 304 304 302 303 303 303 302 302 302 303 303 303 304 303 302 303 305 305 307 307 307 308 308 308 308 310 311 312
292 296 299 302 302 303 304 305 306 307 306 305 305 304 305 302 301 303 302 302 303 302 301 300 301 302 302 302 301 301 301 303 303 305 304 306 307 305 307 307 307 306 306 309
291 298 297 300 302 304 302 303 303 303 301 303 303 303 302 301 302 303 302 303 301 300 299 299 300 300 300 301 301 299 298 299 300 301 302 304 304 305 306 303 303 300 299 301
298 301 302 302 304 306 301 302 303 302 301 300 302 302 301 301 302 303 302 301 300 300 300 300 299 299 299 299 300 298 296 297 298 300 301 301 301 301 301 305 304 302 301 301
302 300 300 302 299 304 305 306 306 303 301 301 301 302 303 302 301 301 301 300 300 300 299 299 298 298 299 299 298 298 297 302 297 297 298 299 299 300 301 301 302 304 305 303
301 301 300 301 302 303 303 304 303 301 301 300 301 301 303 301 299 300 301 300 300 299 299 298 297 297 300 300 299 297 297 297 298 297 297 299 298 298 299 301 301 302 305 304
300 302 301 299 301 301 302 302 301 301 301 303 303 301 302 302 302 301 301 300 299 297 297 297 297 298 300 298 296 295 295 302 301 295 295 296 297 298 298 299 299 300 301 303
297 295 297 297 300 300 300 302 303 303 303 304 304 304 303 303 302 300 300 300 299 298 297 297 297 299 299 297 295 294 294 294 300 294 294 295 296 296 296 297 298 298 299 302
301 301 302 302 301 300 304 306 306 305 305 306 306 306 304 302 300 299 299 299 299 297 298 298 298 299 298 296 295 294 293 292 292 291 292 292 293 294 294 294 295 295 297 299
304 303 303 304 303 302 301 303 304 306 304 305 304 304 304 304 302 300 300 299 298 296 297 298 306 304 297 298 297 293 292 291 290 290 291 293 291 291 291 292 293 294 294 295
304 305 304 304 305 303 304 304 304 303 304 304 304 305 305 303 306 305 302 300 301 300 299 299 302 298 296 296 302 293 292 291 290 290 289 289 289 289 290 291 291 291 292 294
301 303 304 302 301 303 301 300 301 300 301 301 302 301 303 305 306 306 303 301 303 301 300 306 298 297 295 296 296 292 291 291 290 289 289 288 288 290 291 291 291 291 291 292
297 297 299 299 298 298 299 298 298 301 299 298 300 301 302 300 303 304 305 302 304 306 301 300 298 302 297 304 292 292 291 292 291 290 289 289 291 289 290 290 290 290 290 290
297 297 297 297 296 296 298 299 298 299 299 298 298 298 298 301 302 300 299 304 303 304 299 298 301 306 308 297 292 292 293 293 292 291 290 290 289 287 287 290 290 289 289 289
295 295 295 297 297 296 295 297 297 298 298 299 298 297 298 297 298 303 303 304 303 303 299 299 302 306 305 294 293 292 292 293 292 291 291 293 289 287 289 291 290 289 288 288
295 295 296 296 295 295 295 296 296 296 297 297 299 300 300 302 303 304 302 304 304 303 301 304 305 305 298 294 294 293 293 293 293 292 291 289 288 287 288 289 289 289 288 288
294 294 296 296 295 296 297 296 294 297 296 297 298 300 302 305 304 302 304 303 302 302 298 297 299 299 296 296 295 295 295 296 295 293 291 290 288 287 287 287 289 288 288 288
295 297 295 295 296 296 297 297 296 294 297 299 300 303 305 304 304 302 301 301 301 300 297 298 298 300 298 298 297 298 299 299 297 295 292 291 290 288 288 287 290 290 290 289

GFSNGP_sfc_thetae_111.txt.gz
Theta_e
296 296 295 295 295 296 292 295 295 304 306 310 312 313 317 320 321 321 320 320 321 323 325 328 329 331 333 334 335 337 335 337 337 337 339 338 338 338 341 344 347 346 344 342
292 300 296 293 295 297 306 308 306 308 306 314 315 315 317 319 320 320 320 320 321 322 322 323 326 327 328 329 330 333 333 332 334 332 337 337 337 337 337 339 341 343 345 348
286 297 295 290 293 294 305 308 308 303 309 314 312 313 314 316 318 318 317 317 313 314 316 323 324 326 325 326 326 324 323 324 326 328 329 332 334 334 335 335 339 339 339 340
286 291 285 295 300 301 307 309 309 309 312 314 313 314 313 316 316 314 314 311 311 313 315 319 323 321 322 320 318 317 316 316 318 320 324 328 329 327 329 332 331 334 337 338
284 285 292 297 299 297 298 304 312 311 313 313 315 315 312 314 313 311 309 308 308 310 314 315 315 315 314 314 314 314 314 313 314 315 317 318 320 326 328 329 330 331 333 335
284 283 284 294 301 305 304 295 311 314 312 311 311 302 303 308 310 309 309 308 308 310 311 311 309 311 311 310 310 310 311 311 312 314 315 315 315 318 322 326 328 329 330 332
283 283 290 300 304 306 292 292 312 315 313 311 307 305 304 307 308 308 308 307 307 307 307 307 308 307 305 305 305 307 308 309 309 308 310 311 311 312 314 316 319 322 327 327
282 282 283 302 303 296 300 301 309 312 312 307 306 306 303 304 305 305 305 306 307 305 305 305 305 305 303 302 304 306 307 306 306 307 309 309 307 309 310 311 312 313 317 318
288 288 297 300 302 305 307 305 307 306 307 307 307 305 304 303 303 303 303 304 305 304 302 302 303 303 301 301 303 303 304 304 304 306 306 307 305 305 306 306 308 309 310 310
292 296 298 300 302 305 305 305 307 308 308 308 306 307 307 305 304 304 303 303 303 302 300 299 301 302 301 302 302 302 300 301 302 302 303 304 305 305 304 304 304 305 306 306
291 295 297 300 300 303 306 306 307 307 308 308 308 306 305 305 304 303 303 303 302 301 299 299 300 299 299 299 300 299 298 299 299 300 300 301 302 303 303 302 301 301 303 303
290 296 294 296 300 303 305 305 305 305 303 304 305 303 303 303 304 303 303 303 300 299 298 298 299 298 298 299 299 296 296 296 297 297 298 299 299 299 302 302 301 298 298 299
297 299 299 301 302 303 300 301 303 303 305 303 302 302 301 300 301 303 302 301 300 299 298 298 298 298 298 298 298 296 295 295 296 297 297 296 297 297 297 300 301 301 299 299
300 300 298 301 299 302 303 304 304 301 302 306 304 302 301 301 301 301 301 301 300 299 298 298 297 297 298 298 297 296 294 301 295 295 295 295 296 296 296 296 297 299 300 300
300 300 298 299 301 302 302 302 300 299 299 299 301 302 302 300 300 301 301 300 300 299 298 297 297 297 298 298 297 295 295 295 295 294 294 295 295 295 296 296 296 296 298 299
300 300 300 299 299 300 300 300 299 299 299 298 298 301 303 303 302 301 300 299 298 297 297 297 296 296 298 297 294 294 294 300 298 292 292 292 293 293 293 293 293 294 295 296
295 294 295 295 298 298 299 300 300 302 304 303 301 300 301 300 298 299 299 300 301 300 298 297 296 298 297 296 294 294 293 292 298 291 290 291 291 291 291 291 291 291 292 295
299 298 299 299 300 299 300 302 302 302 304 306 305 305 302 301 300 300 300 298 298 296 296 297 297 298 297 295 294 293 292 291 290 289 290 290 290 290 290 290 290 290 291 292
302 301 301 302 302 300 300 301 302 305 306 306 305 304 303 303 302 301 300 297 298 297 298 298 306 302 296 296 296 292 291 290 289 289 289 292 289 289 288 289 289 291 290 290
303 303 303 303 303 301 301 301 302 301 302 302 303 303 303 305 304 301 299 299 300 301 302 301 305 298 295 297 303 291 291 290 290 289 289 288 288 288 288 289 289 289 291 290
300 302 301 301 301 302 301 301 301 300 300 300 299 299 300 302 303 302 301 300 303 304 302 304 302 297 295 296 302 291 291 290 289 289 288 288 288 288 287 288 288 289 290 291
296 297 299 300 299 299 298 298 299 298 298 298 298 298 298 298 300 302 303 302 306 307 306 302 301 300 297 305 293 291 290 291 290 289 289 288 288 287 287 287 286 289 290 290
296 299 298 298 296 295 296 296 297 297 297 297 296 297 297 298 298 300 301 302 304 305 305 302 303 305 306 300 292 291 291 291 290 290 289 289 289 288 287 286 286 290 289 289
294 293 294 295 295 294 293 294 295 296 296 297 297 297 297 296 295 298 299 303 304 304 303 301 303 306 307 296 293 291 291 291 291 290 290 292 289 288 287 286 286 286 288 289
292 294 294 294 293 293 293 294 294 293 294 294 295 296 298 298 297 298 300 304 304 304 302 303 305 305 299 294 293 292 292 291 291 291 290 290 290 288 288 288 286 286 289 289
293 294 294 293 294 294 294 293 292 293 294 295 297 298 300 302 305 305 304 303 303 302 300 298 299 301 297 294 294 293 293 292 292 292 293 292 290 288 288 290 286 286 287 289
293 294 294 294 294 294 295 295 293 294 295 296 297 299 301 304 304 303 302 301 302 299 298 297 297 299 296 295 295 295 295 295 295 295 293 293 293 292 290 289 287 287 286 290

GFSNGP_sfc_thetae_114.txt.gz
Theta_e
294 295 295 294 293 294 291 292 294 299 303 310 312 312 319 322 322 321 321 323 324 325 330 331 331 333 334 336 333 335 337 337 336 338 340 340 341 342 344 348 349 349 347 347
292 298 297 293 294 297 305 305 304 305 302 312 313 316 318 320 320 319 319 320 321 323 326 329 330 331 331 330 329 334 331 330 331 333 336 337 338 338 340 342 343 344 344 346
286 293 296 292 292 294 299 308 307 301 305 312 311 315 318 320 320 320 318 315 316 321 323 324 325 327 326 326 326 323 322 322 324 330 330 331 332 335 337 337 337 339 339 340
286 292 286 293 300 308 307 308 309 308 311 312 312 314 317 321 319 316 314 315 317 319 320 319 319 319 319 320 319 316 316 316 318 320 322 326 330 330 329 331 331 334 336 338
285 286 289 296 297 298 299 302 311 310 312 312 314 314 313 319 316 312 311 312 315 317 316 315 314 315 316 317 316 314 313 314 316 317 317 318 320 324 326 330 331 332 335 336
284 283 282 291 301 306 306 292 312 313 311 312 314 305 307 312 312 310 309 311 313 314 313 313 314 313 311 310 311 310 311 312 313 315 314 315 316 318 321 324 327 330 329 330
284 283 289 297 302 304 291 292 311 314 313 312 309 307 306 312 310 310 309 310 311 310 310 309 309 308 306 307 306 308 310 311 311 311 312 312 314 314 314 317 318 320 324 326
282 282 283 300 302 294 297 305 311 313 313 310 307 306 309 308 306 305 306 307 308 307 306 306 307 306 304 304 306 308 309 309 308 309 310 309 310 310 310 311 312 313 314 314
286 286 295 299 300 305 306 307 310 309 308 309 305 306 308 305 303 304 305 305 307 304 303 304 305 305 303 304 305 305 305 305 306 307 307 308 307 307 307 307 307 309 310 310
292 295 297 299 303 306 306 307 309 310 310 309 307 307 306 306 304 305 305 304 303 303 302 301 303 303 303 304 304 303 302 303 304 304 304 305 305 306 305 305 305 306 307 307
291 295 297 300 301 303 306 308 309 310 310 309 308 306 307 306 306 306 305 304 303 302 301 301 301 300 302 302 302 300 300 301 301 302 302 302 303 304 304 305 304 305 305 305
291 296 295 296 300 304 305 306 307 307 306 308 308 307 309 309 306 305 304 304 303 302 302 301 300 300 301 301 300 299 299 299 300 300 300 300 300 300 301 300 299 297 297 301
295 298 298 301 303 303 303 305 306 306 307 305 306 305 306 304 305 306 305 304 303 302 302 300 300 300 300 301 300 299 298 299 299 299 299 299 299 298 297 300 300 299 297 298
301 301 298 301 299 303 303 305 306 304 305 307 305 304 304 303 303 304 303 304 303 302 300 300 300 299 300 300 300 299 300 300 298 298 298 298 298 298 298 297 296 297 299 298
300 299 299 300 301 302 303 303 301 300 301 302 304 303 302 301 302 303 304 302 303 301 300 300 299 299 300 300 299 299 298 298 298 297 298 297 297 296 296 295 295 295 296 296
300 300 300 299 299 301 302 301 300 300 300 299 301 302 303 304 304 303 301 301 300 299 300 299 300 300 301 299 298 297 299 300 297 295 295 295 295 294 294 293 293 293 293 294
296 294 296 296 299 299 300 301 301 301 302 300 299 302 303 301 301 301 301 302 303 302 301 300 300 300 300 298 297 297 297 300 297 294 294 294 294 293 293 293 292 292 293 294
300 298 299 299 299 300 301 303 303 303 303 305 304 303 302 302 302 301 302 302 301 301 301 301 300 301 300 298 298 296 295 295 294 294 294 294 294 294 293 293 293 292 292 293
301 301 301 302 302 301 300 301 303 304 305 305 304 303 304 303 302 302 302 300 299 300 302 301 304 304 300 300 299 296 295 294 294 294 294 294 294 294 293 293 293 293 293 292
303 302 302 303 304 302 301 302 303 303 303 304 305 305 304 304 305 303 303 302 304 305 304 301 304 303 300 300 304 296 295 295 294 294 294 294 294 294 294 292 293 293 293 293
303 303 303 303 303 303 304 303 303 302 302 302 301 301 302 303 303 302 301 300 303 304 303 305 303 303 299 299 305 296 295 295 294 294 294 294 294 294 294 294 293 293 293 292
299 299 301 302 301 299 299 299 300 300 300 299 300 300 299 299 301 301 302 302 304 305 305 304 304 304 303 305 301 297 295 295 294 294 293 293 294 294 294 294 293 293 293 293
296 298 300 299 297 296 297 298 298 298 298 298 298 298 298 300 300 302 301 305 305 306 307 307 307 307 307 305 300 297 295 295 295 295 295 295 295 295 294 295 294 293 293 292
295 295 295 296 296 296 295 296 296 297 297 298 298 298 298 298 298 301 302 303 305 304 307 306 306 307 307 304 299 297 296 296 296 296 296 294 295 295 295 295 294 294 293 292
294 295 295 295 295 295 295 296 296 295 296 297 297 298 299 299 300 301 302 303 304 305 305 305 305 306 306 302 300 298 297 296 296 296 296 296 296 296 296 296 295 294 293 293
294 295 295 296 296 296 296 296 295 295 297 298 298 300 302 303 304 303 303 303 304 304 305 302 304 305 303 301 300 299 298 298 297 297 296 297 297 297 297 297 295 294 294 293
294 294 295 296 296 297 297 296 296 297 297 299 299 301 303 303 304 304 303 304 304 304 303 302 302 303 302 301 300 299 299 299 296 299 299 299 299 298 297 297 296 295 294 293

GFSNGP_sfc_thetae_117.txt.gz
Theta_e
300 300 300 299 299 306 301 302 304 308 310 316 319 320 321 325 326 325 325 327 329 331 334 335 336 336 337 338 339 342 341 341 341 343 345 347 347 351 358 361 360 359 358 357
299 301 301 298 300 304 307 307 308 309 311 319 324 324 322 322 322 324 324 325 326 327 330 332 334 334 332 332 333 336 335 338 338 342 342 340 343 346 349 353 355 356 356 358
295 299 300 296 300 302 308 312 312 308 313 320 320 319 320 321 323 323 323 322 324 326 327 330 332 332 329 327 325 325 324 329 330 335 338 339 339 339 341 343 350 350 350 350
296 299 291 300 307 309 309 312 315 315 316 320 319 322 323 327 326 321 320 321 321 319 319 319 320 321 321 319 319 320 319 323 325 327 331 334 337 338 339 340 342 343 345 347
295 293 297 300 302 302 302 302 313 315 317 319 322 322 321 325 321 320 320 319 318 317 316 317 317 318 318 318 316 316 316 319 321 326 326 324 325 329 335 336 338 338 341 342
294 290 288 299 304 309 309 299 315 318 318 319 320 311 309 314 315 315 317 317 315 314 315 315 314 315 314 314 315 314 315 315 318 320 321 320 321 321 326 330 332 334 338 340
294 292 295 302 307 309 297 301 316 320 320 320 319 321 317 313 312 315 317 315 313 313 310 311 312 312 309 310 310 311 315 315 314 316 316 318 319 321 323 325 327 328 330 332
293 291 288 306 308 301 308 313 316 320 321 321 316 319 318 316 310 311 311 312 312 309 308 309 310 310 309 307 310 312 313 312 312 312 313 314 318 317 319 320 320 321 321 321
297 298 304 307 308 314 315 314 318 321 319 316 316 316 316 315 314 310 310 311 311 309 308 308 309 309 306 308 310 310 310 310 311 312 312 312 313 313 312 316 316 317 317 317
301 304 306 307 311 314 314 314 316 320 317 316 314 312 312 311 312 312 313 312 313 311 310 310 311 311 311 310 311 311 309 309 309 309 309 310 309 309 310 311 313 313 313 313
301 304 306 307 309 310 314 316 317 317 316 316 315 312 310 308 311 309 311 312 312 311 310 309 310 310 310 310 310 308 307 308 307 307 307 307 307 306 308 307 307 309 310 312
303 305 306 306 309 310 313 314 316 316 314 315 315 311 311 309 309 308 308 309 310 311 310 309 309 309 309 309 310 309 307 306 305 305 305 305 306 305 300 300 298 297 297 301
307 307 307 307 309 310 310 312 314 316 317 314 315 315 317 314 313 310 310 309 308 307 307 306 307 308 309 309 310 308 307 306 304 304 304 303 304 304 303 301 299 297 296 296
308 309 306 307 307 309 309 310 312 313 313 315 315 315 316 311 310 310 309 309 310 310 310 309 309 308 309 309 309 308 307 303 304 303 303 302 302 301 302 301 300 301 298 297
307 307 308 309 309 309 310 309 308 311 312 312 313 312 312 311 311 311 312 311 310 308 309 309 308 307 309 309 308 308 306 304 304 303 302 301 301 301 301 300 300 299 300 298
308 307 307 307 307 308 308 307 307 308 308 309 312 312 312 312 314 313 312 311 308 307 308 307 308 308 308 308 307 306 305 303 303 301 301 301 301 301 300 300 299 299 298 298
306 303 304 305 306 307 307 308 309 309 309 308 309 312 311 311 310 310 310 311 312 312 311 310 309 310 309 308 305 304 305 303 301 301 301 301 301 301 300 300 300 299 299 297
307 307 307 308 307 307 308 309 310 310 310 310 310 309 310 309 309 310 311 309 309 308 309 310 311 310 309 308 306 305 304 303 301 301 301 301 301 301 301 301 301 300 300 299
309 308 308 308 309 309 309 309 310 311 312 312 311 309 310 310 311 312 311 310 308 308 310 309 308 309 309 308 306 305 303 302 301 301 301 300 300 301 301 302 302 302 301 299
309 310 309 309 310 310 310 310 310 311 312 313 312 312 311 310 310 310 310 307 308 310 308 306 308 310 309 308 306 305 304 303 302 301 301 301 301 301 301 296 300 302 302 301
308 310 309 310 310 309 307 308 308 308 309 311 311 311 311 312 312 312 310 309 313 313 313 310 311 309 308 304 307 302 301 302 303 302 302 301 301 301 301 302 302 302 301 301
309 309 309 309 307 307 307 307 307 308 308 308 309 309 309 310 311 311 312 311 315 307 310 309 310 309 305 306 304 302 301 301 303 303 303 303 302 301 301 302 302 302 302 302
307 307 305 305 304 304 306 307 306 306 306 306 307 307 307 307 308 307 306 313 311 309 311 311 310 307 307 305 303 302 304 304 304 303 303 304 304 303 302 302 303 303 303 303
304 304 303 305 305 305 304 305 305 306 306 306 306 307 307 306 306 308 311 308 307 308 309 311 309 307 307 305 305 306 305 304 305 305 304 298 304 304 303 303 303 304 305 302
303 304 305 305 304 305 306 306 305 305 306 307 307 307 307 308 307 310 309 311 305 307 310 308 307 307 307 306 309 308 307 305 306 306 305 305 305 305 304 304 305 305 305 305
304 304 304 305 304 305 305 306 305 306 306 306 307 308 308 309 310 311 310 308 310 307 309 308 308 305 306 307 308 309 308 308 306 305 304 306 306 305 306 306 306 306 306 305
304 301 304 304 305 306 306 305 305 304 304 306 304 307 308 308 308 309 306 309 309 309 309 307 306 306 307 307 309 309 309 309 304 308 307 307 307 308 308 308 308 308 307 305

GFSNGP_sfc_thetae_120.txt.gz
Theta_e
305 304 304 304 304 306 306 307 304 306 309 314 325 328 329 329 329 330 332 333 337 339 341 343 344 345 346 349 349 350 349 350 351 352 356 356 356 360 363 362 358 360 363 363
302 304 304 302 304 307 307 308 309 310 311 324 329 332 327 328 329 331 332 333 335 337 338 339 338 340 341 340 341 346 345 345 346 349 349 349 351 352 356 361 362 363 362 361
299 304 303 300 303 305 308 313 312 309 318 325 326 324 326 327 329 329 330 333 334 337 337 338 336 332 328 327 333 333 336 344 343 346 347 348 348 349 347 351 357 358 360 359
299 303 294 305 310 309 308 312 318 317 319 322 326 326 326 329 327 327 330 329 325 324 323 326 332 332 331 325 325 324 325 328 333 337 340 342 344 345 347 348 349 350 352 354
297 297 301 303 307 307 306 306 312 312 319 324 324 323 323 330 332 332 328 324 320 319 319 320 324 330 328 327 321 324 321 322 325 327 329 330 333 339 344 345 346 347 347 350
301 295 292 304 308 311 311 302 315 318 320 320 321 313 317 327 330 329 324 321 318 317 315 314 316 321 320 316 320 319 321 319 322 325 327 325 325 333 337 342 338 343 340 337
299 296 299 307 310 311 300 305 317 321 323 322 318 323 326 326 324 327 324 319 319 314 311 312 314 314 312 315 313 315 317 318 319 324 322 325 329 331 330 334 338 333 332 333
298 296 293 311 310 304 314 317 317 322 325 325 323 325 323 318 320 316 315 315 314 312 311 311 313 312 310 311 314 315 316 315 316 317 318 320 324 327 330 331 330 330 331 330
300 302 312 314 314 317 320 320 320 323 326 325 325 322 317 315 314 315 317 317 314 310 309 313 312 313 311 312 315 314 315 315 315 315 315 316 318 319 319 324 326 326 326 326
304 308 310 313 316 317 322 322 321 326 326 325 324 323 321 320 317 312 312 312 315 310 309 309 311 312 313 314 315 317 315 315 315 315 315 314 313 314 315 316 316 316 318 320
306 311 311 313 315 316 320 323 323 324 325 325 324 322 321 318 315 313 312 313 312 310 310 310 311 311 312 313 315 314 314 314 314 313 313 312 310 310 309 306 307 314 315 313
303 313 313 314 315 317 317 319 321 322 322 325 324 320 318 315 312 309 311 312 314 314 313 311 312 313 314 315 317 315 313 312 311 311 311 310 309 307 300 300 298 297 296 302
311 315 313 315 316 316 316 318 319 321 322 322 322 321 319 317 317 312 310 312 311 314 314 314 312 312 315 315 316 314 312 312 309 309 309 309 309 308 304 300 298 296 295 295
314 314 311 312 313 315 315 317 317 319 321 321 322 323 322 320 318 316 314 315 314 313 313 313 313 312 314 313 314 313 312 304 310 309 309 308 308 308 308 307 306 304 297 298
313 313 314 315 314 314 315 315 315 316 318 319 321 322 324 321 318 318 319 317 313 312 312 313 313 312 313 314 314 313 310 309 309 309 308 307 307 307 306 307 306 306 307 300
313 312 312 311 311 312 312 312 313 314 315 317 319 320 321 323 322 321 320 319 315 311 313 313 313 313 314 314 313 312 310 306 309 307 305 307 307 307 306 306 306 305 305 303
310 309 310 309 310 310 311 314 314 314 315 315 314 315 320 320 320 321 321 320 318 317 315 313 312 314 314 312 311 309 308 306 308 307 307 307 307 307 307 307 307 307 306 299
313 311 309 309 308 309 309 311 313 313 314 315 316 316 315 317 316 317 319 320 319 318 318 316 316 314 313 312 310 308 308 306 305 305 306 306 306 306 306 306 307 307 307 302
310 309 309 309 310 309 309 309 311 312 314 316 316 315 316 317 318 317 318 317 316 315 314 315 316 314 314 313 311 309 308 308 306 306 306 304 304 306 305 305 306 307 308 307
311 312 312 312 313 312 311 312 312 313 314 315 314 314 315 316 318 317 317 316 316 315 319 316 314 310 311 312 311 310 309 308 306 306 306 305 305 305 306 299 303 305 306 305
312 312 312 313 313 314 315 316 314 313 315 314 312 311 311 313 315 317 315 313 317 319 318 315 314 313 310 310 308 306 307 308 307 306 306 305 306 305 306 306 306 306 306 305
312 313 314 314 314 313 313 314 314 314 313 312 313 314 314 314 313 314 316 314 315 309 315 316 315 313 311 311 309 306 305 304 305 307 307 307 307 306 306 306 305 306 306 306
312 313 314 313 311 310 309 311 311 309 309 309 310 310 310 309 309 308 307 314 316 311 314 315 313 311 310 312 311 309 303 302 302 304 305 306 307 307 307 306 306 306 306 307
313 312 309 309 308 307 307 310 311 311 311 310 310 311 310 308 308 311 311 308 307 309 313 313 312 308 307 311 310 311 308 306 307 307 306 301 307 308 308 307 306 306 307 306
308 306 307 306 306 307 309 310 309 309 311 311 312 313 311 311 309 312 314 315 307 309 313 308 307 307 310 312 310 306 304 305 305 306 306 307 307 307 307 308 307 307 308 308
304 306 307 308 306 307 308 310 307 308 310 309 309 309 311 313 313 313 313 311 313 309 312 313 313 311 310 308 307 307 307 308 308 308 308 308 309 309 308 307 309 308 308 309
308 304 307 306 307 308 308 308 309 306 307 306 307 309 309 310 311 312 308 311 310 309 310 312 311 308 308 307 309 309 309 308 306 311 310 310 310 311 310 310 310 310 309 309